<?xml version="1.0" encoding="UTF-8" standalone="no" ?>
<gpx xmlns="http://www.topografix.com/GPX/1/1" xmlns:xsi="http://www.w3.org/2001/XMLSchema-instance" xsi:schemaLocation="http://www.topografix.com/GPX/1/1 http://www.topografix.com/GPX/1/1/gpx.xsd" version="1.1" creator="VisuGPX - https://www.visugpx.com">
  <metadata>
    <name>sortie mont saint aubert</name>
    <desc><![CDATA[wattrelos - mont saint aubert - wattrelos]]></desc>
  </metadata>
  <trk>
    <name><![CDATA[06-AVR-15 12:23:23]]></name>
    <trkseg>
      <trkpt lat="50.7064" lon="3.22974">
        <ele>38.11</ele>
        <time>2015-04-06T07:35:09Z</time>
      </trkpt>
      <trkpt lat="50.70642" lon="3.22978">
        <ele>43.4</ele>
        <time>2015-04-06T07:35:30Z</time>
      </trkpt>
      <trkpt lat="50.70641" lon="3.22973">
        <ele>39.55</ele>
        <time>2015-04-06T07:35:47Z</time>
      </trkpt>
      <trkpt lat="50.7064" lon="3.22973">
        <ele>38.11</ele>
        <time>2015-04-06T07:35:56Z</time>
      </trkpt>
      <trkpt lat="50.70638" lon="3.22975">
        <ele>37.63</ele>
        <time>2015-04-06T07:36:07Z</time>
      </trkpt>
      <trkpt lat="50.70638" lon="3.22975">
        <ele>37.63</ele>
        <time>2015-04-06T07:36:15Z</time>
      </trkpt>
      <trkpt lat="50.70631" lon="3.22967">
        <ele>36.19</ele>
        <time>2015-04-06T07:36:21Z</time>
      </trkpt>
      <trkpt lat="50.7062" lon="3.22934">
        <ele>36.19</ele>
        <time>2015-04-06T07:36:29Z</time>
      </trkpt>
      <trkpt lat="50.70602" lon="3.22891">
        <ele>35.71</ele>
        <time>2015-04-06T07:36:37Z</time>
      </trkpt>
      <trkpt lat="50.70584" lon="3.22846">
        <ele>35.23</ele>
        <time>2015-04-06T07:36:44Z</time>
      </trkpt>
      <trkpt lat="50.7055" lon="3.22786">
        <ele>34.74</ele>
        <time>2015-04-06T07:36:54Z</time>
      </trkpt>
      <trkpt lat="50.7051" lon="3.22721">
        <ele>34.74</ele>
        <time>2015-04-06T07:37:04Z</time>
      </trkpt>
      <trkpt lat="50.70468" lon="3.22654">
        <ele>34.74</ele>
        <time>2015-04-06T07:37:14Z</time>
      </trkpt>
      <trkpt lat="50.70435" lon="3.22593">
        <ele>35.23</ele>
        <time>2015-04-06T07:37:24Z</time>
      </trkpt>
      <trkpt lat="50.70427" lon="3.22583">
        <ele>35.71</ele>
        <time>2015-04-06T07:37:28Z</time>
      </trkpt>
      <trkpt lat="50.70425" lon="3.22585">
        <ele>35.71</ele>
        <time>2015-04-06T07:37:29Z</time>
      </trkpt>
      <trkpt lat="50.70423" lon="3.22589">
        <ele>35.71</ele>
        <time>2015-04-06T07:37:30Z</time>
      </trkpt>
      <trkpt lat="50.70402" lon="3.22626">
        <ele>33.3</ele>
        <time>2015-04-06T07:37:37Z</time>
      </trkpt>
      <trkpt lat="50.70398" lon="3.22632">
        <ele>33.3</ele>
        <time>2015-04-06T07:37:38Z</time>
      </trkpt>
      <trkpt lat="50.70361" lon="3.2268">
        <ele>31.38</ele>
        <time>2015-04-06T07:37:47Z</time>
      </trkpt>
      <trkpt lat="50.70342" lon="3.22705">
        <ele>29.94</ele>
        <time>2015-04-06T07:37:54Z</time>
      </trkpt>
      <trkpt lat="50.70338" lon="3.2271">
        <ele>29.94</ele>
        <time>2015-04-06T07:37:59Z</time>
      </trkpt>
      <trkpt lat="50.70334" lon="3.22715">
        <ele>29.46</ele>
        <time>2015-04-06T07:38:07Z</time>
      </trkpt>
      <trkpt lat="50.70315" lon="3.22741">
        <ele>28.5</ele>
        <time>2015-04-06T07:38:14Z</time>
      </trkpt>
      <trkpt lat="50.70285" lon="3.22782">
        <ele>28.98</ele>
        <time>2015-04-06T07:38:22Z</time>
      </trkpt>
      <trkpt lat="50.70281" lon="3.22787">
        <ele>28.98</ele>
        <time>2015-04-06T07:38:23Z</time>
      </trkpt>
      <trkpt lat="50.70241" lon="3.22837">
        <ele>28.5</ele>
        <time>2015-04-06T07:38:32Z</time>
      </trkpt>
      <trkpt lat="50.70216" lon="3.22859">
        <ele>28.02</ele>
        <time>2015-04-06T07:38:37Z</time>
      </trkpt>
      <trkpt lat="50.70211" lon="3.2286">
        <ele>28.02</ele>
        <time>2015-04-06T07:38:38Z</time>
      </trkpt>
      <trkpt lat="50.70206" lon="3.22859">
        <ele>27.53</ele>
        <time>2015-04-06T07:38:39Z</time>
      </trkpt>
      <trkpt lat="50.70201" lon="3.22856">
        <ele>27.53</ele>
        <time>2015-04-06T07:38:40Z</time>
      </trkpt>
      <trkpt lat="50.70196" lon="3.22854">
        <ele>27.53</ele>
        <time>2015-04-06T07:38:41Z</time>
      </trkpt>
      <trkpt lat="50.70191" lon="3.2285">
        <ele>27.53</ele>
        <time>2015-04-06T07:38:42Z</time>
      </trkpt>
      <trkpt lat="50.70186" lon="3.22847">
        <ele>27.53</ele>
        <time>2015-04-06T07:38:43Z</time>
      </trkpt>
      <trkpt lat="50.70182" lon="3.22844">
        <ele>28.02</ele>
        <time>2015-04-06T07:38:44Z</time>
      </trkpt>
      <trkpt lat="50.70149" lon="3.22823">
        <ele>27.05</ele>
        <time>2015-04-06T07:38:51Z</time>
      </trkpt>
      <trkpt lat="50.70144" lon="3.22823">
        <ele>27.05</ele>
        <time>2015-04-06T07:38:52Z</time>
      </trkpt>
      <trkpt lat="50.70139" lon="3.22824">
        <ele>27.53</ele>
        <time>2015-04-06T07:38:53Z</time>
      </trkpt>
      <trkpt lat="50.70098" lon="3.22846">
        <ele>28.02</ele>
        <time>2015-04-06T07:39:01Z</time>
      </trkpt>
      <trkpt lat="50.70059" lon="3.22868">
        <ele>28.5</ele>
        <time>2015-04-06T07:39:09Z</time>
      </trkpt>
      <trkpt lat="50.70055" lon="3.22867">
        <ele>28.5</ele>
        <time>2015-04-06T07:39:10Z</time>
      </trkpt>
      <trkpt lat="50.70051" lon="3.22865">
        <ele>28.5</ele>
        <time>2015-04-06T07:39:11Z</time>
      </trkpt>
      <trkpt lat="50.70047" lon="3.2286">
        <ele>28.02</ele>
        <time>2015-04-06T07:39:12Z</time>
      </trkpt>
      <trkpt lat="50.70044" lon="3.22854">
        <ele>28.02</ele>
        <time>2015-04-06T07:39:13Z</time>
      </trkpt>
      <trkpt lat="50.70042" lon="3.22847">
        <ele>28.02</ele>
        <time>2015-04-06T07:39:14Z</time>
      </trkpt>
      <trkpt lat="50.70016" lon="3.22789">
        <ele>28.5</ele>
        <time>2015-04-06T07:39:22Z</time>
      </trkpt>
      <trkpt lat="50.69982" lon="3.22711">
        <ele>29.46</ele>
        <time>2015-04-06T07:39:32Z</time>
      </trkpt>
      <trkpt lat="50.69953" lon="3.22641">
        <ele>29.94</ele>
        <time>2015-04-06T07:39:40Z</time>
      </trkpt>
      <trkpt lat="50.69921" lon="3.22545">
        <ele>29.46</ele>
        <time>2015-04-06T07:39:50Z</time>
      </trkpt>
      <trkpt lat="50.69901" lon="3.22477">
        <ele>28.98</ele>
        <time>2015-04-06T07:39:57Z</time>
      </trkpt>
      <trkpt lat="50.69863" lon="3.22402">
        <ele>28.98</ele>
        <time>2015-04-06T07:40:06Z</time>
      </trkpt>
      <trkpt lat="50.69833" lon="3.22341">
        <ele>29.94</ele>
        <time>2015-04-06T07:40:14Z</time>
      </trkpt>
      <trkpt lat="50.69829" lon="3.22338">
        <ele>29.94</ele>
        <time>2015-04-06T07:40:15Z</time>
      </trkpt>
      <trkpt lat="50.69825" lon="3.22338">
        <ele>30.42</ele>
        <time>2015-04-06T07:40:16Z</time>
      </trkpt>
      <trkpt lat="50.6982" lon="3.22341">
        <ele>30.42</ele>
        <time>2015-04-06T07:40:17Z</time>
      </trkpt>
      <trkpt lat="50.69817" lon="3.22347">
        <ele>30.42</ele>
        <time>2015-04-06T07:40:18Z</time>
      </trkpt>
      <trkpt lat="50.69813" lon="3.22354">
        <ele>30.42</ele>
        <time>2015-04-06T07:40:19Z</time>
      </trkpt>
      <trkpt lat="50.6981" lon="3.22361">
        <ele>29.94</ele>
        <time>2015-04-06T07:40:20Z</time>
      </trkpt>
      <trkpt lat="50.69784" lon="3.22416">
        <ele>28.5</ele>
        <time>2015-04-06T07:40:27Z</time>
      </trkpt>
      <trkpt lat="50.69749" lon="3.2249">
        <ele>28.5</ele>
        <time>2015-04-06T07:40:36Z</time>
      </trkpt>
      <trkpt lat="50.69733" lon="3.22524">
        <ele>28.5</ele>
        <time>2015-04-06T07:40:40Z</time>
      </trkpt>
      <trkpt lat="50.69692" lon="3.22589">
        <ele>27.05</ele>
        <time>2015-04-06T07:40:49Z</time>
      </trkpt>
      <trkpt lat="50.69644" lon="3.22639">
        <ele>26.09</ele>
        <time>2015-04-06T07:40:57Z</time>
      </trkpt>
      <trkpt lat="50.69576" lon="3.22707">
        <ele>25.13</ele>
        <time>2015-04-06T07:41:08Z</time>
      </trkpt>
      <trkpt lat="50.69522" lon="3.22765">
        <ele>23.21</ele>
        <time>2015-04-06T07:41:17Z</time>
      </trkpt>
      <trkpt lat="50.69511" lon="3.22781">
        <ele>22.73</ele>
        <time>2015-04-06T07:41:19Z</time>
      </trkpt>
      <trkpt lat="50.69506" lon="3.2279">
        <ele>22.25</ele>
        <time>2015-04-06T07:41:20Z</time>
      </trkpt>
      <trkpt lat="50.69502" lon="3.228">
        <ele>22.25</ele>
        <time>2015-04-06T07:41:21Z</time>
      </trkpt>
      <trkpt lat="50.69471" lon="3.22882">
        <ele>21.29</ele>
        <time>2015-04-06T07:41:29Z</time>
      </trkpt>
      <trkpt lat="50.69444" lon="3.22965">
        <ele>22.25</ele>
        <time>2015-04-06T07:41:37Z</time>
      </trkpt>
      <trkpt lat="50.69419" lon="3.23073">
        <ele>22.73</ele>
        <time>2015-04-06T07:41:47Z</time>
      </trkpt>
      <trkpt lat="50.69394" lon="3.23188">
        <ele>24.65</ele>
        <time>2015-04-06T07:41:58Z</time>
      </trkpt>
      <trkpt lat="50.69373" lon="3.23284">
        <ele>24.17</ele>
        <time>2015-04-06T07:42:07Z</time>
      </trkpt>
      <trkpt lat="50.69366" lon="3.23345">
        <ele>23.69</ele>
        <time>2015-04-06T07:42:13Z</time>
      </trkpt>
      <trkpt lat="50.69366" lon="3.23355">
        <ele>23.69</ele>
        <time>2015-04-06T07:42:14Z</time>
      </trkpt>
      <trkpt lat="50.69366" lon="3.23385">
        <ele>23.21</ele>
        <time>2015-04-06T07:42:18Z</time>
      </trkpt>
      <trkpt lat="50.69364" lon="3.23391">
        <ele>23.21</ele>
        <time>2015-04-06T07:42:19Z</time>
      </trkpt>
      <trkpt lat="50.6936" lon="3.23395">
        <ele>23.21</ele>
        <time>2015-04-06T07:42:20Z</time>
      </trkpt>
      <trkpt lat="50.69355" lon="3.23398">
        <ele>23.21</ele>
        <time>2015-04-06T07:42:21Z</time>
      </trkpt>
      <trkpt lat="50.6935" lon="3.23401">
        <ele>23.69</ele>
        <time>2015-04-06T07:42:22Z</time>
      </trkpt>
      <trkpt lat="50.69345" lon="3.23404">
        <ele>23.69</ele>
        <time>2015-04-06T07:42:23Z</time>
      </trkpt>
      <trkpt lat="50.69298" lon="3.2344">
        <ele>22.73</ele>
        <time>2015-04-06T07:42:31Z</time>
      </trkpt>
      <trkpt lat="50.6923" lon="3.23493">
        <ele>22.73</ele>
        <time>2015-04-06T07:42:41Z</time>
      </trkpt>
      <trkpt lat="50.69183" lon="3.23535">
        <ele>22.25</ele>
        <time>2015-04-06T07:42:48Z</time>
      </trkpt>
      <trkpt lat="50.69177" lon="3.23543">
        <ele>22.25</ele>
        <time>2015-04-06T07:42:49Z</time>
      </trkpt>
      <trkpt lat="50.6913" lon="3.23605">
        <ele>21.77</ele>
        <time>2015-04-06T07:42:57Z</time>
      </trkpt>
      <trkpt lat="50.69123" lon="3.2361">
        <ele>21.77</ele>
        <time>2015-04-06T07:42:58Z</time>
      </trkpt>
      <trkpt lat="50.69115" lon="3.23612">
        <ele>21.29</ele>
        <time>2015-04-06T07:42:59Z</time>
      </trkpt>
      <trkpt lat="50.69107" lon="3.23613">
        <ele>21.29</ele>
        <time>2015-04-06T07:43:00Z</time>
      </trkpt>
      <trkpt lat="50.691" lon="3.23613">
        <ele>21.29</ele>
        <time>2015-04-06T07:43:01Z</time>
      </trkpt>
      <trkpt lat="50.69042" lon="3.23609">
        <ele>21.29</ele>
        <time>2015-04-06T07:43:09Z</time>
      </trkpt>
      <trkpt lat="50.6899" lon="3.23612">
        <ele>22.25</ele>
        <time>2015-04-06T07:43:17Z</time>
      </trkpt>
      <trkpt lat="50.68566" lon="3.23965">
        <ele>22.73</ele>
        <time>2015-04-06T07:44:31Z</time>
      </trkpt>
      <trkpt lat="50.68559" lon="3.23974">
        <ele>21.29</ele>
        <time>2015-04-06T07:44:32Z</time>
      </trkpt>
      <trkpt lat="50.68553" lon="3.2398">
        <ele>22.25</ele>
        <time>2015-04-06T07:44:33Z</time>
      </trkpt>
      <trkpt lat="50.68548" lon="3.23985">
        <ele>21.77</ele>
        <time>2015-04-06T07:44:34Z</time>
      </trkpt>
      <trkpt lat="50.68543" lon="3.2399">
        <ele>23.21</ele>
        <time>2015-04-06T07:44:35Z</time>
      </trkpt>
      <trkpt lat="50.68494" lon="3.24033">
        <ele>27.05</ele>
        <time>2015-04-06T07:44:44Z</time>
      </trkpt>
      <trkpt lat="50.68446" lon="3.24075">
        <ele>28.5</ele>
        <time>2015-04-06T07:44:53Z</time>
      </trkpt>
      <trkpt lat="50.68412" lon="3.24104">
        <ele>28.02</ele>
        <time>2015-04-06T07:45:00Z</time>
      </trkpt>
      <trkpt lat="50.68373" lon="3.24137">
        <ele>29.46</ele>
        <time>2015-04-06T07:45:08Z</time>
      </trkpt>
      <trkpt lat="50.68364" lon="3.24145">
        <ele>30.42</ele>
        <time>2015-04-06T07:45:10Z</time>
      </trkpt>
      <trkpt lat="50.68361" lon="3.24151">
        <ele>30.42</ele>
        <time>2015-04-06T07:45:11Z</time>
      </trkpt>
      <trkpt lat="50.68332" lon="3.24208">
        <ele>30.42</ele>
        <time>2015-04-06T07:45:20Z</time>
      </trkpt>
      <trkpt lat="50.68329" lon="3.24215">
        <ele>30.42</ele>
        <time>2015-04-06T07:45:21Z</time>
      </trkpt>
      <trkpt lat="50.68316" lon="3.24238">
        <ele>30.42</ele>
        <time>2015-04-06T07:45:25Z</time>
      </trkpt>
      <trkpt lat="50.68289" lon="3.24293">
        <ele>29.94</ele>
        <time>2015-04-06T07:45:34Z</time>
      </trkpt>
      <trkpt lat="50.6828" lon="3.24319">
        <ele>29.94</ele>
        <time>2015-04-06T07:45:40Z</time>
      </trkpt>
      <trkpt lat="50.68276" lon="3.24323">
        <ele>28.5</ele>
        <time>2015-04-06T07:45:47Z</time>
      </trkpt>
      <trkpt lat="50.68274" lon="3.24324">
        <ele>28.5</ele>
        <time>2015-04-06T07:45:58Z</time>
      </trkpt>
      <trkpt lat="50.68275" lon="3.24324">
        <ele>28.98</ele>
        <time>2015-04-06T07:46:10Z</time>
      </trkpt>
      <trkpt lat="50.68275" lon="3.24324">
        <ele>29.94</ele>
        <time>2015-04-06T07:46:22Z</time>
      </trkpt>
      <trkpt lat="50.68315" lon="3.24304">
        <ele>80.89</ele>
        <time>2015-04-06T07:47:20Z</time>
      </trkpt>
      <trkpt lat="50.68301" lon="3.2432">
        <ele>46.76</ele>
        <time>2015-04-06T07:47:32Z</time>
      </trkpt>
      <trkpt lat="50.68302" lon="3.2432">
        <ele>44.84</ele>
        <time>2015-04-06T07:47:42Z</time>
      </trkpt>
      <trkpt lat="50.68301" lon="3.24323">
        <ele>44.36</ele>
        <time>2015-04-06T07:47:49Z</time>
      </trkpt>
      <trkpt lat="50.683" lon="3.24323">
        <ele>43.88</ele>
        <time>2015-04-06T07:48:01Z</time>
      </trkpt>
      <trkpt lat="50.68297" lon="3.24323">
        <ele>41.95</ele>
        <time>2015-04-06T07:48:07Z</time>
      </trkpt>
      <trkpt lat="50.68294" lon="3.24326">
        <ele>39.55</ele>
        <time>2015-04-06T07:48:21Z</time>
      </trkpt>
      <trkpt lat="50.68292" lon="3.24326">
        <ele>37.15</ele>
        <time>2015-04-06T07:48:38Z</time>
      </trkpt>
      <trkpt lat="50.68293" lon="3.24327">
        <ele>36.67</ele>
        <time>2015-04-06T07:48:44Z</time>
      </trkpt>
      <trkpt lat="50.68281" lon="3.24344">
        <ele>32.34</ele>
        <time>2015-04-06T07:48:50Z</time>
      </trkpt>
      <trkpt lat="50.68266" lon="3.24389">
        <ele>30.42</ele>
        <time>2015-04-06T07:48:59Z</time>
      </trkpt>
      <trkpt lat="50.68264" lon="3.24394">
        <ele>30.42</ele>
        <time>2015-04-06T07:49:00Z</time>
      </trkpt>
      <trkpt lat="50.6826" lon="3.24399">
        <ele>30.42</ele>
        <time>2015-04-06T07:49:01Z</time>
      </trkpt>
      <trkpt lat="50.68231" lon="3.24441">
        <ele>29.94</ele>
        <time>2015-04-06T07:49:10Z</time>
      </trkpt>
      <trkpt lat="50.68225" lon="3.24448">
        <ele>30.9</ele>
        <time>2015-04-06T07:49:15Z</time>
      </trkpt>
      <trkpt lat="50.68224" lon="3.24448">
        <ele>30.9</ele>
        <time>2015-04-06T07:49:25Z</time>
      </trkpt>
      <trkpt lat="50.68222" lon="3.24451">
        <ele>30.9</ele>
        <time>2015-04-06T07:49:35Z</time>
      </trkpt>
      <trkpt lat="50.68213" lon="3.2447">
        <ele>31.38</ele>
        <time>2015-04-06T07:49:41Z</time>
      </trkpt>
      <trkpt lat="50.68212" lon="3.24477">
        <ele>30.42</ele>
        <time>2015-04-06T07:49:42Z</time>
      </trkpt>
      <trkpt lat="50.68214" lon="3.24483">
        <ele>29.94</ele>
        <time>2015-04-06T07:49:43Z</time>
      </trkpt>
      <trkpt lat="50.68216" lon="3.2449">
        <ele>29.46</ele>
        <time>2015-04-06T07:49:44Z</time>
      </trkpt>
      <trkpt lat="50.68219" lon="3.24497">
        <ele>29.46</ele>
        <time>2015-04-06T07:49:45Z</time>
      </trkpt>
      <trkpt lat="50.68222" lon="3.24504">
        <ele>28.98</ele>
        <time>2015-04-06T07:49:46Z</time>
      </trkpt>
      <trkpt lat="50.6825" lon="3.24564">
        <ele>28.98</ele>
        <time>2015-04-06T07:49:53Z</time>
      </trkpt>
      <trkpt lat="50.6828" lon="3.24639">
        <ele>28.02</ele>
        <time>2015-04-06T07:50:00Z</time>
      </trkpt>
      <trkpt lat="50.6829" lon="3.24674">
        <ele>28.02</ele>
        <time>2015-04-06T07:50:03Z</time>
      </trkpt>
      <trkpt lat="50.68294" lon="3.24684">
        <ele>28.02</ele>
        <time>2015-04-06T07:50:04Z</time>
      </trkpt>
      <trkpt lat="50.68299" lon="3.24692">
        <ele>27.53</ele>
        <time>2015-04-06T07:50:05Z</time>
      </trkpt>
      <trkpt lat="50.68316" lon="3.24716">
        <ele>27.53</ele>
        <time>2015-04-06T07:50:08Z</time>
      </trkpt>
      <trkpt lat="50.6832" lon="3.24726">
        <ele>27.53</ele>
        <time>2015-04-06T07:50:09Z</time>
      </trkpt>
      <trkpt lat="50.68365" lon="3.24835">
        <ele>27.05</ele>
        <time>2015-04-06T07:50:19Z</time>
      </trkpt>
      <trkpt lat="50.68415" lon="3.24955">
        <ele>26.09</ele>
        <time>2015-04-06T07:50:30Z</time>
      </trkpt>
      <trkpt lat="50.68459" lon="3.2506">
        <ele>25.61</ele>
        <time>2015-04-06T07:50:39Z</time>
      </trkpt>
      <trkpt lat="50.68502" lon="3.25148">
        <ele>25.13</ele>
        <time>2015-04-06T07:50:47Z</time>
      </trkpt>
      <trkpt lat="50.68546" lon="3.25234">
        <ele>25.13</ele>
        <time>2015-04-06T07:50:55Z</time>
      </trkpt>
      <trkpt lat="50.68552" lon="3.25244">
        <ele>25.13</ele>
        <time>2015-04-06T07:50:56Z</time>
      </trkpt>
      <trkpt lat="50.68611" lon="3.25324">
        <ele>23.69</ele>
        <time>2015-04-06T07:51:05Z</time>
      </trkpt>
      <trkpt lat="50.68661" lon="3.254">
        <ele>23.21</ele>
        <time>2015-04-06T07:51:13Z</time>
      </trkpt>
      <trkpt lat="50.68692" lon="3.25469">
        <ele>23.69</ele>
        <time>2015-04-06T07:51:20Z</time>
      </trkpt>
      <trkpt lat="50.68694" lon="3.25477">
        <ele>23.21</ele>
        <time>2015-04-06T07:51:21Z</time>
      </trkpt>
      <trkpt lat="50.687" lon="3.25493">
        <ele>23.21</ele>
        <time>2015-04-06T07:51:23Z</time>
      </trkpt>
      <trkpt lat="50.68734" lon="3.25561">
        <ele>22.73</ele>
        <time>2015-04-06T07:51:31Z</time>
      </trkpt>
      <trkpt lat="50.68755" lon="3.25595">
        <ele>22.25</ele>
        <time>2015-04-06T07:51:35Z</time>
      </trkpt>
      <trkpt lat="50.68761" lon="3.25603">
        <ele>22.25</ele>
        <time>2015-04-06T07:51:36Z</time>
      </trkpt>
      <trkpt lat="50.68815" lon="3.25661">
        <ele>22.25</ele>
        <time>2015-04-06T07:51:44Z</time>
      </trkpt>
      <trkpt lat="50.68893" lon="3.25743">
        <ele>20.32</ele>
        <time>2015-04-06T07:51:55Z</time>
      </trkpt>
      <trkpt lat="50.6892" lon="3.25773">
        <ele>20.81</ele>
        <time>2015-04-06T07:51:59Z</time>
      </trkpt>
      <trkpt lat="50.68925" lon="3.25782">
        <ele>21.29</ele>
        <time>2015-04-06T07:52:00Z</time>
      </trkpt>
      <trkpt lat="50.68929" lon="3.25791">
        <ele>21.29</ele>
        <time>2015-04-06T07:52:01Z</time>
      </trkpt>
      <trkpt lat="50.68932" lon="3.25802">
        <ele>21.29</ele>
        <time>2015-04-06T07:52:02Z</time>
      </trkpt>
      <trkpt lat="50.68934" lon="3.25814">
        <ele>21.77</ele>
        <time>2015-04-06T07:52:03Z</time>
      </trkpt>
      <trkpt lat="50.68935" lon="3.25826">
        <ele>21.77</ele>
        <time>2015-04-06T07:52:04Z</time>
      </trkpt>
      <trkpt lat="50.68936" lon="3.25928">
        <ele>22.25</ele>
        <time>2015-04-06T07:52:12Z</time>
      </trkpt>
      <trkpt lat="50.68942" lon="3.26044">
        <ele>21.29</ele>
        <time>2015-04-06T07:52:21Z</time>
      </trkpt>
      <trkpt lat="50.68955" lon="3.26167">
        <ele>20.81</ele>
        <time>2015-04-06T07:52:31Z</time>
      </trkpt>
      <trkpt lat="50.6897" lon="3.26286">
        <ele>20.81</ele>
        <time>2015-04-06T07:52:41Z</time>
      </trkpt>
      <trkpt lat="50.68979" lon="3.26367">
        <ele>20.81</ele>
        <time>2015-04-06T07:52:48Z</time>
      </trkpt>
      <trkpt lat="50.68979" lon="3.26379">
        <ele>20.81</ele>
        <time>2015-04-06T07:52:49Z</time>
      </trkpt>
      <trkpt lat="50.68977" lon="3.2639">
        <ele>20.81</ele>
        <time>2015-04-06T07:52:50Z</time>
      </trkpt>
      <trkpt lat="50.68975" lon="3.26401">
        <ele>20.81</ele>
        <time>2015-04-06T07:52:51Z</time>
      </trkpt>
      <trkpt lat="50.68972" lon="3.26412">
        <ele>20.32</ele>
        <time>2015-04-06T07:52:52Z</time>
      </trkpt>
      <trkpt lat="50.68968" lon="3.26422">
        <ele>20.32</ele>
        <time>2015-04-06T07:52:53Z</time>
      </trkpt>
      <trkpt lat="50.68964" lon="3.26431">
        <ele>20.32</ele>
        <time>2015-04-06T07:52:54Z</time>
      </trkpt>
      <trkpt lat="50.68959" lon="3.2644">
        <ele>20.32</ele>
        <time>2015-04-06T07:52:55Z</time>
      </trkpt>
      <trkpt lat="50.68954" lon="3.26447">
        <ele>19.84</ele>
        <time>2015-04-06T07:52:56Z</time>
      </trkpt>
      <trkpt lat="50.68948" lon="3.26454">
        <ele>19.84</ele>
        <time>2015-04-06T07:52:57Z</time>
      </trkpt>
      <trkpt lat="50.68899" lon="3.26503">
        <ele>20.81</ele>
        <time>2015-04-06T07:53:05Z</time>
      </trkpt>
      <trkpt lat="50.68854" lon="3.26541">
        <ele>21.77</ele>
        <time>2015-04-06T07:53:13Z</time>
      </trkpt>
      <trkpt lat="50.68848" lon="3.26548">
        <ele>21.77</ele>
        <time>2015-04-06T07:53:15Z</time>
      </trkpt>
      <trkpt lat="50.68847" lon="3.26554">
        <ele>21.77</ele>
        <time>2015-04-06T07:53:16Z</time>
      </trkpt>
      <trkpt lat="50.68848" lon="3.2656">
        <ele>20.81</ele>
        <time>2015-04-06T07:53:17Z</time>
      </trkpt>
      <trkpt lat="50.68849" lon="3.26567">
        <ele>20.32</ele>
        <time>2015-04-06T07:53:18Z</time>
      </trkpt>
      <trkpt lat="50.68851" lon="3.26575">
        <ele>20.32</ele>
        <time>2015-04-06T07:53:19Z</time>
      </trkpt>
      <trkpt lat="50.68854" lon="3.26593">
        <ele>19.84</ele>
        <time>2015-04-06T07:53:21Z</time>
      </trkpt>
      <trkpt lat="50.68855" lon="3.26603">
        <ele>19.84</ele>
        <time>2015-04-06T07:53:22Z</time>
      </trkpt>
      <trkpt lat="50.68854" lon="3.26613">
        <ele>19.36</ele>
        <time>2015-04-06T07:53:23Z</time>
      </trkpt>
      <trkpt lat="50.6885" lon="3.26622">
        <ele>19.84</ele>
        <time>2015-04-06T07:53:24Z</time>
      </trkpt>
      <trkpt lat="50.68847" lon="3.26631">
        <ele>19.84</ele>
        <time>2015-04-06T07:53:25Z</time>
      </trkpt>
      <trkpt lat="50.68843" lon="3.26639">
        <ele>19.84</ele>
        <time>2015-04-06T07:53:26Z</time>
      </trkpt>
      <trkpt lat="50.68804" lon="3.26712">
        <ele>19.84</ele>
        <time>2015-04-06T07:53:35Z</time>
      </trkpt>
      <trkpt lat="50.68777" lon="3.26761">
        <ele>19.36</ele>
        <time>2015-04-06T07:53:41Z</time>
      </trkpt>
      <trkpt lat="50.6877" lon="3.26778">
        <ele>19.36</ele>
        <time>2015-04-06T07:53:43Z</time>
      </trkpt>
      <trkpt lat="50.68765" lon="3.26797">
        <ele>19.84</ele>
        <time>2015-04-06T07:53:45Z</time>
      </trkpt>
      <trkpt lat="50.68763" lon="3.26807">
        <ele>19.84</ele>
        <time>2015-04-06T07:53:46Z</time>
      </trkpt>
      <trkpt lat="50.68762" lon="3.26817">
        <ele>19.84</ele>
        <time>2015-04-06T07:53:47Z</time>
      </trkpt>
      <trkpt lat="50.6876" lon="3.26917">
        <ele>20.32</ele>
        <time>2015-04-06T07:53:56Z</time>
      </trkpt>
      <trkpt lat="50.68757" lon="3.27007">
        <ele>19.84</ele>
        <time>2015-04-06T07:54:04Z</time>
      </trkpt>
      <trkpt lat="50.68753" lon="3.27054">
        <ele>19.36</ele>
        <time>2015-04-06T07:54:09Z</time>
      </trkpt>
      <trkpt lat="50.68752" lon="3.27061">
        <ele>18.88</ele>
        <time>2015-04-06T07:54:10Z</time>
      </trkpt>
      <trkpt lat="50.68747" lon="3.27073">
        <ele>17.92</ele>
        <time>2015-04-06T07:54:12Z</time>
      </trkpt>
      <trkpt lat="50.68746" lon="3.2708">
        <ele>17.92</ele>
        <time>2015-04-06T07:54:13Z</time>
      </trkpt>
      <trkpt lat="50.68748" lon="3.27087">
        <ele>17.92</ele>
        <time>2015-04-06T07:54:14Z</time>
      </trkpt>
      <trkpt lat="50.68752" lon="3.27102">
        <ele>18.4</ele>
        <time>2015-04-06T07:54:16Z</time>
      </trkpt>
      <trkpt lat="50.68754" lon="3.2711">
        <ele>18.4</ele>
        <time>2015-04-06T07:54:17Z</time>
      </trkpt>
      <trkpt lat="50.68765" lon="3.27185">
        <ele>19.36</ele>
        <time>2015-04-06T07:54:25Z</time>
      </trkpt>
      <trkpt lat="50.68766" lon="3.27204">
        <ele>19.36</ele>
        <time>2015-04-06T07:54:27Z</time>
      </trkpt>
      <trkpt lat="50.68765" lon="3.27214">
        <ele>19.84</ele>
        <time>2015-04-06T07:54:28Z</time>
      </trkpt>
      <trkpt lat="50.68764" lon="3.27224">
        <ele>19.84</ele>
        <time>2015-04-06T07:54:29Z</time>
      </trkpt>
      <trkpt lat="50.68753" lon="3.27306">
        <ele>19.36</ele>
        <time>2015-04-06T07:54:37Z</time>
      </trkpt>
      <trkpt lat="50.68743" lon="3.27376">
        <ele>19.36</ele>
        <time>2015-04-06T07:54:44Z</time>
      </trkpt>
      <trkpt lat="50.68739" lon="3.27385">
        <ele>19.36</ele>
        <time>2015-04-06T07:54:45Z</time>
      </trkpt>
      <trkpt lat="50.68734" lon="3.27393">
        <ele>19.36</ele>
        <time>2015-04-06T07:54:46Z</time>
      </trkpt>
      <trkpt lat="50.68728" lon="3.27399">
        <ele>19.36</ele>
        <time>2015-04-06T07:54:47Z</time>
      </trkpt>
      <trkpt lat="50.68722" lon="3.27406">
        <ele>19.36</ele>
        <time>2015-04-06T07:54:48Z</time>
      </trkpt>
      <trkpt lat="50.68716" lon="3.27412">
        <ele>19.36</ele>
        <time>2015-04-06T07:54:49Z</time>
      </trkpt>
      <trkpt lat="50.68676" lon="3.27461">
        <ele>19.36</ele>
        <time>2015-04-06T07:54:56Z</time>
      </trkpt>
      <trkpt lat="50.68671" lon="3.27469">
        <ele>19.36</ele>
        <time>2015-04-06T07:54:57Z</time>
      </trkpt>
      <trkpt lat="50.68635" lon="3.27537">
        <ele>18.4</ele>
        <time>2015-04-06T07:55:05Z</time>
      </trkpt>
      <trkpt lat="50.6863" lon="3.27545">
        <ele>18.4</ele>
        <time>2015-04-06T07:55:06Z</time>
      </trkpt>
      <trkpt lat="50.68624" lon="3.2755">
        <ele>18.4</ele>
        <time>2015-04-06T07:55:07Z</time>
      </trkpt>
      <trkpt lat="50.68617" lon="3.27555">
        <ele>18.88</ele>
        <time>2015-04-06T07:55:08Z</time>
      </trkpt>
      <trkpt lat="50.6857" lon="3.27581">
        <ele>19.36</ele>
        <time>2015-04-06T07:55:15Z</time>
      </trkpt>
      <trkpt lat="50.68553" lon="3.27599">
        <ele>18.88</ele>
        <time>2015-04-06T07:55:18Z</time>
      </trkpt>
      <trkpt lat="50.68523" lon="3.27659">
        <ele>19.36</ele>
        <time>2015-04-06T07:55:25Z</time>
      </trkpt>
      <trkpt lat="50.68487" lon="3.27748">
        <ele>19.36</ele>
        <time>2015-04-06T07:55:35Z</time>
      </trkpt>
      <trkpt lat="50.68457" lon="3.27804">
        <ele>18.4</ele>
        <time>2015-04-06T07:55:42Z</time>
      </trkpt>
      <trkpt lat="50.68426" lon="3.27861">
        <ele>17.44</ele>
        <time>2015-04-06T07:55:49Z</time>
      </trkpt>
      <trkpt lat="50.68384" lon="3.27938">
        <ele>17.92</ele>
        <time>2015-04-06T07:55:58Z</time>
      </trkpt>
      <trkpt lat="50.68356" lon="3.28019">
        <ele>18.4</ele>
        <time>2015-04-06T07:56:06Z</time>
      </trkpt>
      <trkpt lat="50.68328" lon="3.28117">
        <ele>18.4</ele>
        <time>2015-04-06T07:56:15Z</time>
      </trkpt>
      <trkpt lat="50.68291" lon="3.28248">
        <ele>18.4</ele>
        <time>2015-04-06T07:56:27Z</time>
      </trkpt>
      <trkpt lat="50.68275" lon="3.28311">
        <ele>18.88</ele>
        <time>2015-04-06T07:56:33Z</time>
      </trkpt>
      <trkpt lat="50.68275" lon="3.28322">
        <ele>18.88</ele>
        <time>2015-04-06T07:56:34Z</time>
      </trkpt>
      <trkpt lat="50.68275" lon="3.28332">
        <ele>19.36</ele>
        <time>2015-04-06T07:56:35Z</time>
      </trkpt>
      <trkpt lat="50.68277" lon="3.28342">
        <ele>19.36</ele>
        <time>2015-04-06T07:56:36Z</time>
      </trkpt>
      <trkpt lat="50.6828" lon="3.28352">
        <ele>19.36</ele>
        <time>2015-04-06T07:56:37Z</time>
      </trkpt>
      <trkpt lat="50.68283" lon="3.28361">
        <ele>19.36</ele>
        <time>2015-04-06T07:56:38Z</time>
      </trkpt>
      <trkpt lat="50.68286" lon="3.2837">
        <ele>19.36</ele>
        <time>2015-04-06T07:56:39Z</time>
      </trkpt>
      <trkpt lat="50.68288" lon="3.28379">
        <ele>19.36</ele>
        <time>2015-04-06T07:56:40Z</time>
      </trkpt>
      <trkpt lat="50.6829" lon="3.28389">
        <ele>19.36</ele>
        <time>2015-04-06T07:56:41Z</time>
      </trkpt>
      <trkpt lat="50.6829" lon="3.284">
        <ele>19.36</ele>
        <time>2015-04-06T07:56:42Z</time>
      </trkpt>
      <trkpt lat="50.68288" lon="3.28411">
        <ele>18.88</ele>
        <time>2015-04-06T07:56:43Z</time>
      </trkpt>
      <trkpt lat="50.68286" lon="3.28422">
        <ele>18.88</ele>
        <time>2015-04-06T07:56:44Z</time>
      </trkpt>
      <trkpt lat="50.68282" lon="3.28433">
        <ele>18.88</ele>
        <time>2015-04-06T07:56:45Z</time>
      </trkpt>
      <trkpt lat="50.68249" lon="3.28556">
        <ele>18.4</ele>
        <time>2015-04-06T07:56:56Z</time>
      </trkpt>
      <trkpt lat="50.68213" lon="3.28692">
        <ele>18.4</ele>
        <time>2015-04-06T07:57:08Z</time>
      </trkpt>
      <trkpt lat="50.68169" lon="3.28835">
        <ele>18.4</ele>
        <time>2015-04-06T07:57:21Z</time>
      </trkpt>
      <trkpt lat="50.68135" lon="3.28944">
        <ele>18.4</ele>
        <time>2015-04-06T07:57:31Z</time>
      </trkpt>
      <trkpt lat="50.68106" lon="3.29041">
        <ele>18.4</ele>
        <time>2015-04-06T07:57:40Z</time>
      </trkpt>
      <trkpt lat="50.6807" lon="3.29148">
        <ele>17.44</ele>
        <time>2015-04-06T07:57:50Z</time>
      </trkpt>
      <trkpt lat="50.68036" lon="3.29232">
        <ele>17.44</ele>
        <time>2015-04-06T07:57:58Z</time>
      </trkpt>
      <trkpt lat="50.67989" lon="3.2934">
        <ele>16.96</ele>
        <time>2015-04-06T07:58:09Z</time>
      </trkpt>
      <trkpt lat="50.6794" lon="3.2943">
        <ele>17.92</ele>
        <time>2015-04-06T07:58:19Z</time>
      </trkpt>
      <trkpt lat="50.67897" lon="3.29495">
        <ele>17.44</ele>
        <time>2015-04-06T07:58:27Z</time>
      </trkpt>
      <trkpt lat="50.67867" lon="3.29529">
        <ele>17.92</ele>
        <time>2015-04-06T07:58:32Z</time>
      </trkpt>
      <trkpt lat="50.67842" lon="3.29586">
        <ele>17.44</ele>
        <time>2015-04-06T07:58:38Z</time>
      </trkpt>
      <trkpt lat="50.67813" lon="3.29653">
        <ele>16.48</ele>
        <time>2015-04-06T07:58:45Z</time>
      </trkpt>
      <trkpt lat="50.67803" lon="3.29671">
        <ele>16</ele>
        <time>2015-04-06T07:58:47Z</time>
      </trkpt>
      <trkpt lat="50.67797" lon="3.29678">
        <ele>16</ele>
        <time>2015-04-06T07:58:48Z</time>
      </trkpt>
      <trkpt lat="50.6775" lon="3.29723">
        <ele>16</ele>
        <time>2015-04-06T07:58:56Z</time>
      </trkpt>
      <trkpt lat="50.67704" lon="3.29773">
        <ele>16.96</ele>
        <time>2015-04-06T07:59:04Z</time>
      </trkpt>
      <trkpt lat="50.67652" lon="3.2984">
        <ele>17.44</ele>
        <time>2015-04-06T07:59:14Z</time>
      </trkpt>
      <trkpt lat="50.676" lon="3.29915">
        <ele>17.44</ele>
        <time>2015-04-06T07:59:25Z</time>
      </trkpt>
      <trkpt lat="50.67572" lon="3.29987">
        <ele>17.92</ele>
        <time>2015-04-06T07:59:33Z</time>
      </trkpt>
      <trkpt lat="50.67531" lon="3.30096">
        <ele>18.4</ele>
        <time>2015-04-06T07:59:45Z</time>
      </trkpt>
      <trkpt lat="50.67494" lon="3.30193">
        <ele>17.92</ele>
        <time>2015-04-06T07:59:56Z</time>
      </trkpt>
      <trkpt lat="50.67457" lon="3.3029">
        <ele>18.4</ele>
        <time>2015-04-06T08:00:07Z</time>
      </trkpt>
      <trkpt lat="50.67442" lon="3.30325">
        <ele>18.4</ele>
        <time>2015-04-06T08:00:13Z</time>
      </trkpt>
      <trkpt lat="50.67438" lon="3.30327">
        <ele>18.4</ele>
        <time>2015-04-06T08:00:15Z</time>
      </trkpt>
      <trkpt lat="50.67435" lon="3.30326">
        <ele>18.4</ele>
        <time>2015-04-06T08:00:16Z</time>
      </trkpt>
      <trkpt lat="50.67432" lon="3.30324">
        <ele>18.4</ele>
        <time>2015-04-06T08:00:17Z</time>
      </trkpt>
      <trkpt lat="50.67429" lon="3.30322">
        <ele>18.4</ele>
        <time>2015-04-06T08:00:18Z</time>
      </trkpt>
      <trkpt lat="50.67426" lon="3.3032">
        <ele>18.4</ele>
        <time>2015-04-06T08:00:19Z</time>
      </trkpt>
      <trkpt lat="50.67423" lon="3.30318">
        <ele>18.4</ele>
        <time>2015-04-06T08:00:20Z</time>
      </trkpt>
      <trkpt lat="50.6742" lon="3.30318">
        <ele>18.4</ele>
        <time>2015-04-06T08:00:21Z</time>
      </trkpt>
      <trkpt lat="50.6741" lon="3.30309">
        <ele>18.4</ele>
        <time>2015-04-06T08:00:25Z</time>
      </trkpt>
      <trkpt lat="50.67408" lon="3.30304">
        <ele>18.4</ele>
        <time>2015-04-06T08:00:26Z</time>
      </trkpt>
      <trkpt lat="50.67406" lon="3.30299">
        <ele>18.4</ele>
        <time>2015-04-06T08:00:27Z</time>
      </trkpt>
      <trkpt lat="50.67396" lon="3.30274">
        <ele>18.4</ele>
        <time>2015-04-06T08:00:32Z</time>
      </trkpt>
      <trkpt lat="50.67392" lon="3.30272">
        <ele>18.4</ele>
        <time>2015-04-06T08:00:33Z</time>
      </trkpt>
      <trkpt lat="50.67389" lon="3.30274">
        <ele>18.88</ele>
        <time>2015-04-06T08:00:34Z</time>
      </trkpt>
      <trkpt lat="50.67386" lon="3.30278">
        <ele>18.88</ele>
        <time>2015-04-06T08:00:35Z</time>
      </trkpt>
      <trkpt lat="50.67383" lon="3.30283">
        <ele>18.88</ele>
        <time>2015-04-06T08:00:36Z</time>
      </trkpt>
      <trkpt lat="50.67381" lon="3.3029">
        <ele>18.88</ele>
        <time>2015-04-06T08:00:37Z</time>
      </trkpt>
      <trkpt lat="50.67379" lon="3.30296">
        <ele>18.88</ele>
        <time>2015-04-06T08:00:38Z</time>
      </trkpt>
      <trkpt lat="50.67358" lon="3.30356">
        <ele>18.88</ele>
        <time>2015-04-06T08:00:47Z</time>
      </trkpt>
      <trkpt lat="50.67339" lon="3.30415">
        <ele>18.4</ele>
        <time>2015-04-06T08:00:54Z</time>
      </trkpt>
      <trkpt lat="50.67309" lon="3.30505">
        <ele>17.44</ele>
        <time>2015-04-06T08:01:03Z</time>
      </trkpt>
      <trkpt lat="50.6727" lon="3.30609">
        <ele>16.96</ele>
        <time>2015-04-06T08:01:13Z</time>
      </trkpt>
      <trkpt lat="50.67226" lon="3.30678">
        <ele>16.96</ele>
        <time>2015-04-06T08:01:21Z</time>
      </trkpt>
      <trkpt lat="50.6718" lon="3.30723">
        <ele>16.96</ele>
        <time>2015-04-06T08:01:28Z</time>
      </trkpt>
      <trkpt lat="50.67174" lon="3.3073">
        <ele>16.96</ele>
        <time>2015-04-06T08:01:29Z</time>
      </trkpt>
      <trkpt lat="50.67169" lon="3.30737">
        <ele>16.96</ele>
        <time>2015-04-06T08:01:30Z</time>
      </trkpt>
      <trkpt lat="50.67165" lon="3.30746">
        <ele>17.44</ele>
        <time>2015-04-06T08:01:31Z</time>
      </trkpt>
      <trkpt lat="50.67161" lon="3.30755">
        <ele>17.44</ele>
        <time>2015-04-06T08:01:32Z</time>
      </trkpt>
      <trkpt lat="50.67157" lon="3.30764">
        <ele>17.44</ele>
        <time>2015-04-06T08:01:33Z</time>
      </trkpt>
      <trkpt lat="50.6713" lon="3.30827">
        <ele>18.4</ele>
        <time>2015-04-06T08:01:40Z</time>
      </trkpt>
      <trkpt lat="50.67129" lon="3.30837">
        <ele>18.88</ele>
        <time>2015-04-06T08:01:41Z</time>
      </trkpt>
      <trkpt lat="50.67129" lon="3.30848">
        <ele>18.88</ele>
        <time>2015-04-06T08:01:42Z</time>
      </trkpt>
      <trkpt lat="50.6713" lon="3.30858">
        <ele>18.4</ele>
        <time>2015-04-06T08:01:43Z</time>
      </trkpt>
      <trkpt lat="50.67131" lon="3.30869">
        <ele>18.4</ele>
        <time>2015-04-06T08:01:44Z</time>
      </trkpt>
      <trkpt lat="50.67132" lon="3.3088">
        <ele>18.4</ele>
        <time>2015-04-06T08:01:45Z</time>
      </trkpt>
      <trkpt lat="50.67133" lon="3.3089">
        <ele>17.92</ele>
        <time>2015-04-06T08:01:46Z</time>
      </trkpt>
      <trkpt lat="50.67132" lon="3.30901">
        <ele>17.92</ele>
        <time>2015-04-06T08:01:47Z</time>
      </trkpt>
      <trkpt lat="50.67131" lon="3.30911">
        <ele>17.92</ele>
        <time>2015-04-06T08:01:48Z</time>
      </trkpt>
      <trkpt lat="50.67129" lon="3.30921">
        <ele>18.4</ele>
        <time>2015-04-06T08:01:49Z</time>
      </trkpt>
      <trkpt lat="50.67127" lon="3.30931">
        <ele>18.4</ele>
        <time>2015-04-06T08:01:50Z</time>
      </trkpt>
      <trkpt lat="50.6711" lon="3.31011">
        <ele>18.88</ele>
        <time>2015-04-06T08:01:58Z</time>
      </trkpt>
      <trkpt lat="50.67093" lon="3.3109">
        <ele>19.36</ele>
        <time>2015-04-06T08:02:06Z</time>
      </trkpt>
      <trkpt lat="50.67087" lon="3.31131">
        <ele>18.88</ele>
        <time>2015-04-06T08:02:10Z</time>
      </trkpt>
      <trkpt lat="50.67087" lon="3.31142">
        <ele>18.88</ele>
        <time>2015-04-06T08:02:11Z</time>
      </trkpt>
      <trkpt lat="50.67087" lon="3.31152">
        <ele>18.88</ele>
        <time>2015-04-06T08:02:12Z</time>
      </trkpt>
      <trkpt lat="50.6709" lon="3.31251">
        <ele>18.4</ele>
        <time>2015-04-06T08:02:21Z</time>
      </trkpt>
      <trkpt lat="50.6708" lon="3.31351">
        <ele>18.88</ele>
        <time>2015-04-06T08:02:30Z</time>
      </trkpt>
      <trkpt lat="50.67074" lon="3.31395">
        <ele>18.88</ele>
        <time>2015-04-06T08:02:34Z</time>
      </trkpt>
      <trkpt lat="50.67071" lon="3.31405">
        <ele>18.88</ele>
        <time>2015-04-06T08:02:35Z</time>
      </trkpt>
      <trkpt lat="50.67067" lon="3.31415">
        <ele>18.4</ele>
        <time>2015-04-06T08:02:36Z</time>
      </trkpt>
      <trkpt lat="50.67063" lon="3.31424">
        <ele>18.4</ele>
        <time>2015-04-06T08:02:37Z</time>
      </trkpt>
      <trkpt lat="50.67059" lon="3.31432">
        <ele>18.4</ele>
        <time>2015-04-06T08:02:38Z</time>
      </trkpt>
      <trkpt lat="50.67053" lon="3.3144">
        <ele>17.92</ele>
        <time>2015-04-06T08:02:39Z</time>
      </trkpt>
      <trkpt lat="50.67048" lon="3.31447">
        <ele>17.44</ele>
        <time>2015-04-06T08:02:40Z</time>
      </trkpt>
      <trkpt lat="50.66998" lon="3.31515">
        <ele>16.48</ele>
        <time>2015-04-06T08:02:49Z</time>
      </trkpt>
      <trkpt lat="50.6694" lon="3.31584">
        <ele>16.48</ele>
        <time>2015-04-06T08:02:59Z</time>
      </trkpt>
      <trkpt lat="50.66929" lon="3.31597">
        <ele>16.48</ele>
        <time>2015-04-06T08:03:01Z</time>
      </trkpt>
      <trkpt lat="50.66925" lon="3.31606">
        <ele>16.96</ele>
        <time>2015-04-06T08:03:02Z</time>
      </trkpt>
      <trkpt lat="50.66922" lon="3.31615">
        <ele>16.96</ele>
        <time>2015-04-06T08:03:03Z</time>
      </trkpt>
      <trkpt lat="50.66922" lon="3.31625">
        <ele>16.96</ele>
        <time>2015-04-06T08:03:04Z</time>
      </trkpt>
      <trkpt lat="50.66923" lon="3.31636">
        <ele>16.96</ele>
        <time>2015-04-06T08:03:05Z</time>
      </trkpt>
      <trkpt lat="50.66924" lon="3.31646">
        <ele>16.96</ele>
        <time>2015-04-06T08:03:06Z</time>
      </trkpt>
      <trkpt lat="50.66927" lon="3.31656">
        <ele>17.44</ele>
        <time>2015-04-06T08:03:07Z</time>
      </trkpt>
      <trkpt lat="50.66929" lon="3.31665">
        <ele>17.44</ele>
        <time>2015-04-06T08:03:08Z</time>
      </trkpt>
      <trkpt lat="50.66948" lon="3.31745">
        <ele>17.92</ele>
        <time>2015-04-06T08:03:16Z</time>
      </trkpt>
      <trkpt lat="50.66971" lon="3.31833">
        <ele>18.4</ele>
        <time>2015-04-06T08:03:25Z</time>
      </trkpt>
      <trkpt lat="50.66973" lon="3.31844">
        <ele>18.4</ele>
        <time>2015-04-06T08:03:26Z</time>
      </trkpt>
      <trkpt lat="50.66974" lon="3.31854">
        <ele>18.4</ele>
        <time>2015-04-06T08:03:27Z</time>
      </trkpt>
      <trkpt lat="50.66973" lon="3.31864">
        <ele>18.4</ele>
        <time>2015-04-06T08:03:28Z</time>
      </trkpt>
      <trkpt lat="50.6697" lon="3.31874">
        <ele>18.4</ele>
        <time>2015-04-06T08:03:29Z</time>
      </trkpt>
      <trkpt lat="50.66967" lon="3.31883">
        <ele>17.92</ele>
        <time>2015-04-06T08:03:30Z</time>
      </trkpt>
      <trkpt lat="50.66962" lon="3.3189">
        <ele>17.44</ele>
        <time>2015-04-06T08:03:31Z</time>
      </trkpt>
      <trkpt lat="50.66956" lon="3.31896">
        <ele>16.96</ele>
        <time>2015-04-06T08:03:32Z</time>
      </trkpt>
      <trkpt lat="50.6695" lon="3.31902">
        <ele>16.96</ele>
        <time>2015-04-06T08:03:33Z</time>
      </trkpt>
      <trkpt lat="50.66891" lon="3.31958">
        <ele>17.44</ele>
        <time>2015-04-06T08:03:43Z</time>
      </trkpt>
      <trkpt lat="50.66835" lon="3.32">
        <ele>17.92</ele>
        <time>2015-04-06T08:03:52Z</time>
      </trkpt>
      <trkpt lat="50.66779" lon="3.32032">
        <ele>19.36</ele>
        <time>2015-04-06T08:04:01Z</time>
      </trkpt>
      <trkpt lat="50.66755" lon="3.32044">
        <ele>19.36</ele>
        <time>2015-04-06T08:04:05Z</time>
      </trkpt>
      <trkpt lat="50.66748" lon="3.32044">
        <ele>19.36</ele>
        <time>2015-04-06T08:04:06Z</time>
      </trkpt>
      <trkpt lat="50.66729" lon="3.32044">
        <ele>19.84</ele>
        <time>2015-04-06T08:04:09Z</time>
      </trkpt>
      <trkpt lat="50.66724" lon="3.32047">
        <ele>19.84</ele>
        <time>2015-04-06T08:04:10Z</time>
      </trkpt>
      <trkpt lat="50.66718" lon="3.32051">
        <ele>19.84</ele>
        <time>2015-04-06T08:04:11Z</time>
      </trkpt>
      <trkpt lat="50.66713" lon="3.32056">
        <ele>19.84</ele>
        <time>2015-04-06T08:04:12Z</time>
      </trkpt>
      <trkpt lat="50.66708" lon="3.32063">
        <ele>19.84</ele>
        <time>2015-04-06T08:04:13Z</time>
      </trkpt>
      <trkpt lat="50.66703" lon="3.32069">
        <ele>19.84</ele>
        <time>2015-04-06T08:04:14Z</time>
      </trkpt>
      <trkpt lat="50.66657" lon="3.32137">
        <ele>20.81</ele>
        <time>2015-04-06T08:04:24Z</time>
      </trkpt>
      <trkpt lat="50.66616" lon="3.32197">
        <ele>20.81</ele>
        <time>2015-04-06T08:04:33Z</time>
      </trkpt>
      <trkpt lat="50.66574" lon="3.32252">
        <ele>19.84</ele>
        <time>2015-04-06T08:04:41Z</time>
      </trkpt>
      <trkpt lat="50.66527" lon="3.32308">
        <ele>20.81</ele>
        <time>2015-04-06T08:04:50Z</time>
      </trkpt>
      <trkpt lat="50.66474" lon="3.3237">
        <ele>21.29</ele>
        <time>2015-04-06T08:05:00Z</time>
      </trkpt>
      <trkpt lat="50.66416" lon="3.3244">
        <ele>21.77</ele>
        <time>2015-04-06T08:05:11Z</time>
      </trkpt>
      <trkpt lat="50.66368" lon="3.32498">
        <ele>21.29</ele>
        <time>2015-04-06T08:05:20Z</time>
      </trkpt>
      <trkpt lat="50.66299" lon="3.32582">
        <ele>21.29</ele>
        <time>2015-04-06T08:05:33Z</time>
      </trkpt>
      <trkpt lat="50.66245" lon="3.32645">
        <ele>21.77</ele>
        <time>2015-04-06T08:05:43Z</time>
      </trkpt>
      <trkpt lat="50.66184" lon="3.32709">
        <ele>21.77</ele>
        <time>2015-04-06T08:05:54Z</time>
      </trkpt>
      <trkpt lat="50.66134" lon="3.32763">
        <ele>21.77</ele>
        <time>2015-04-06T08:06:03Z</time>
      </trkpt>
      <trkpt lat="50.66074" lon="3.32826">
        <ele>21.77</ele>
        <time>2015-04-06T08:06:14Z</time>
      </trkpt>
      <trkpt lat="50.6603" lon="3.32872">
        <ele>22.25</ele>
        <time>2015-04-06T08:06:22Z</time>
      </trkpt>
      <trkpt lat="50.65964" lon="3.32941">
        <ele>23.21</ele>
        <time>2015-04-06T08:06:34Z</time>
      </trkpt>
      <trkpt lat="50.65904" lon="3.33007">
        <ele>24.17</ele>
        <time>2015-04-06T08:06:46Z</time>
      </trkpt>
      <trkpt lat="50.65871" lon="3.33057">
        <ele>25.13</ele>
        <time>2015-04-06T08:06:54Z</time>
      </trkpt>
      <trkpt lat="50.65827" lon="3.33125">
        <ele>26.09</ele>
        <time>2015-04-06T08:07:05Z</time>
      </trkpt>
      <trkpt lat="50.65787" lon="3.33186">
        <ele>27.05</ele>
        <time>2015-04-06T08:07:15Z</time>
      </trkpt>
      <trkpt lat="50.65736" lon="3.33246">
        <ele>28.02</ele>
        <time>2015-04-06T08:07:26Z</time>
      </trkpt>
      <trkpt lat="50.65692" lon="3.33296">
        <ele>28.02</ele>
        <time>2015-04-06T08:07:35Z</time>
      </trkpt>
      <trkpt lat="50.65648" lon="3.33352">
        <ele>27.53</ele>
        <time>2015-04-06T08:07:44Z</time>
      </trkpt>
      <trkpt lat="50.65608" lon="3.33406">
        <ele>26.09</ele>
        <time>2015-04-06T08:07:52Z</time>
      </trkpt>
      <trkpt lat="50.65597" lon="3.33419">
        <ele>25.61</ele>
        <time>2015-04-06T08:07:54Z</time>
      </trkpt>
      <trkpt lat="50.65591" lon="3.33424">
        <ele>25.61</ele>
        <time>2015-04-06T08:07:55Z</time>
      </trkpt>
      <trkpt lat="50.65585" lon="3.33428">
        <ele>25.13</ele>
        <time>2015-04-06T08:07:56Z</time>
      </trkpt>
      <trkpt lat="50.65578" lon="3.33431">
        <ele>25.13</ele>
        <time>2015-04-06T08:07:57Z</time>
      </trkpt>
      <trkpt lat="50.65572" lon="3.33433">
        <ele>24.65</ele>
        <time>2015-04-06T08:07:58Z</time>
      </trkpt>
      <trkpt lat="50.65565" lon="3.33434">
        <ele>24.65</ele>
        <time>2015-04-06T08:07:59Z</time>
      </trkpt>
      <trkpt lat="50.65558" lon="3.33434">
        <ele>24.17</ele>
        <time>2015-04-06T08:08:00Z</time>
      </trkpt>
      <trkpt lat="50.6548" lon="3.33434">
        <ele>23.21</ele>
        <time>2015-04-06T08:08:11Z</time>
      </trkpt>
      <trkpt lat="50.65458" lon="3.33437">
        <ele>22.73</ele>
        <time>2015-04-06T08:08:14Z</time>
      </trkpt>
      <trkpt lat="50.65451" lon="3.3344">
        <ele>22.73</ele>
        <time>2015-04-06T08:08:15Z</time>
      </trkpt>
      <trkpt lat="50.65444" lon="3.33444">
        <ele>22.73</ele>
        <time>2015-04-06T08:08:16Z</time>
      </trkpt>
      <trkpt lat="50.6539" lon="3.33488">
        <ele>21.77</ele>
        <time>2015-04-06T08:08:24Z</time>
      </trkpt>
      <trkpt lat="50.65345" lon="3.3353">
        <ele>22.73</ele>
        <time>2015-04-06T08:08:32Z</time>
      </trkpt>
      <trkpt lat="50.65295" lon="3.33575">
        <ele>25.13</ele>
        <time>2015-04-06T08:08:41Z</time>
      </trkpt>
      <trkpt lat="50.65231" lon="3.33629">
        <ele>23.69</ele>
        <time>2015-04-06T08:08:52Z</time>
      </trkpt>
      <trkpt lat="50.65171" lon="3.33679">
        <ele>21.77</ele>
        <time>2015-04-06T08:09:01Z</time>
      </trkpt>
      <trkpt lat="50.65104" lon="3.33722">
        <ele>20.32</ele>
        <time>2015-04-06T08:09:10Z</time>
      </trkpt>
      <trkpt lat="50.65041" lon="3.33754">
        <ele>20.81</ele>
        <time>2015-04-06T08:09:19Z</time>
      </trkpt>
      <trkpt lat="50.64983" lon="3.33786">
        <ele>22.25</ele>
        <time>2015-04-06T08:09:28Z</time>
      </trkpt>
      <trkpt lat="50.64924" lon="3.33817">
        <ele>23.21</ele>
        <time>2015-04-06T08:09:37Z</time>
      </trkpt>
      <trkpt lat="50.64867" lon="3.33852">
        <ele>23.69</ele>
        <time>2015-04-06T08:09:46Z</time>
      </trkpt>
      <trkpt lat="50.64791" lon="3.33908">
        <ele>21.29</ele>
        <time>2015-04-06T08:09:58Z</time>
      </trkpt>
      <trkpt lat="50.64722" lon="3.33958">
        <ele>21.29</ele>
        <time>2015-04-06T08:10:09Z</time>
      </trkpt>
      <trkpt lat="50.64691" lon="3.33983">
        <ele>21.29</ele>
        <time>2015-04-06T08:10:14Z</time>
      </trkpt>
      <trkpt lat="50.64686" lon="3.3399">
        <ele>21.29</ele>
        <time>2015-04-06T08:10:15Z</time>
      </trkpt>
      <trkpt lat="50.6468" lon="3.33997">
        <ele>21.77</ele>
        <time>2015-04-06T08:10:16Z</time>
      </trkpt>
      <trkpt lat="50.64626" lon="3.3409">
        <ele>20.81</ele>
        <time>2015-04-06T08:10:27Z</time>
      </trkpt>
      <trkpt lat="50.64575" lon="3.34176">
        <ele>19.84</ele>
        <time>2015-04-06T08:10:37Z</time>
      </trkpt>
      <trkpt lat="50.6454" lon="3.34238">
        <ele>19.36</ele>
        <time>2015-04-06T08:10:45Z</time>
      </trkpt>
      <trkpt lat="50.64503" lon="3.34296">
        <ele>18.88</ele>
        <time>2015-04-06T08:10:53Z</time>
      </trkpt>
      <trkpt lat="50.6449" lon="3.34318">
        <ele>19.36</ele>
        <time>2015-04-06T08:10:56Z</time>
      </trkpt>
      <trkpt lat="50.64482" lon="3.34329">
        <ele>19.84</ele>
        <time>2015-04-06T08:10:58Z</time>
      </trkpt>
      <trkpt lat="50.64478" lon="3.34336">
        <ele>19.84</ele>
        <time>2015-04-06T08:10:59Z</time>
      </trkpt>
      <trkpt lat="50.64476" lon="3.34341">
        <ele>19.84</ele>
        <time>2015-04-06T08:11:00Z</time>
      </trkpt>
      <trkpt lat="50.64473" lon="3.34347">
        <ele>19.36</ele>
        <time>2015-04-06T08:11:01Z</time>
      </trkpt>
      <trkpt lat="50.64472" lon="3.34351">
        <ele>19.84</ele>
        <time>2015-04-06T08:11:02Z</time>
      </trkpt>
      <trkpt lat="50.6447" lon="3.34357">
        <ele>19.84</ele>
        <time>2015-04-06T08:11:03Z</time>
      </trkpt>
      <trkpt lat="50.64465" lon="3.34373">
        <ele>20.32</ele>
        <time>2015-04-06T08:11:06Z</time>
      </trkpt>
      <trkpt lat="50.64445" lon="3.34397">
        <ele>20.81</ele>
        <time>2015-04-06T08:11:11Z</time>
      </trkpt>
      <trkpt lat="50.64441" lon="3.34403">
        <ele>20.81</ele>
        <time>2015-04-06T08:11:12Z</time>
      </trkpt>
      <trkpt lat="50.64413" lon="3.34445">
        <ele>19.84</ele>
        <time>2015-04-06T08:11:19Z</time>
      </trkpt>
      <trkpt lat="50.6441" lon="3.34451">
        <ele>19.84</ele>
        <time>2015-04-06T08:11:20Z</time>
      </trkpt>
      <trkpt lat="50.64387" lon="3.34497">
        <ele>19.36</ele>
        <time>2015-04-06T08:11:26Z</time>
      </trkpt>
      <trkpt lat="50.64347" lon="3.34564">
        <ele>18.88</ele>
        <time>2015-04-06T08:11:35Z</time>
      </trkpt>
      <trkpt lat="50.64334" lon="3.34581">
        <ele>18.88</ele>
        <time>2015-04-06T08:11:39Z</time>
      </trkpt>
      <trkpt lat="50.64325" lon="3.34592">
        <ele>18.88</ele>
        <time>2015-04-06T08:11:45Z</time>
      </trkpt>
      <trkpt lat="50.64325" lon="3.34593">
        <ele>19.84</ele>
        <time>2015-04-06T08:11:52Z</time>
      </trkpt>
      <trkpt lat="50.64324" lon="3.34593">
        <ele>18.88</ele>
        <time>2015-04-06T08:12:08Z</time>
      </trkpt>
      <trkpt lat="50.6432" lon="3.34597">
        <ele>19.36</ele>
        <time>2015-04-06T08:12:14Z</time>
      </trkpt>
      <trkpt lat="50.64313" lon="3.34604">
        <ele>18.88</ele>
        <time>2015-04-06T08:12:20Z</time>
      </trkpt>
      <trkpt lat="50.64313" lon="3.34608">
        <ele>18.4</ele>
        <time>2015-04-06T08:12:21Z</time>
      </trkpt>
      <trkpt lat="50.64317" lon="3.34632">
        <ele>17.92</ele>
        <time>2015-04-06T08:12:26Z</time>
      </trkpt>
      <trkpt lat="50.6434" lon="3.34659">
        <ele>19.36</ele>
        <time>2015-04-06T08:12:34Z</time>
      </trkpt>
      <trkpt lat="50.64344" lon="3.34659">
        <ele>19.36</ele>
        <time>2015-04-06T08:12:35Z</time>
      </trkpt>
      <trkpt lat="50.64348" lon="3.34657">
        <ele>19.36</ele>
        <time>2015-04-06T08:12:36Z</time>
      </trkpt>
      <trkpt lat="50.64352" lon="3.34654">
        <ele>19.36</ele>
        <time>2015-04-06T08:12:37Z</time>
      </trkpt>
      <trkpt lat="50.64356" lon="3.34651">
        <ele>18.88</ele>
        <time>2015-04-06T08:12:38Z</time>
      </trkpt>
      <trkpt lat="50.64386" lon="3.34622">
        <ele>18.4</ele>
        <time>2015-04-06T08:12:45Z</time>
      </trkpt>
      <trkpt lat="50.6439" lon="3.34617">
        <ele>18.4</ele>
        <time>2015-04-06T08:12:46Z</time>
      </trkpt>
      <trkpt lat="50.64393" lon="3.34611">
        <ele>18.4</ele>
        <time>2015-04-06T08:12:47Z</time>
      </trkpt>
      <trkpt lat="50.64396" lon="3.34603">
        <ele>17.92</ele>
        <time>2015-04-06T08:12:48Z</time>
      </trkpt>
      <trkpt lat="50.64397" lon="3.34596">
        <ele>17.92</ele>
        <time>2015-04-06T08:12:49Z</time>
      </trkpt>
      <trkpt lat="50.64398" lon="3.34588">
        <ele>17.92</ele>
        <time>2015-04-06T08:12:50Z</time>
      </trkpt>
      <trkpt lat="50.64401" lon="3.34573">
        <ele>16.96</ele>
        <time>2015-04-06T08:12:52Z</time>
      </trkpt>
      <trkpt lat="50.64403" lon="3.34568">
        <ele>16.96</ele>
        <time>2015-04-06T08:12:53Z</time>
      </trkpt>
      <trkpt lat="50.64407" lon="3.34564">
        <ele>16.48</ele>
        <time>2015-04-06T08:12:54Z</time>
      </trkpt>
      <trkpt lat="50.64412" lon="3.34564">
        <ele>16.48</ele>
        <time>2015-04-06T08:12:55Z</time>
      </trkpt>
      <trkpt lat="50.64417" lon="3.34564">
        <ele>16.48</ele>
        <time>2015-04-06T08:12:56Z</time>
      </trkpt>
      <trkpt lat="50.64422" lon="3.34565">
        <ele>16</ele>
        <time>2015-04-06T08:12:57Z</time>
      </trkpt>
      <trkpt lat="50.64435" lon="3.34568">
        <ele>16</ele>
        <time>2015-04-06T08:12:59Z</time>
      </trkpt>
      <trkpt lat="50.64484" lon="3.34573">
        <ele>16</ele>
        <time>2015-04-06T08:13:07Z</time>
      </trkpt>
      <trkpt lat="50.64495" lon="3.34574">
        <ele>16.48</ele>
        <time>2015-04-06T08:13:09Z</time>
      </trkpt>
      <trkpt lat="50.64499" lon="3.34577">
        <ele>16.48</ele>
        <time>2015-04-06T08:13:10Z</time>
      </trkpt>
      <trkpt lat="50.64503" lon="3.34581">
        <ele>16.48</ele>
        <time>2015-04-06T08:13:11Z</time>
      </trkpt>
      <trkpt lat="50.64506" lon="3.34587">
        <ele>16.48</ele>
        <time>2015-04-06T08:13:12Z</time>
      </trkpt>
      <trkpt lat="50.64506" lon="3.34594">
        <ele>16.48</ele>
        <time>2015-04-06T08:13:13Z</time>
      </trkpt>
      <trkpt lat="50.64506" lon="3.34602">
        <ele>16.48</ele>
        <time>2015-04-06T08:13:14Z</time>
      </trkpt>
      <trkpt lat="50.64507" lon="3.34611">
        <ele>16.48</ele>
        <time>2015-04-06T08:13:15Z</time>
      </trkpt>
      <trkpt lat="50.64517" lon="3.34695">
        <ele>16</ele>
        <time>2015-04-06T08:13:24Z</time>
      </trkpt>
      <trkpt lat="50.64526" lon="3.34776">
        <ele>15.52</ele>
        <time>2015-04-06T08:13:32Z</time>
      </trkpt>
      <trkpt lat="50.64536" lon="3.34879">
        <ele>16.96</ele>
        <time>2015-04-06T08:13:42Z</time>
      </trkpt>
      <trkpt lat="50.64539" lon="3.34908">
        <ele>17.44</ele>
        <time>2015-04-06T08:13:45Z</time>
      </trkpt>
      <trkpt lat="50.64546" lon="3.34979">
        <ele>19.36</ele>
        <time>2015-04-06T08:13:53Z</time>
      </trkpt>
      <trkpt lat="50.64553" lon="3.35047">
        <ele>20.81</ele>
        <time>2015-04-06T08:14:01Z</time>
      </trkpt>
      <trkpt lat="50.64562" lon="3.35122">
        <ele>20.32</ele>
        <time>2015-04-06T08:14:09Z</time>
      </trkpt>
      <trkpt lat="50.6457" lon="3.35217">
        <ele>17.92</ele>
        <time>2015-04-06T08:14:17Z</time>
      </trkpt>
      <trkpt lat="50.64573" lon="3.35325">
        <ele>16</ele>
        <time>2015-04-06T08:14:25Z</time>
      </trkpt>
      <trkpt lat="50.6457" lon="3.35462">
        <ele>14.08</ele>
        <time>2015-04-06T08:14:35Z</time>
      </trkpt>
      <trkpt lat="50.64569" lon="3.35575">
        <ele>14.56</ele>
        <time>2015-04-06T08:14:44Z</time>
      </trkpt>
      <trkpt lat="50.64569" lon="3.35619">
        <ele>14.56</ele>
        <time>2015-04-06T08:14:48Z</time>
      </trkpt>
      <trkpt lat="50.64572" lon="3.35629">
        <ele>14.56</ele>
        <time>2015-04-06T08:14:49Z</time>
      </trkpt>
      <trkpt lat="50.64576" lon="3.35639">
        <ele>15.04</ele>
        <time>2015-04-06T08:14:50Z</time>
      </trkpt>
      <trkpt lat="50.6458" lon="3.35648">
        <ele>15.04</ele>
        <time>2015-04-06T08:14:51Z</time>
      </trkpt>
      <trkpt lat="50.64584" lon="3.35657">
        <ele>15.52</ele>
        <time>2015-04-06T08:14:52Z</time>
      </trkpt>
      <trkpt lat="50.64588" lon="3.35666">
        <ele>15.52</ele>
        <time>2015-04-06T08:14:53Z</time>
      </trkpt>
      <trkpt lat="50.64612" lon="3.3572">
        <ele>16</ele>
        <time>2015-04-06T08:14:59Z</time>
      </trkpt>
      <trkpt lat="50.64627" lon="3.35743">
        <ele>16.48</ele>
        <time>2015-04-06T08:15:02Z</time>
      </trkpt>
      <trkpt lat="50.64669" lon="3.35797">
        <ele>16.96</ele>
        <time>2015-04-06T08:15:10Z</time>
      </trkpt>
      <trkpt lat="50.64674" lon="3.35805">
        <ele>17.44</ele>
        <time>2015-04-06T08:15:11Z</time>
      </trkpt>
      <trkpt lat="50.64704" lon="3.3587">
        <ele>18.4</ele>
        <time>2015-04-06T08:15:19Z</time>
      </trkpt>
      <trkpt lat="50.64735" lon="3.35941">
        <ele>19.36</ele>
        <time>2015-04-06T08:15:28Z</time>
      </trkpt>
      <trkpt lat="50.64761" lon="3.36009">
        <ele>20.32</ele>
        <time>2015-04-06T08:15:37Z</time>
      </trkpt>
      <trkpt lat="50.64765" lon="3.36024">
        <ele>20.32</ele>
        <time>2015-04-06T08:15:39Z</time>
      </trkpt>
      <trkpt lat="50.64771" lon="3.36095">
        <ele>21.77</ele>
        <time>2015-04-06T08:15:48Z</time>
      </trkpt>
      <trkpt lat="50.6477" lon="3.36102">
        <ele>21.77</ele>
        <time>2015-04-06T08:15:49Z</time>
      </trkpt>
      <trkpt lat="50.64763" lon="3.36148">
        <ele>22.73</ele>
        <time>2015-04-06T08:15:55Z</time>
      </trkpt>
      <trkpt lat="50.64763" lon="3.36156">
        <ele>23.21</ele>
        <time>2015-04-06T08:15:56Z</time>
      </trkpt>
      <trkpt lat="50.64763" lon="3.36164">
        <ele>23.21</ele>
        <time>2015-04-06T08:15:57Z</time>
      </trkpt>
      <trkpt lat="50.64764" lon="3.36171">
        <ele>24.17</ele>
        <time>2015-04-06T08:15:58Z</time>
      </trkpt>
      <trkpt lat="50.64765" lon="3.36178">
        <ele>24.17</ele>
        <time>2015-04-06T08:15:59Z</time>
      </trkpt>
      <trkpt lat="50.64767" lon="3.36185">
        <ele>24.65</ele>
        <time>2015-04-06T08:16:00Z</time>
      </trkpt>
      <trkpt lat="50.64769" lon="3.3619">
        <ele>25.13</ele>
        <time>2015-04-06T08:16:01Z</time>
      </trkpt>
      <trkpt lat="50.64771" lon="3.36196">
        <ele>25.13</ele>
        <time>2015-04-06T08:16:02Z</time>
      </trkpt>
      <trkpt lat="50.64793" lon="3.36232">
        <ele>27.05</ele>
        <time>2015-04-06T08:16:09Z</time>
      </trkpt>
      <trkpt lat="50.64807" lon="3.36251">
        <ele>28.02</ele>
        <time>2015-04-06T08:16:13Z</time>
      </trkpt>
      <trkpt lat="50.6481" lon="3.36256">
        <ele>28.5</ele>
        <time>2015-04-06T08:16:14Z</time>
      </trkpt>
      <trkpt lat="50.64837" lon="3.36294">
        <ele>31.38</ele>
        <time>2015-04-06T08:16:23Z</time>
      </trkpt>
      <trkpt lat="50.64846" lon="3.36308">
        <ele>31.86</ele>
        <time>2015-04-06T08:16:26Z</time>
      </trkpt>
      <trkpt lat="50.64851" lon="3.36318">
        <ele>31.86</ele>
        <time>2015-04-06T08:16:28Z</time>
      </trkpt>
      <trkpt lat="50.64853" lon="3.36322">
        <ele>32.34</ele>
        <time>2015-04-06T08:16:29Z</time>
      </trkpt>
      <trkpt lat="50.64878" lon="3.36384">
        <ele>31.86</ele>
        <time>2015-04-06T08:16:40Z</time>
      </trkpt>
      <trkpt lat="50.64902" lon="3.36447">
        <ele>31.86</ele>
        <time>2015-04-06T08:16:50Z</time>
      </trkpt>
      <trkpt lat="50.64918" lon="3.36481">
        <ele>31.38</ele>
        <time>2015-04-06T08:16:56Z</time>
      </trkpt>
      <trkpt lat="50.64921" lon="3.36487">
        <ele>31.86</ele>
        <time>2015-04-06T08:16:57Z</time>
      </trkpt>
      <trkpt lat="50.64923" lon="3.36492">
        <ele>31.86</ele>
        <time>2015-04-06T08:16:58Z</time>
      </trkpt>
      <trkpt lat="50.64925" lon="3.36498">
        <ele>32.34</ele>
        <time>2015-04-06T08:16:59Z</time>
      </trkpt>
      <trkpt lat="50.64926" lon="3.36504">
        <ele>32.34</ele>
        <time>2015-04-06T08:17:00Z</time>
      </trkpt>
      <trkpt lat="50.64926" lon="3.36511">
        <ele>32.82</ele>
        <time>2015-04-06T08:17:01Z</time>
      </trkpt>
      <trkpt lat="50.64926" lon="3.36518">
        <ele>32.82</ele>
        <time>2015-04-06T08:17:02Z</time>
      </trkpt>
      <trkpt lat="50.64924" lon="3.36524">
        <ele>32.82</ele>
        <time>2015-04-06T08:17:03Z</time>
      </trkpt>
      <trkpt lat="50.64922" lon="3.3653">
        <ele>32.34</ele>
        <time>2015-04-06T08:17:04Z</time>
      </trkpt>
      <trkpt lat="50.64919" lon="3.36535">
        <ele>32.34</ele>
        <time>2015-04-06T08:17:05Z</time>
      </trkpt>
      <trkpt lat="50.64916" lon="3.3654">
        <ele>31.86</ele>
        <time>2015-04-06T08:17:06Z</time>
      </trkpt>
      <trkpt lat="50.64891" lon="3.36587">
        <ele>32.82</ele>
        <time>2015-04-06T08:17:14Z</time>
      </trkpt>
      <trkpt lat="50.64859" lon="3.36652">
        <ele>33.78</ele>
        <time>2015-04-06T08:17:24Z</time>
      </trkpt>
      <trkpt lat="50.64815" lon="3.36738">
        <ele>35.71</ele>
        <time>2015-04-06T08:17:37Z</time>
      </trkpt>
      <trkpt lat="50.64788" lon="3.36791">
        <ele>36.67</ele>
        <time>2015-04-06T08:17:45Z</time>
      </trkpt>
      <trkpt lat="50.64758" lon="3.36849">
        <ele>38.59</ele>
        <time>2015-04-06T08:17:54Z</time>
      </trkpt>
      <trkpt lat="50.64722" lon="3.36901">
        <ele>38.11</ele>
        <time>2015-04-06T08:18:03Z</time>
      </trkpt>
      <trkpt lat="50.64682" lon="3.36942">
        <ele>37.63</ele>
        <time>2015-04-06T08:18:11Z</time>
      </trkpt>
      <trkpt lat="50.64641" lon="3.36983">
        <ele>37.63</ele>
        <time>2015-04-06T08:18:18Z</time>
      </trkpt>
      <trkpt lat="50.64584" lon="3.37038">
        <ele>34.74</ele>
        <time>2015-04-06T08:18:26Z</time>
      </trkpt>
      <trkpt lat="50.64513" lon="3.37108">
        <ele>31.38</ele>
        <time>2015-04-06T08:18:35Z</time>
      </trkpt>
      <trkpt lat="50.64462" lon="3.37152">
        <ele>28.5</ele>
        <time>2015-04-06T08:18:41Z</time>
      </trkpt>
      <trkpt lat="50.64452" lon="3.37156">
        <ele>28.02</ele>
        <time>2015-04-06T08:18:42Z</time>
      </trkpt>
      <trkpt lat="50.64442" lon="3.3716">
        <ele>27.53</ele>
        <time>2015-04-06T08:18:43Z</time>
      </trkpt>
      <trkpt lat="50.64432" lon="3.37162">
        <ele>27.05</ele>
        <time>2015-04-06T08:18:44Z</time>
      </trkpt>
      <trkpt lat="50.64422" lon="3.37164">
        <ele>27.05</ele>
        <time>2015-04-06T08:18:45Z</time>
      </trkpt>
      <trkpt lat="50.64321" lon="3.37177">
        <ele>25.13</ele>
        <time>2015-04-06T08:18:55Z</time>
      </trkpt>
      <trkpt lat="50.64254" lon="3.37197">
        <ele>24.65</ele>
        <time>2015-04-06T08:19:02Z</time>
      </trkpt>
      <trkpt lat="50.64192" lon="3.37229">
        <ele>24.65</ele>
        <time>2015-04-06T08:19:09Z</time>
      </trkpt>
      <trkpt lat="50.64114" lon="3.3727">
        <ele>23.21</ele>
        <time>2015-04-06T08:19:18Z</time>
      </trkpt>
      <trkpt lat="50.64045" lon="3.37306">
        <ele>22.25</ele>
        <time>2015-04-06T08:19:27Z</time>
      </trkpt>
      <trkpt lat="50.64019" lon="3.37318">
        <ele>21.29</ele>
        <time>2015-04-06T08:19:32Z</time>
      </trkpt>
      <trkpt lat="50.64008" lon="3.37317">
        <ele>20.32</ele>
        <time>2015-04-06T08:19:37Z</time>
      </trkpt>
      <trkpt lat="50.64008" lon="3.37317">
        <ele>20.81</ele>
        <time>2015-04-06T08:19:49Z</time>
      </trkpt>
      <trkpt lat="50.64007" lon="3.37319">
        <ele>20.81</ele>
        <time>2015-04-06T08:19:50Z</time>
      </trkpt>
      <trkpt lat="50.64006" lon="3.37321">
        <ele>20.81</ele>
        <time>2015-04-06T08:19:51Z</time>
      </trkpt>
      <trkpt lat="50.64005" lon="3.37322">
        <ele>20.81</ele>
        <time>2015-04-06T08:19:52Z</time>
      </trkpt>
      <trkpt lat="50.64004" lon="3.37324">
        <ele>20.32</ele>
        <time>2015-04-06T08:19:53Z</time>
      </trkpt>
      <trkpt lat="50.64002" lon="3.37325">
        <ele>20.32</ele>
        <time>2015-04-06T08:19:54Z</time>
      </trkpt>
      <trkpt lat="50.64" lon="3.37325">
        <ele>20.32</ele>
        <time>2015-04-06T08:19:55Z</time>
      </trkpt>
      <trkpt lat="50.63999" lon="3.37326">
        <ele>19.84</ele>
        <time>2015-04-06T08:19:56Z</time>
      </trkpt>
      <trkpt lat="50.63987" lon="3.37337">
        <ele>19.84</ele>
        <time>2015-04-06T08:20:02Z</time>
      </trkpt>
      <trkpt lat="50.63961" lon="3.37353">
        <ele>19.36</ele>
        <time>2015-04-06T08:20:10Z</time>
      </trkpt>
      <trkpt lat="50.63934" lon="3.37371">
        <ele>19.84</ele>
        <time>2015-04-06T08:20:17Z</time>
      </trkpt>
      <trkpt lat="50.63918" lon="3.37382">
        <ele>19.84</ele>
        <time>2015-04-06T08:20:21Z</time>
      </trkpt>
      <trkpt lat="50.63914" lon="3.37387">
        <ele>19.84</ele>
        <time>2015-04-06T08:20:22Z</time>
      </trkpt>
      <trkpt lat="50.63911" lon="3.37392">
        <ele>19.36</ele>
        <time>2015-04-06T08:20:23Z</time>
      </trkpt>
      <trkpt lat="50.63909" lon="3.37399">
        <ele>19.36</ele>
        <time>2015-04-06T08:20:24Z</time>
      </trkpt>
      <trkpt lat="50.63907" lon="3.37406">
        <ele>19.36</ele>
        <time>2015-04-06T08:20:25Z</time>
      </trkpt>
      <trkpt lat="50.63906" lon="3.37414">
        <ele>19.84</ele>
        <time>2015-04-06T08:20:26Z</time>
      </trkpt>
      <trkpt lat="50.63896" lon="3.37458">
        <ele>19.84</ele>
        <time>2015-04-06T08:20:32Z</time>
      </trkpt>
      <trkpt lat="50.63883" lon="3.37516">
        <ele>19.84</ele>
        <time>2015-04-06T08:20:40Z</time>
      </trkpt>
      <trkpt lat="50.63868" lon="3.37581">
        <ele>19.36</ele>
        <time>2015-04-06T08:20:48Z</time>
      </trkpt>
      <trkpt lat="50.63847" lon="3.37667">
        <ele>19.36</ele>
        <time>2015-04-06T08:20:58Z</time>
      </trkpt>
      <trkpt lat="50.63845" lon="3.37676">
        <ele>19.36</ele>
        <time>2015-04-06T08:20:59Z</time>
      </trkpt>
      <trkpt lat="50.63829" lon="3.37747">
        <ele>19.36</ele>
        <time>2015-04-06T08:21:08Z</time>
      </trkpt>
      <trkpt lat="50.63816" lon="3.37806">
        <ele>19.36</ele>
        <time>2015-04-06T08:21:16Z</time>
      </trkpt>
      <trkpt lat="50.63811" lon="3.37828">
        <ele>18.88</ele>
        <time>2015-04-06T08:21:19Z</time>
      </trkpt>
      <trkpt lat="50.63809" lon="3.37834">
        <ele>18.88</ele>
        <time>2015-04-06T08:21:20Z</time>
      </trkpt>
      <trkpt lat="50.638" lon="3.37877">
        <ele>18.88</ele>
        <time>2015-04-06T08:21:26Z</time>
      </trkpt>
      <trkpt lat="50.638" lon="3.37885">
        <ele>18.88</ele>
        <time>2015-04-06T08:21:27Z</time>
      </trkpt>
      <trkpt lat="50.63802" lon="3.37892">
        <ele>19.36</ele>
        <time>2015-04-06T08:21:28Z</time>
      </trkpt>
      <trkpt lat="50.63804" lon="3.37899">
        <ele>19.36</ele>
        <time>2015-04-06T08:21:29Z</time>
      </trkpt>
      <trkpt lat="50.63807" lon="3.37905">
        <ele>19.36</ele>
        <time>2015-04-06T08:21:30Z</time>
      </trkpt>
      <trkpt lat="50.63811" lon="3.3791">
        <ele>19.36</ele>
        <time>2015-04-06T08:21:31Z</time>
      </trkpt>
      <trkpt lat="50.63815" lon="3.37915">
        <ele>19.36</ele>
        <time>2015-04-06T08:21:32Z</time>
      </trkpt>
      <trkpt lat="50.63833" lon="3.37934">
        <ele>18.88</ele>
        <time>2015-04-06T08:21:36Z</time>
      </trkpt>
      <trkpt lat="50.63852" lon="3.37955">
        <ele>19.36</ele>
        <time>2015-04-06T08:21:40Z</time>
      </trkpt>
      <trkpt lat="50.63856" lon="3.37961">
        <ele>19.36</ele>
        <time>2015-04-06T08:21:41Z</time>
      </trkpt>
      <trkpt lat="50.63859" lon="3.37968">
        <ele>19.36</ele>
        <time>2015-04-06T08:21:42Z</time>
      </trkpt>
      <trkpt lat="50.63862" lon="3.37975">
        <ele>19.36</ele>
        <time>2015-04-06T08:21:43Z</time>
      </trkpt>
      <trkpt lat="50.63865" lon="3.37982">
        <ele>19.36</ele>
        <time>2015-04-06T08:21:44Z</time>
      </trkpt>
      <trkpt lat="50.63867" lon="3.3799">
        <ele>19.36</ele>
        <time>2015-04-06T08:21:45Z</time>
      </trkpt>
      <trkpt lat="50.63869" lon="3.37998">
        <ele>19.36</ele>
        <time>2015-04-06T08:21:46Z</time>
      </trkpt>
      <trkpt lat="50.63869" lon="3.38006">
        <ele>19.36</ele>
        <time>2015-04-06T08:21:47Z</time>
      </trkpt>
      <trkpt lat="50.63869" lon="3.38014">
        <ele>19.36</ele>
        <time>2015-04-06T08:21:48Z</time>
      </trkpt>
      <trkpt lat="50.63869" lon="3.38022">
        <ele>19.84</ele>
        <time>2015-04-06T08:21:49Z</time>
      </trkpt>
      <trkpt lat="50.63868" lon="3.38088">
        <ele>19.84</ele>
        <time>2015-04-06T08:21:57Z</time>
      </trkpt>
      <trkpt lat="50.63867" lon="3.38109">
        <ele>19.36</ele>
        <time>2015-04-06T08:22:00Z</time>
      </trkpt>
      <trkpt lat="50.63867" lon="3.38115">
        <ele>19.36</ele>
        <time>2015-04-06T08:22:01Z</time>
      </trkpt>
      <trkpt lat="50.63868" lon="3.38121">
        <ele>19.36</ele>
        <time>2015-04-06T08:22:02Z</time>
      </trkpt>
      <trkpt lat="50.63869" lon="3.38127">
        <ele>19.36</ele>
        <time>2015-04-06T08:22:03Z</time>
      </trkpt>
      <trkpt lat="50.6387" lon="3.38134">
        <ele>19.36</ele>
        <time>2015-04-06T08:22:04Z</time>
      </trkpt>
      <trkpt lat="50.63872" lon="3.38141">
        <ele>19.36</ele>
        <time>2015-04-06T08:22:05Z</time>
      </trkpt>
      <trkpt lat="50.6389" lon="3.38209">
        <ele>19.84</ele>
        <time>2015-04-06T08:22:14Z</time>
      </trkpt>
      <trkpt lat="50.63909" lon="3.38266">
        <ele>19.84</ele>
        <time>2015-04-06T08:22:21Z</time>
      </trkpt>
      <trkpt lat="50.63941" lon="3.38351">
        <ele>20.32</ele>
        <time>2015-04-06T08:22:31Z</time>
      </trkpt>
      <trkpt lat="50.63947" lon="3.38368">
        <ele>19.84</ele>
        <time>2015-04-06T08:22:33Z</time>
      </trkpt>
      <trkpt lat="50.63949" lon="3.38378">
        <ele>19.84</ele>
        <time>2015-04-06T08:22:34Z</time>
      </trkpt>
      <trkpt lat="50.63959" lon="3.38414">
        <ele>20.32</ele>
        <time>2015-04-06T08:22:38Z</time>
      </trkpt>
      <trkpt lat="50.63963" lon="3.38422">
        <ele>20.32</ele>
        <time>2015-04-06T08:22:39Z</time>
      </trkpt>
      <trkpt lat="50.63967" lon="3.38429">
        <ele>20.32</ele>
        <time>2015-04-06T08:22:40Z</time>
      </trkpt>
      <trkpt lat="50.63971" lon="3.38435">
        <ele>20.81</ele>
        <time>2015-04-06T08:22:41Z</time>
      </trkpt>
      <trkpt lat="50.63976" lon="3.38441">
        <ele>20.81</ele>
        <time>2015-04-06T08:22:42Z</time>
      </trkpt>
      <trkpt lat="50.63984" lon="3.38453">
        <ele>20.81</ele>
        <time>2015-04-06T08:22:44Z</time>
      </trkpt>
      <trkpt lat="50.63988" lon="3.38461">
        <ele>20.81</ele>
        <time>2015-04-06T08:22:45Z</time>
      </trkpt>
      <trkpt lat="50.63991" lon="3.38468">
        <ele>20.81</ele>
        <time>2015-04-06T08:22:46Z</time>
      </trkpt>
      <trkpt lat="50.63994" lon="3.38477">
        <ele>20.81</ele>
        <time>2015-04-06T08:22:47Z</time>
      </trkpt>
      <trkpt lat="50.63996" lon="3.38486">
        <ele>21.29</ele>
        <time>2015-04-06T08:22:48Z</time>
      </trkpt>
      <trkpt lat="50.64017" lon="3.38565">
        <ele>22.73</ele>
        <time>2015-04-06T08:22:57Z</time>
      </trkpt>
      <trkpt lat="50.64036" lon="3.38644">
        <ele>23.69</ele>
        <time>2015-04-06T08:23:06Z</time>
      </trkpt>
      <trkpt lat="50.64052" lon="3.38728">
        <ele>23.69</ele>
        <time>2015-04-06T08:23:15Z</time>
      </trkpt>
      <trkpt lat="50.64063" lon="3.38806">
        <ele>23.69</ele>
        <time>2015-04-06T08:23:23Z</time>
      </trkpt>
      <trkpt lat="50.64056" lon="3.38885">
        <ele>24.17</ele>
        <time>2015-04-06T08:23:31Z</time>
      </trkpt>
      <trkpt lat="50.64047" lon="3.38963">
        <ele>24.65</ele>
        <time>2015-04-06T08:23:39Z</time>
      </trkpt>
      <trkpt lat="50.6405" lon="3.39056">
        <ele>24.65</ele>
        <time>2015-04-06T08:23:48Z</time>
      </trkpt>
      <trkpt lat="50.64055" lon="3.39151">
        <ele>25.13</ele>
        <time>2015-04-06T08:23:57Z</time>
      </trkpt>
      <trkpt lat="50.64056" lon="3.39192">
        <ele>25.13</ele>
        <time>2015-04-06T08:24:01Z</time>
      </trkpt>
      <trkpt lat="50.64055" lon="3.39201">
        <ele>25.13</ele>
        <time>2015-04-06T08:24:02Z</time>
      </trkpt>
      <trkpt lat="50.64052" lon="3.39209">
        <ele>25.13</ele>
        <time>2015-04-06T08:24:03Z</time>
      </trkpt>
      <trkpt lat="50.64046" lon="3.39215">
        <ele>25.13</ele>
        <time>2015-04-06T08:24:04Z</time>
      </trkpt>
      <trkpt lat="50.64039" lon="3.39217">
        <ele>24.65</ele>
        <time>2015-04-06T08:24:05Z</time>
      </trkpt>
      <trkpt lat="50.64032" lon="3.39217">
        <ele>24.65</ele>
        <time>2015-04-06T08:24:06Z</time>
      </trkpt>
      <trkpt lat="50.64025" lon="3.39215">
        <ele>24.65</ele>
        <time>2015-04-06T08:24:07Z</time>
      </trkpt>
      <trkpt lat="50.63996" lon="3.39212">
        <ele>24.17</ele>
        <time>2015-04-06T08:24:11Z</time>
      </trkpt>
      <trkpt lat="50.6399" lon="3.39215">
        <ele>24.17</ele>
        <time>2015-04-06T08:24:12Z</time>
      </trkpt>
      <trkpt lat="50.63985" lon="3.39222">
        <ele>24.65</ele>
        <time>2015-04-06T08:24:13Z</time>
      </trkpt>
      <trkpt lat="50.63982" lon="3.39231">
        <ele>24.65</ele>
        <time>2015-04-06T08:24:14Z</time>
      </trkpt>
      <trkpt lat="50.6398" lon="3.39241">
        <ele>24.65</ele>
        <time>2015-04-06T08:24:15Z</time>
      </trkpt>
      <trkpt lat="50.63979" lon="3.39252">
        <ele>25.13</ele>
        <time>2015-04-06T08:24:16Z</time>
      </trkpt>
      <trkpt lat="50.63978" lon="3.39263">
        <ele>24.65</ele>
        <time>2015-04-06T08:24:17Z</time>
      </trkpt>
      <trkpt lat="50.63962" lon="3.39372">
        <ele>25.13</ele>
        <time>2015-04-06T08:24:27Z</time>
      </trkpt>
      <trkpt lat="50.63956" lon="3.39449">
        <ele>24.17</ele>
        <time>2015-04-06T08:24:34Z</time>
      </trkpt>
      <trkpt lat="50.63952" lon="3.39561">
        <ele>23.69</ele>
        <time>2015-04-06T08:24:44Z</time>
      </trkpt>
      <trkpt lat="50.63948" lon="3.3963">
        <ele>23.69</ele>
        <time>2015-04-06T08:24:50Z</time>
      </trkpt>
      <trkpt lat="50.63946" lon="3.39641">
        <ele>23.21</ele>
        <time>2015-04-06T08:24:51Z</time>
      </trkpt>
      <trkpt lat="50.63946" lon="3.39653">
        <ele>23.21</ele>
        <time>2015-04-06T08:24:52Z</time>
      </trkpt>
      <trkpt lat="50.63942" lon="3.39757">
        <ele>22.25</ele>
        <time>2015-04-06T08:25:01Z</time>
      </trkpt>
      <trkpt lat="50.63949" lon="3.39835">
        <ele>21.29</ele>
        <time>2015-04-06T08:25:08Z</time>
      </trkpt>
      <trkpt lat="50.63955" lon="3.39886">
        <ele>20.81</ele>
        <time>2015-04-06T08:25:14Z</time>
      </trkpt>
      <trkpt lat="50.63954" lon="3.39903">
        <ele>21.77</ele>
        <time>2015-04-06T08:25:19Z</time>
      </trkpt>
      <trkpt lat="50.63955" lon="3.39905">
        <ele>22.25</ele>
        <time>2015-04-06T08:25:20Z</time>
      </trkpt>
      <trkpt lat="50.63956" lon="3.39907">
        <ele>22.25</ele>
        <time>2015-04-06T08:25:21Z</time>
      </trkpt>
      <trkpt lat="50.63958" lon="3.3991">
        <ele>22.25</ele>
        <time>2015-04-06T08:25:22Z</time>
      </trkpt>
      <trkpt lat="50.63961" lon="3.39912">
        <ele>22.25</ele>
        <time>2015-04-06T08:25:23Z</time>
      </trkpt>
      <trkpt lat="50.63965" lon="3.39914">
        <ele>21.77</ele>
        <time>2015-04-06T08:25:24Z</time>
      </trkpt>
      <trkpt lat="50.63997" lon="3.39925">
        <ele>22.25</ele>
        <time>2015-04-06T08:25:30Z</time>
      </trkpt>
      <trkpt lat="50.64043" lon="3.39939">
        <ele>22.25</ele>
        <time>2015-04-06T08:25:38Z</time>
      </trkpt>
      <trkpt lat="50.64061" lon="3.39944">
        <ele>21.77</ele>
        <time>2015-04-06T08:25:41Z</time>
      </trkpt>
      <trkpt lat="50.64073" lon="3.39948">
        <ele>21.77</ele>
        <time>2015-04-06T08:25:43Z</time>
      </trkpt>
      <trkpt lat="50.64111" lon="3.39962">
        <ele>22.73</ele>
        <time>2015-04-06T08:25:50Z</time>
      </trkpt>
      <trkpt lat="50.64116" lon="3.39965">
        <ele>22.73</ele>
        <time>2015-04-06T08:25:51Z</time>
      </trkpt>
      <trkpt lat="50.64121" lon="3.39969">
        <ele>23.21</ele>
        <time>2015-04-06T08:25:52Z</time>
      </trkpt>
      <trkpt lat="50.64126" lon="3.39974">
        <ele>23.69</ele>
        <time>2015-04-06T08:25:53Z</time>
      </trkpt>
      <trkpt lat="50.64129" lon="3.3998">
        <ele>23.69</ele>
        <time>2015-04-06T08:25:54Z</time>
      </trkpt>
      <trkpt lat="50.64132" lon="3.39988">
        <ele>23.69</ele>
        <time>2015-04-06T08:25:55Z</time>
      </trkpt>
      <trkpt lat="50.64134" lon="3.39996">
        <ele>23.69</ele>
        <time>2015-04-06T08:25:56Z</time>
      </trkpt>
      <trkpt lat="50.64147" lon="3.40065">
        <ele>24.17</ele>
        <time>2015-04-06T08:26:04Z</time>
      </trkpt>
      <trkpt lat="50.64165" lon="3.40146">
        <ele>25.61</ele>
        <time>2015-04-06T08:26:13Z</time>
      </trkpt>
      <trkpt lat="50.64186" lon="3.40243">
        <ele>26.57</ele>
        <time>2015-04-06T08:26:23Z</time>
      </trkpt>
      <trkpt lat="50.64203" lon="3.40323">
        <ele>27.53</ele>
        <time>2015-04-06T08:26:31Z</time>
      </trkpt>
      <trkpt lat="50.64204" lon="3.40333">
        <ele>27.53</ele>
        <time>2015-04-06T08:26:32Z</time>
      </trkpt>
      <trkpt lat="50.64204" lon="3.40355">
        <ele>27.53</ele>
        <time>2015-04-06T08:26:34Z</time>
      </trkpt>
      <trkpt lat="50.64199" lon="3.40464">
        <ele>27.53</ele>
        <time>2015-04-06T08:26:44Z</time>
      </trkpt>
      <trkpt lat="50.64197" lon="3.40577">
        <ele>27.53</ele>
        <time>2015-04-06T08:26:54Z</time>
      </trkpt>
      <trkpt lat="50.64205" lon="3.40676">
        <ele>28.98</ele>
        <time>2015-04-06T08:27:03Z</time>
      </trkpt>
      <trkpt lat="50.64215" lon="3.40775">
        <ele>28.98</ele>
        <time>2015-04-06T08:27:12Z</time>
      </trkpt>
      <trkpt lat="50.64231" lon="3.4089">
        <ele>28.02</ele>
        <time>2015-04-06T08:27:22Z</time>
      </trkpt>
      <trkpt lat="50.64254" lon="3.41006">
        <ele>27.53</ele>
        <time>2015-04-06T08:27:32Z</time>
      </trkpt>
      <trkpt lat="50.64283" lon="3.41123">
        <ele>26.09</ele>
        <time>2015-04-06T08:27:42Z</time>
      </trkpt>
      <trkpt lat="50.64319" lon="3.41251">
        <ele>25.61</ele>
        <time>2015-04-06T08:27:53Z</time>
      </trkpt>
      <trkpt lat="50.64331" lon="3.41307">
        <ele>26.09</ele>
        <time>2015-04-06T08:27:58Z</time>
      </trkpt>
      <trkpt lat="50.64333" lon="3.41318">
        <ele>26.57</ele>
        <time>2015-04-06T08:27:59Z</time>
      </trkpt>
      <trkpt lat="50.6433" lon="3.41401">
        <ele>26.09</ele>
        <time>2015-04-06T08:28:06Z</time>
      </trkpt>
      <trkpt lat="50.64324" lon="3.41533">
        <ele>26.09</ele>
        <time>2015-04-06T08:28:17Z</time>
      </trkpt>
      <trkpt lat="50.64334" lon="3.41603">
        <ele>26.57</ele>
        <time>2015-04-06T08:28:23Z</time>
      </trkpt>
      <trkpt lat="50.64359" lon="3.4171">
        <ele>26.57</ele>
        <time>2015-04-06T08:28:33Z</time>
      </trkpt>
      <trkpt lat="50.64368" lon="3.41751">
        <ele>26.57</ele>
        <time>2015-04-06T08:28:37Z</time>
      </trkpt>
      <trkpt lat="50.64368" lon="3.41762">
        <ele>26.57</ele>
        <time>2015-04-06T08:28:38Z</time>
      </trkpt>
      <trkpt lat="50.64368" lon="3.41772">
        <ele>26.57</ele>
        <time>2015-04-06T08:28:39Z</time>
      </trkpt>
      <trkpt lat="50.64364" lon="3.41853">
        <ele>27.53</ele>
        <time>2015-04-06T08:28:47Z</time>
      </trkpt>
      <trkpt lat="50.64354" lon="3.41928">
        <ele>27.05</ele>
        <time>2015-04-06T08:28:55Z</time>
      </trkpt>
      <trkpt lat="50.64343" lon="3.41974">
        <ele>26.09</ele>
        <time>2015-04-06T08:29:02Z</time>
      </trkpt>
      <trkpt lat="50.64341" lon="3.41977">
        <ele>26.09</ele>
        <time>2015-04-06T08:29:07Z</time>
      </trkpt>
      <trkpt lat="50.64341" lon="3.41976">
        <ele>26.09</ele>
        <time>2015-04-06T08:29:17Z</time>
      </trkpt>
      <trkpt lat="50.64339" lon="3.4198">
        <ele>26.57</ele>
        <time>2015-04-06T08:29:21Z</time>
      </trkpt>
      <trkpt lat="50.64338" lon="3.41981">
        <ele>26.57</ele>
        <time>2015-04-06T08:29:22Z</time>
      </trkpt>
      <trkpt lat="50.64336" lon="3.41981">
        <ele>26.57</ele>
        <time>2015-04-06T08:29:23Z</time>
      </trkpt>
      <trkpt lat="50.64335" lon="3.4198">
        <ele>26.57</ele>
        <time>2015-04-06T08:29:24Z</time>
      </trkpt>
      <trkpt lat="50.64333" lon="3.41979">
        <ele>26.57</ele>
        <time>2015-04-06T08:29:25Z</time>
      </trkpt>
      <trkpt lat="50.64332" lon="3.41978">
        <ele>26.57</ele>
        <time>2015-04-06T08:29:26Z</time>
      </trkpt>
      <trkpt lat="50.64317" lon="3.4196">
        <ele>25.61</ele>
        <time>2015-04-06T08:29:32Z</time>
      </trkpt>
      <trkpt lat="50.64289" lon="3.41942">
        <ele>25.61</ele>
        <time>2015-04-06T08:29:39Z</time>
      </trkpt>
      <trkpt lat="50.64266" lon="3.41929">
        <ele>26.09</ele>
        <time>2015-04-06T08:29:44Z</time>
      </trkpt>
      <trkpt lat="50.64261" lon="3.41928">
        <ele>26.57</ele>
        <time>2015-04-06T08:29:45Z</time>
      </trkpt>
      <trkpt lat="50.64257" lon="3.41925">
        <ele>26.09</ele>
        <time>2015-04-06T08:29:46Z</time>
      </trkpt>
      <trkpt lat="50.64252" lon="3.41923">
        <ele>26.09</ele>
        <time>2015-04-06T08:29:47Z</time>
      </trkpt>
      <trkpt lat="50.64247" lon="3.41921">
        <ele>26.09</ele>
        <time>2015-04-06T08:29:48Z</time>
      </trkpt>
      <trkpt lat="50.64223" lon="3.41911">
        <ele>27.05</ele>
        <time>2015-04-06T08:29:53Z</time>
      </trkpt>
      <trkpt lat="50.64214" lon="3.41912">
        <ele>27.53</ele>
        <time>2015-04-06T08:29:55Z</time>
      </trkpt>
      <trkpt lat="50.64211" lon="3.41916">
        <ele>28.02</ele>
        <time>2015-04-06T08:29:56Z</time>
      </trkpt>
      <trkpt lat="50.6421" lon="3.41922">
        <ele>28.02</ele>
        <time>2015-04-06T08:29:57Z</time>
      </trkpt>
      <trkpt lat="50.6421" lon="3.41928">
        <ele>28.02</ele>
        <time>2015-04-06T08:29:58Z</time>
      </trkpt>
      <trkpt lat="50.6421" lon="3.41933">
        <ele>28.02</ele>
        <time>2015-04-06T08:29:59Z</time>
      </trkpt>
      <trkpt lat="50.64216" lon="3.41972">
        <ele>28.5</ele>
        <time>2015-04-06T08:30:05Z</time>
      </trkpt>
      <trkpt lat="50.64225" lon="3.42025">
        <ele>28.98</ele>
        <time>2015-04-06T08:30:13Z</time>
      </trkpt>
      <trkpt lat="50.64236" lon="3.42076">
        <ele>28.5</ele>
        <time>2015-04-06T08:30:21Z</time>
      </trkpt>
      <trkpt lat="50.64241" lon="3.42105">
        <ele>28.5</ele>
        <time>2015-04-06T08:30:25Z</time>
      </trkpt>
      <trkpt lat="50.64242" lon="3.42113">
        <ele>28.5</ele>
        <time>2015-04-06T08:30:26Z</time>
      </trkpt>
      <trkpt lat="50.64256" lon="3.42183">
        <ele>28.98</ele>
        <time>2015-04-06T08:30:34Z</time>
      </trkpt>
      <trkpt lat="50.64271" lon="3.42291">
        <ele>28.02</ele>
        <time>2015-04-06T08:30:45Z</time>
      </trkpt>
      <trkpt lat="50.64276" lon="3.42388">
        <ele>27.53</ele>
        <time>2015-04-06T08:30:54Z</time>
      </trkpt>
      <trkpt lat="50.64282" lon="3.42493">
        <ele>28.98</ele>
        <time>2015-04-06T08:31:04Z</time>
      </trkpt>
      <trkpt lat="50.64294" lon="3.42551">
        <ele>29.94</ele>
        <time>2015-04-06T08:31:10Z</time>
      </trkpt>
      <trkpt lat="50.64311" lon="3.42622">
        <ele>30.42</ele>
        <time>2015-04-06T08:31:18Z</time>
      </trkpt>
      <trkpt lat="50.64325" lon="3.42685">
        <ele>31.38</ele>
        <time>2015-04-06T08:31:25Z</time>
      </trkpt>
      <trkpt lat="50.64326" lon="3.42694">
        <ele>31.38</ele>
        <time>2015-04-06T08:31:26Z</time>
      </trkpt>
      <trkpt lat="50.64327" lon="3.42772">
        <ele>32.82</ele>
        <time>2015-04-06T08:31:34Z</time>
      </trkpt>
      <trkpt lat="50.64325" lon="3.42875">
        <ele>31.86</ele>
        <time>2015-04-06T08:31:44Z</time>
      </trkpt>
      <trkpt lat="50.64323" lon="3.42992">
        <ele>30.9</ele>
        <time>2015-04-06T08:31:54Z</time>
      </trkpt>
      <trkpt lat="50.64323" lon="3.43125">
        <ele>29.94</ele>
        <time>2015-04-06T08:32:05Z</time>
      </trkpt>
      <trkpt lat="50.64328" lon="3.4317">
        <ele>30.42</ele>
        <time>2015-04-06T08:32:09Z</time>
      </trkpt>
      <trkpt lat="50.64331" lon="3.4318">
        <ele>30.9</ele>
        <time>2015-04-06T08:32:10Z</time>
      </trkpt>
      <trkpt lat="50.64357" lon="3.4323">
        <ele>31.38</ele>
        <time>2015-04-06T08:32:16Z</time>
      </trkpt>
      <trkpt lat="50.64392" lon="3.43287">
        <ele>32.34</ele>
        <time>2015-04-06T08:32:24Z</time>
      </trkpt>
      <trkpt lat="50.64431" lon="3.43349">
        <ele>34.26</ele>
        <time>2015-04-06T08:32:33Z</time>
      </trkpt>
      <trkpt lat="50.64471" lon="3.43412">
        <ele>35.23</ele>
        <time>2015-04-06T08:32:43Z</time>
      </trkpt>
      <trkpt lat="50.64505" lon="3.4347">
        <ele>35.23</ele>
        <time>2015-04-06T08:32:52Z</time>
      </trkpt>
      <trkpt lat="50.64544" lon="3.43535">
        <ele>35.23</ele>
        <time>2015-04-06T08:33:02Z</time>
      </trkpt>
      <trkpt lat="50.64586" lon="3.43607">
        <ele>34.74</ele>
        <time>2015-04-06T08:33:11Z</time>
      </trkpt>
      <trkpt lat="50.64638" lon="3.43694">
        <ele>34.26</ele>
        <time>2015-04-06T08:33:21Z</time>
      </trkpt>
      <trkpt lat="50.64698" lon="3.43796">
        <ele>32.34</ele>
        <time>2015-04-06T08:33:32Z</time>
      </trkpt>
      <trkpt lat="50.64765" lon="3.4391">
        <ele>32.34</ele>
        <time>2015-04-06T08:33:44Z</time>
      </trkpt>
      <trkpt lat="50.64834" lon="3.44026">
        <ele>31.86</ele>
        <time>2015-04-06T08:33:56Z</time>
      </trkpt>
      <trkpt lat="50.64896" lon="3.4413">
        <ele>31.38</ele>
        <time>2015-04-06T08:34:07Z</time>
      </trkpt>
      <trkpt lat="50.64961" lon="3.44237">
        <ele>31.38</ele>
        <time>2015-04-06T08:34:19Z</time>
      </trkpt>
      <trkpt lat="50.65022" lon="3.44331">
        <ele>32.34</ele>
        <time>2015-04-06T08:34:30Z</time>
      </trkpt>
      <trkpt lat="50.65089" lon="3.44432">
        <ele>33.3</ele>
        <time>2015-04-06T08:34:42Z</time>
      </trkpt>
      <trkpt lat="50.65138" lon="3.44506">
        <ele>34.74</ele>
        <time>2015-04-06T08:34:51Z</time>
      </trkpt>
      <trkpt lat="50.65186" lon="3.44579">
        <ele>35.71</ele>
        <time>2015-04-06T08:35:00Z</time>
      </trkpt>
      <trkpt lat="50.65239" lon="3.44655">
        <ele>35.23</ele>
        <time>2015-04-06T08:35:10Z</time>
      </trkpt>
      <trkpt lat="50.65285" lon="3.44717">
        <ele>35.23</ele>
        <time>2015-04-06T08:35:19Z</time>
      </trkpt>
      <trkpt lat="50.65305" lon="3.44747">
        <ele>35.71</ele>
        <time>2015-04-06T08:35:24Z</time>
      </trkpt>
      <trkpt lat="50.6531" lon="3.4475">
        <ele>35.71</ele>
        <time>2015-04-06T08:35:25Z</time>
      </trkpt>
      <trkpt lat="50.65337" lon="3.44763">
        <ele>35.23</ele>
        <time>2015-04-06T08:35:30Z</time>
      </trkpt>
      <trkpt lat="50.6536" lon="3.44761">
        <ele>35.23</ele>
        <time>2015-04-06T08:35:34Z</time>
      </trkpt>
      <trkpt lat="50.65365" lon="3.4476">
        <ele>34.74</ele>
        <time>2015-04-06T08:35:35Z</time>
      </trkpt>
      <trkpt lat="50.6537" lon="3.44757">
        <ele>34.74</ele>
        <time>2015-04-06T08:35:36Z</time>
      </trkpt>
      <trkpt lat="50.65374" lon="3.44754">
        <ele>34.26</ele>
        <time>2015-04-06T08:35:37Z</time>
      </trkpt>
      <trkpt lat="50.65377" lon="3.4475">
        <ele>33.78</ele>
        <time>2015-04-06T08:35:38Z</time>
      </trkpt>
      <trkpt lat="50.65378" lon="3.44745">
        <ele>33.78</ele>
        <time>2015-04-06T08:35:39Z</time>
      </trkpt>
      <trkpt lat="50.65378" lon="3.44738">
        <ele>33.78</ele>
        <time>2015-04-06T08:35:40Z</time>
      </trkpt>
      <trkpt lat="50.65377" lon="3.4473">
        <ele>33.3</ele>
        <time>2015-04-06T08:35:41Z</time>
      </trkpt>
      <trkpt lat="50.65376" lon="3.44723">
        <ele>33.3</ele>
        <time>2015-04-06T08:35:42Z</time>
      </trkpt>
      <trkpt lat="50.65375" lon="3.44715">
        <ele>33.3</ele>
        <time>2015-04-06T08:35:43Z</time>
      </trkpt>
      <trkpt lat="50.65374" lon="3.44708">
        <ele>33.3</ele>
        <time>2015-04-06T08:35:44Z</time>
      </trkpt>
      <trkpt lat="50.65372" lon="3.447">
        <ele>33.3</ele>
        <time>2015-04-06T08:35:45Z</time>
      </trkpt>
      <trkpt lat="50.6537" lon="3.44692">
        <ele>33.3</ele>
        <time>2015-04-06T08:35:46Z</time>
      </trkpt>
      <trkpt lat="50.65346" lon="3.44604">
        <ele>33.78</ele>
        <time>2015-04-06T08:35:57Z</time>
      </trkpt>
      <trkpt lat="50.6534" lon="3.44574">
        <ele>34.26</ele>
        <time>2015-04-06T08:36:01Z</time>
      </trkpt>
      <trkpt lat="50.6534" lon="3.44566">
        <ele>34.26</ele>
        <time>2015-04-06T08:36:02Z</time>
      </trkpt>
      <trkpt lat="50.65337" lon="3.44515">
        <ele>35.71</ele>
        <time>2015-04-06T08:36:09Z</time>
      </trkpt>
      <trkpt lat="50.65336" lon="3.44509">
        <ele>36.19</ele>
        <time>2015-04-06T08:36:10Z</time>
      </trkpt>
      <trkpt lat="50.65321" lon="3.44459">
        <ele>36.67</ele>
        <time>2015-04-06T08:36:18Z</time>
      </trkpt>
      <trkpt lat="50.6532" lon="3.44452">
        <ele>36.67</ele>
        <time>2015-04-06T08:36:19Z</time>
      </trkpt>
      <trkpt lat="50.65319" lon="3.44445">
        <ele>36.67</ele>
        <time>2015-04-06T08:36:20Z</time>
      </trkpt>
      <trkpt lat="50.65319" lon="3.44437">
        <ele>37.15</ele>
        <time>2015-04-06T08:36:21Z</time>
      </trkpt>
      <trkpt lat="50.65321" lon="3.44431">
        <ele>37.15</ele>
        <time>2015-04-06T08:36:22Z</time>
      </trkpt>
      <trkpt lat="50.65324" lon="3.44425">
        <ele>37.15</ele>
        <time>2015-04-06T08:36:23Z</time>
      </trkpt>
      <trkpt lat="50.65327" lon="3.44419">
        <ele>37.63</ele>
        <time>2015-04-06T08:36:24Z</time>
      </trkpt>
      <trkpt lat="50.65331" lon="3.44415">
        <ele>37.63</ele>
        <time>2015-04-06T08:36:25Z</time>
      </trkpt>
      <trkpt lat="50.65335" lon="3.44412">
        <ele>37.63</ele>
        <time>2015-04-06T08:36:26Z</time>
      </trkpt>
      <trkpt lat="50.65339" lon="3.44409">
        <ele>38.11</ele>
        <time>2015-04-06T08:36:27Z</time>
      </trkpt>
      <trkpt lat="50.65381" lon="3.44378">
        <ele>39.55</ele>
        <time>2015-04-06T08:36:37Z</time>
      </trkpt>
      <trkpt lat="50.65394" lon="3.44369">
        <ele>40.03</ele>
        <time>2015-04-06T08:36:40Z</time>
      </trkpt>
      <trkpt lat="50.65412" lon="3.44353">
        <ele>40.51</ele>
        <time>2015-04-06T08:36:45Z</time>
      </trkpt>
      <trkpt lat="50.65421" lon="3.4434">
        <ele>40.51</ele>
        <time>2015-04-06T08:36:48Z</time>
      </trkpt>
      <trkpt lat="50.65437" lon="3.44308">
        <ele>41.47</ele>
        <time>2015-04-06T08:36:54Z</time>
      </trkpt>
      <trkpt lat="50.65445" lon="3.44289">
        <ele>41.95</ele>
        <time>2015-04-06T08:36:57Z</time>
      </trkpt>
      <trkpt lat="50.65475" lon="3.44237">
        <ele>42.44</ele>
        <time>2015-04-06T08:37:06Z</time>
      </trkpt>
      <trkpt lat="50.655" lon="3.44197">
        <ele>42.44</ele>
        <time>2015-04-06T08:37:13Z</time>
      </trkpt>
      <trkpt lat="50.65503" lon="3.44191">
        <ele>42.44</ele>
        <time>2015-04-06T08:37:14Z</time>
      </trkpt>
      <trkpt lat="50.65508" lon="3.44178">
        <ele>42.44</ele>
        <time>2015-04-06T08:37:16Z</time>
      </trkpt>
      <trkpt lat="50.65529" lon="3.44105">
        <ele>43.4</ele>
        <time>2015-04-06T08:37:26Z</time>
      </trkpt>
      <trkpt lat="50.6555" lon="3.44037">
        <ele>45.8</ele>
        <time>2015-04-06T08:37:36Z</time>
      </trkpt>
      <trkpt lat="50.65567" lon="3.43977">
        <ele>46.76</ele>
        <time>2015-04-06T08:37:46Z</time>
      </trkpt>
      <trkpt lat="50.6558" lon="3.43919">
        <ele>48.2</ele>
        <time>2015-04-06T08:37:56Z</time>
      </trkpt>
      <trkpt lat="50.65593" lon="3.43868">
        <ele>49.65</ele>
        <time>2015-04-06T08:38:05Z</time>
      </trkpt>
      <trkpt lat="50.65603" lon="3.43817">
        <ele>51.09</ele>
        <time>2015-04-06T08:38:14Z</time>
      </trkpt>
      <trkpt lat="50.65612" lon="3.4377">
        <ele>52.53</ele>
        <time>2015-04-06T08:38:23Z</time>
      </trkpt>
      <trkpt lat="50.65617" lon="3.43727">
        <ele>54.93</ele>
        <time>2015-04-06T08:38:31Z</time>
      </trkpt>
      <trkpt lat="50.6562" lon="3.4369">
        <ele>55.89</ele>
        <time>2015-04-06T08:38:39Z</time>
      </trkpt>
      <trkpt lat="50.65624" lon="3.43653">
        <ele>57.34</ele>
        <time>2015-04-06T08:38:47Z</time>
      </trkpt>
      <trkpt lat="50.65629" lon="3.4361">
        <ele>58.78</ele>
        <time>2015-04-06T08:38:57Z</time>
      </trkpt>
      <trkpt lat="50.65632" lon="3.43566">
        <ele>60.22</ele>
        <time>2015-04-06T08:39:07Z</time>
      </trkpt>
      <trkpt lat="50.65634" lon="3.43529">
        <ele>61.66</ele>
        <time>2015-04-06T08:39:15Z</time>
      </trkpt>
      <trkpt lat="50.65635" lon="3.43485">
        <ele>62.14</ele>
        <time>2015-04-06T08:39:25Z</time>
      </trkpt>
      <trkpt lat="50.65642" lon="3.43471">
        <ele>62.62</ele>
        <time>2015-04-06T08:39:30Z</time>
      </trkpt>
      <trkpt lat="50.65645" lon="3.4347">
        <ele>62.14</ele>
        <time>2015-04-06T08:39:31Z</time>
      </trkpt>
      <trkpt lat="50.65648" lon="3.4347">
        <ele>62.14</ele>
        <time>2015-04-06T08:39:32Z</time>
      </trkpt>
      <trkpt lat="50.65651" lon="3.43469">
        <ele>61.66</ele>
        <time>2015-04-06T08:39:33Z</time>
      </trkpt>
      <trkpt lat="50.65654" lon="3.43469">
        <ele>61.18</ele>
        <time>2015-04-06T08:39:34Z</time>
      </trkpt>
      <trkpt lat="50.65658" lon="3.43468">
        <ele>61.18</ele>
        <time>2015-04-06T08:39:35Z</time>
      </trkpt>
      <trkpt lat="50.65663" lon="3.43468">
        <ele>61.18</ele>
        <time>2015-04-06T08:39:36Z</time>
      </trkpt>
      <trkpt lat="50.65697" lon="3.43463">
        <ele>60.22</ele>
        <time>2015-04-06T08:39:43Z</time>
      </trkpt>
      <trkpt lat="50.65709" lon="3.43466">
        <ele>60.22</ele>
        <time>2015-04-06T08:39:45Z</time>
      </trkpt>
      <trkpt lat="50.65754" lon="3.43488">
        <ele>59.74</ele>
        <time>2015-04-06T08:39:53Z</time>
      </trkpt>
      <trkpt lat="50.65777" lon="3.43499">
        <ele>59.74</ele>
        <time>2015-04-06T08:39:57Z</time>
      </trkpt>
      <trkpt lat="50.65793" lon="3.43506">
        <ele>60.22</ele>
        <time>2015-04-06T08:40:00Z</time>
      </trkpt>
      <trkpt lat="50.65799" lon="3.43505">
        <ele>60.22</ele>
        <time>2015-04-06T08:40:01Z</time>
      </trkpt>
      <trkpt lat="50.65804" lon="3.43501">
        <ele>59.74</ele>
        <time>2015-04-06T08:40:02Z</time>
      </trkpt>
      <trkpt lat="50.65808" lon="3.43495">
        <ele>59.74</ele>
        <time>2015-04-06T08:40:03Z</time>
      </trkpt>
      <trkpt lat="50.65813" lon="3.43487">
        <ele>59.74</ele>
        <time>2015-04-06T08:40:04Z</time>
      </trkpt>
      <trkpt lat="50.65817" lon="3.43479">
        <ele>59.74</ele>
        <time>2015-04-06T08:40:05Z</time>
      </trkpt>
      <trkpt lat="50.6585" lon="3.434">
        <ele>59.74</ele>
        <time>2015-04-06T08:40:14Z</time>
      </trkpt>
      <trkpt lat="50.65853" lon="3.4339">
        <ele>59.74</ele>
        <time>2015-04-06T08:40:15Z</time>
      </trkpt>
      <trkpt lat="50.65875" lon="3.43299">
        <ele>59.26</ele>
        <time>2015-04-06T08:40:24Z</time>
      </trkpt>
      <trkpt lat="50.65894" lon="3.432">
        <ele>59.74</ele>
        <time>2015-04-06T08:40:35Z</time>
      </trkpt>
      <trkpt lat="50.65894" lon="3.43192">
        <ele>60.22</ele>
        <time>2015-04-06T08:40:36Z</time>
      </trkpt>
      <trkpt lat="50.65894" lon="3.43184">
        <ele>60.22</ele>
        <time>2015-04-06T08:40:37Z</time>
      </trkpt>
      <trkpt lat="50.65893" lon="3.43176">
        <ele>60.7</ele>
        <time>2015-04-06T08:40:38Z</time>
      </trkpt>
      <trkpt lat="50.65892" lon="3.43169">
        <ele>60.7</ele>
        <time>2015-04-06T08:40:39Z</time>
      </trkpt>
      <trkpt lat="50.65889" lon="3.43162">
        <ele>61.18</ele>
        <time>2015-04-06T08:40:40Z</time>
      </trkpt>
      <trkpt lat="50.65887" lon="3.43155">
        <ele>61.18</ele>
        <time>2015-04-06T08:40:41Z</time>
      </trkpt>
      <trkpt lat="50.65883" lon="3.4315">
        <ele>61.18</ele>
        <time>2015-04-06T08:40:42Z</time>
      </trkpt>
      <trkpt lat="50.6588" lon="3.43145">
        <ele>61.18</ele>
        <time>2015-04-06T08:40:43Z</time>
      </trkpt>
      <trkpt lat="50.65876" lon="3.43141">
        <ele>61.18</ele>
        <time>2015-04-06T08:40:44Z</time>
      </trkpt>
      <trkpt lat="50.65853" lon="3.43117">
        <ele>61.66</ele>
        <time>2015-04-06T08:40:50Z</time>
      </trkpt>
      <trkpt lat="50.65851" lon="3.4311">
        <ele>62.14</ele>
        <time>2015-04-06T08:40:51Z</time>
      </trkpt>
      <trkpt lat="50.65849" lon="3.43103">
        <ele>62.14</ele>
        <time>2015-04-06T08:40:52Z</time>
      </trkpt>
      <trkpt lat="50.65848" lon="3.43095">
        <ele>62.14</ele>
        <time>2015-04-06T08:40:53Z</time>
      </trkpt>
      <trkpt lat="50.65847" lon="3.43087">
        <ele>62.14</ele>
        <time>2015-04-06T08:40:54Z</time>
      </trkpt>
      <trkpt lat="50.65849" lon="3.43025">
        <ele>62.62</ele>
        <time>2015-04-06T08:41:02Z</time>
      </trkpt>
      <trkpt lat="50.65849" lon="3.43017">
        <ele>63.1</ele>
        <time>2015-04-06T08:41:03Z</time>
      </trkpt>
      <trkpt lat="50.65845" lon="3.42948">
        <ele>63.58</ele>
        <time>2015-04-06T08:41:12Z</time>
      </trkpt>
      <trkpt lat="50.65839" lon="3.42884">
        <ele>65.03</ele>
        <time>2015-04-06T08:41:21Z</time>
      </trkpt>
      <trkpt lat="50.65839" lon="3.42878">
        <ele>65.03</ele>
        <time>2015-04-06T08:41:22Z</time>
      </trkpt>
      <trkpt lat="50.65839" lon="3.42865">
        <ele>65.51</ele>
        <time>2015-04-06T08:41:24Z</time>
      </trkpt>
      <trkpt lat="50.6584" lon="3.42858">
        <ele>65.51</ele>
        <time>2015-04-06T08:41:25Z</time>
      </trkpt>
      <trkpt lat="50.65851" lon="3.42808">
        <ele>66.95</ele>
        <time>2015-04-06T08:41:33Z</time>
      </trkpt>
      <trkpt lat="50.65857" lon="3.4277">
        <ele>67.43</ele>
        <time>2015-04-06T08:41:39Z</time>
      </trkpt>
      <trkpt lat="50.65858" lon="3.42709">
        <ele>68.39</ele>
        <time>2015-04-06T08:41:49Z</time>
      </trkpt>
      <trkpt lat="50.65859" lon="3.42647">
        <ele>69.35</ele>
        <time>2015-04-06T08:41:59Z</time>
      </trkpt>
      <trkpt lat="50.65858" lon="3.42585">
        <ele>70.79</ele>
        <time>2015-04-06T08:42:09Z</time>
      </trkpt>
      <trkpt lat="50.6587" lon="3.42545">
        <ele>71.76</ele>
        <time>2015-04-06T08:42:16Z</time>
      </trkpt>
      <trkpt lat="50.65888" lon="3.42496">
        <ele>72.72</ele>
        <time>2015-04-06T08:42:26Z</time>
      </trkpt>
      <trkpt lat="50.65903" lon="3.42452">
        <ele>74.16</ele>
        <time>2015-04-06T08:42:35Z</time>
      </trkpt>
      <trkpt lat="50.65916" lon="3.42417">
        <ele>75.6</ele>
        <time>2015-04-06T08:42:43Z</time>
      </trkpt>
      <trkpt lat="50.65934" lon="3.42389">
        <ele>75.6</ele>
        <time>2015-04-06T08:42:51Z</time>
      </trkpt>
      <trkpt lat="50.65953" lon="3.42371">
        <ele>75.12</ele>
        <time>2015-04-06T08:42:58Z</time>
      </trkpt>
      <trkpt lat="50.65967" lon="3.42336">
        <ele>75.12</ele>
        <time>2015-04-06T08:43:05Z</time>
      </trkpt>
      <trkpt lat="50.65975" lon="3.42313">
        <ele>75.12</ele>
        <time>2015-04-06T08:43:09Z</time>
      </trkpt>
      <trkpt lat="50.6599" lon="3.42262">
        <ele>74.16</ele>
        <time>2015-04-06T08:43:16Z</time>
      </trkpt>
      <trkpt lat="50.66009" lon="3.4219">
        <ele>71.76</ele>
        <time>2015-04-06T08:43:24Z</time>
      </trkpt>
      <trkpt lat="50.66041" lon="3.42105">
        <ele>69.35</ele>
        <time>2015-04-06T08:43:33Z</time>
      </trkpt>
      <trkpt lat="50.66052" lon="3.42062">
        <ele>69.35</ele>
        <time>2015-04-06T08:43:37Z</time>
      </trkpt>
      <trkpt lat="50.66055" lon="3.4203">
        <ele>68.87</ele>
        <time>2015-04-06T08:43:40Z</time>
      </trkpt>
      <trkpt lat="50.66056" lon="3.41998">
        <ele>68.87</ele>
        <time>2015-04-06T08:43:43Z</time>
      </trkpt>
      <trkpt lat="50.66068" lon="3.41913">
        <ele>68.87</ele>
        <time>2015-04-06T08:43:51Z</time>
      </trkpt>
      <trkpt lat="50.66084" lon="3.41814">
        <ele>67.91</ele>
        <time>2015-04-06T08:44:01Z</time>
      </trkpt>
      <trkpt lat="50.66095" lon="3.4175">
        <ele>67.43</ele>
        <time>2015-04-06T08:44:09Z</time>
      </trkpt>
      <trkpt lat="50.66098" lon="3.41736">
        <ele>67.43</ele>
        <time>2015-04-06T08:44:11Z</time>
      </trkpt>
      <trkpt lat="50.66105" lon="3.41669">
        <ele>67.43</ele>
        <time>2015-04-06T08:44:21Z</time>
      </trkpt>
      <trkpt lat="50.66115" lon="3.41592">
        <ele>67.43</ele>
        <time>2015-04-06T08:44:32Z</time>
      </trkpt>
      <trkpt lat="50.66115" lon="3.4157">
        <ele>67.43</ele>
        <time>2015-04-06T08:44:35Z</time>
      </trkpt>
      <trkpt lat="50.66114" lon="3.41564">
        <ele>67.43</ele>
        <time>2015-04-06T08:44:36Z</time>
      </trkpt>
      <trkpt lat="50.66112" lon="3.41557">
        <ele>67.43</ele>
        <time>2015-04-06T08:44:37Z</time>
      </trkpt>
      <trkpt lat="50.66109" lon="3.41552">
        <ele>67.43</ele>
        <time>2015-04-06T08:44:38Z</time>
      </trkpt>
      <trkpt lat="50.66106" lon="3.41547">
        <ele>67.43</ele>
        <time>2015-04-06T08:44:39Z</time>
      </trkpt>
      <trkpt lat="50.66103" lon="3.41543">
        <ele>67.43</ele>
        <time>2015-04-06T08:44:40Z</time>
      </trkpt>
      <trkpt lat="50.66099" lon="3.4154">
        <ele>67.43</ele>
        <time>2015-04-06T08:44:41Z</time>
      </trkpt>
      <trkpt lat="50.66095" lon="3.41537">
        <ele>67.43</ele>
        <time>2015-04-06T08:44:42Z</time>
      </trkpt>
      <trkpt lat="50.66091" lon="3.41536">
        <ele>67.91</ele>
        <time>2015-04-06T08:44:43Z</time>
      </trkpt>
      <trkpt lat="50.66087" lon="3.41536">
        <ele>67.91</ele>
        <time>2015-04-06T08:44:44Z</time>
      </trkpt>
      <trkpt lat="50.66084" lon="3.41537">
        <ele>68.39</ele>
        <time>2015-04-06T08:44:45Z</time>
      </trkpt>
      <trkpt lat="50.6608" lon="3.41538">
        <ele>68.39</ele>
        <time>2015-04-06T08:44:46Z</time>
      </trkpt>
      <trkpt lat="50.66077" lon="3.41539">
        <ele>68.87</ele>
        <time>2015-04-06T08:44:47Z</time>
      </trkpt>
      <trkpt lat="50.66075" lon="3.41539">
        <ele>68.87</ele>
        <time>2015-04-06T08:44:48Z</time>
      </trkpt>
      <trkpt lat="50.66048" lon="3.4154">
        <ele>70.31</ele>
        <time>2015-04-06T08:44:55Z</time>
      </trkpt>
      <trkpt lat="50.66044" lon="3.41541">
        <ele>70.31</ele>
        <time>2015-04-06T08:44:56Z</time>
      </trkpt>
      <trkpt lat="50.66039" lon="3.41541">
        <ele>70.79</ele>
        <time>2015-04-06T08:44:57Z</time>
      </trkpt>
      <trkpt lat="50.66007" lon="3.41541">
        <ele>72.72</ele>
        <time>2015-04-06T08:45:06Z</time>
      </trkpt>
      <trkpt lat="50.6598" lon="3.41542">
        <ele>74.16</ele>
        <time>2015-04-06T08:45:14Z</time>
      </trkpt>
      <trkpt lat="50.65953" lon="3.41544">
        <ele>75.6</ele>
        <time>2015-04-06T08:45:22Z</time>
      </trkpt>
      <trkpt lat="50.65929" lon="3.41546">
        <ele>77.04</ele>
        <time>2015-04-06T08:45:30Z</time>
      </trkpt>
      <trkpt lat="50.65907" lon="3.41547">
        <ele>78</ele>
        <time>2015-04-06T08:45:37Z</time>
      </trkpt>
      <trkpt lat="50.65886" lon="3.41548">
        <ele>78.48</ele>
        <time>2015-04-06T08:45:44Z</time>
      </trkpt>
      <trkpt lat="50.65862" lon="3.41546">
        <ele>80.41</ele>
        <time>2015-04-06T08:45:52Z</time>
      </trkpt>
      <trkpt lat="50.65836" lon="3.4154">
        <ele>81.37</ele>
        <time>2015-04-06T08:46:01Z</time>
      </trkpt>
      <trkpt lat="50.65811" lon="3.41534">
        <ele>81.85</ele>
        <time>2015-04-06T08:46:10Z</time>
      </trkpt>
      <trkpt lat="50.65787" lon="3.41526">
        <ele>82.81</ele>
        <time>2015-04-06T08:46:19Z</time>
      </trkpt>
      <trkpt lat="50.65765" lon="3.41521">
        <ele>84.25</ele>
        <time>2015-04-06T08:46:27Z</time>
      </trkpt>
      <trkpt lat="50.65741" lon="3.41515">
        <ele>84.73</ele>
        <time>2015-04-06T08:46:36Z</time>
      </trkpt>
      <trkpt lat="50.65718" lon="3.41512">
        <ele>85.69</ele>
        <time>2015-04-06T08:46:44Z</time>
      </trkpt>
      <trkpt lat="50.65693" lon="3.41513">
        <ele>87.14</ele>
        <time>2015-04-06T08:46:53Z</time>
      </trkpt>
      <trkpt lat="50.65668" lon="3.41517">
        <ele>87.14</ele>
        <time>2015-04-06T08:47:02Z</time>
      </trkpt>
      <trkpt lat="50.65643" lon="3.41521">
        <ele>89.54</ele>
        <time>2015-04-06T08:47:10Z</time>
      </trkpt>
      <trkpt lat="50.65618" lon="3.41524">
        <ele>92.42</ele>
        <time>2015-04-06T08:47:19Z</time>
      </trkpt>
      <trkpt lat="50.65593" lon="3.41525">
        <ele>93.39</ele>
        <time>2015-04-06T08:47:28Z</time>
      </trkpt>
      <trkpt lat="50.65572" lon="3.41513">
        <ele>94.83</ele>
        <time>2015-04-06T08:47:36Z</time>
      </trkpt>
      <trkpt lat="50.65561" lon="3.41494">
        <ele>95.79</ele>
        <time>2015-04-06T08:47:42Z</time>
      </trkpt>
      <trkpt lat="50.65549" lon="3.41453">
        <ele>97.23</ele>
        <time>2015-04-06T08:47:52Z</time>
      </trkpt>
      <trkpt lat="50.6554" lon="3.41419">
        <ele>98.19</ele>
        <time>2015-04-06T08:48:00Z</time>
      </trkpt>
      <trkpt lat="50.65531" lon="3.41387">
        <ele>99.15</ele>
        <time>2015-04-06T08:48:08Z</time>
      </trkpt>
      <trkpt lat="50.65519" lon="3.41346">
        <ele>100.11</ele>
        <time>2015-04-06T08:48:18Z</time>
      </trkpt>
      <trkpt lat="50.65511" lon="3.4131">
        <ele>99.63</ele>
        <time>2015-04-06T08:48:26Z</time>
      </trkpt>
      <trkpt lat="50.65506" lon="3.4128">
        <ele>99.15</ele>
        <time>2015-04-06T08:48:34Z</time>
      </trkpt>
      <trkpt lat="50.65502" lon="3.41256">
        <ele>99.15</ele>
        <time>2015-04-06T08:48:41Z</time>
      </trkpt>
      <trkpt lat="50.65498" lon="3.41219">
        <ele>98.67</ele>
        <time>2015-04-06T08:48:48Z</time>
      </trkpt>
      <trkpt lat="50.65495" lon="3.41192">
        <ele>98.19</ele>
        <time>2015-04-06T08:48:52Z</time>
      </trkpt>
      <trkpt lat="50.65493" lon="3.41184">
        <ele>98.19</ele>
        <time>2015-04-06T08:48:53Z</time>
      </trkpt>
      <trkpt lat="50.65479" lon="3.41111">
        <ele>96.75</ele>
        <time>2015-04-06T08:49:02Z</time>
      </trkpt>
      <trkpt lat="50.65456" lon="3.41051">
        <ele>94.83</ele>
        <time>2015-04-06T08:49:09Z</time>
      </trkpt>
      <trkpt lat="50.65429" lon="3.40987">
        <ele>93.87</ele>
        <time>2015-04-06T08:49:16Z</time>
      </trkpt>
      <trkpt lat="50.65402" lon="3.40922">
        <ele>93.39</ele>
        <time>2015-04-06T08:49:24Z</time>
      </trkpt>
      <trkpt lat="50.65395" lon="3.40906">
        <ele>93.39</ele>
        <time>2015-04-06T08:49:26Z</time>
      </trkpt>
      <trkpt lat="50.65389" lon="3.40891">
        <ele>93.39</ele>
        <time>2015-04-06T08:49:28Z</time>
      </trkpt>
      <trkpt lat="50.65387" lon="3.40884">
        <ele>93.87</ele>
        <time>2015-04-06T08:49:29Z</time>
      </trkpt>
      <trkpt lat="50.65381" lon="3.4087">
        <ele>93.39</ele>
        <time>2015-04-06T08:49:31Z</time>
      </trkpt>
      <trkpt lat="50.65377" lon="3.40857">
        <ele>93.87</ele>
        <time>2015-04-06T08:49:33Z</time>
      </trkpt>
      <trkpt lat="50.65353" lon="3.40798">
        <ele>95.31</ele>
        <time>2015-04-06T08:49:43Z</time>
      </trkpt>
      <trkpt lat="50.65341" lon="3.40767">
        <ele>96.27</ele>
        <time>2015-04-06T08:49:50Z</time>
      </trkpt>
      <trkpt lat="50.65325" lon="3.40729">
        <ele>98.19</ele>
        <time>2015-04-06T08:49:59Z</time>
      </trkpt>
      <trkpt lat="50.65312" lon="3.407">
        <ele>97.71</ele>
        <time>2015-04-06T08:50:05Z</time>
      </trkpt>
      <trkpt lat="50.65287" lon="3.40653">
        <ele>95.31</ele>
        <time>2015-04-06T08:50:12Z</time>
      </trkpt>
      <trkpt lat="50.65245" lon="3.40581">
        <ele>93.39</ele>
        <time>2015-04-06T08:50:21Z</time>
      </trkpt>
      <trkpt lat="50.65231" lon="3.40554">
        <ele>92.42</ele>
        <time>2015-04-06T08:50:24Z</time>
      </trkpt>
      <trkpt lat="50.65228" lon="3.40543">
        <ele>91.94</ele>
        <time>2015-04-06T08:50:25Z</time>
      </trkpt>
      <trkpt lat="50.65227" lon="3.40532">
        <ele>91.46</ele>
        <time>2015-04-06T08:50:26Z</time>
      </trkpt>
      <trkpt lat="50.65228" lon="3.40521">
        <ele>91.46</ele>
        <time>2015-04-06T08:50:27Z</time>
      </trkpt>
      <trkpt lat="50.65232" lon="3.40513">
        <ele>91.46</ele>
        <time>2015-04-06T08:50:28Z</time>
      </trkpt>
      <trkpt lat="50.65236" lon="3.40506">
        <ele>91.94</ele>
        <time>2015-04-06T08:50:29Z</time>
      </trkpt>
      <trkpt lat="50.65241" lon="3.40501">
        <ele>91.94</ele>
        <time>2015-04-06T08:50:30Z</time>
      </trkpt>
      <trkpt lat="50.65245" lon="3.40497">
        <ele>92.42</ele>
        <time>2015-04-06T08:50:31Z</time>
      </trkpt>
      <trkpt lat="50.65248" lon="3.40495">
        <ele>92.9</ele>
        <time>2015-04-06T08:50:32Z</time>
      </trkpt>
      <trkpt lat="50.65251" lon="3.40493">
        <ele>93.39</ele>
        <time>2015-04-06T08:50:33Z</time>
      </trkpt>
      <trkpt lat="50.65255" lon="3.40492">
        <ele>93.87</ele>
        <time>2015-04-06T08:50:34Z</time>
      </trkpt>
      <trkpt lat="50.65271" lon="3.40486">
        <ele>96.75</ele>
        <time>2015-04-06T08:50:41Z</time>
      </trkpt>
      <trkpt lat="50.65289" lon="3.4048">
        <ele>99.63</ele>
        <time>2015-04-06T08:50:48Z</time>
      </trkpt>
      <trkpt lat="50.65305" lon="3.40474">
        <ele>102.04</ele>
        <time>2015-04-06T08:50:55Z</time>
      </trkpt>
      <trkpt lat="50.65324" lon="3.40469">
        <ele>104.44</ele>
        <time>2015-04-06T08:51:03Z</time>
      </trkpt>
      <trkpt lat="50.65344" lon="3.40463">
        <ele>105.88</ele>
        <time>2015-04-06T08:51:12Z</time>
      </trkpt>
      <trkpt lat="50.65359" lon="3.40456">
        <ele>107.32</ele>
        <time>2015-04-06T08:51:19Z</time>
      </trkpt>
      <trkpt lat="50.65377" lon="3.40451">
        <ele>108.77</ele>
        <time>2015-04-06T08:51:27Z</time>
      </trkpt>
      <trkpt lat="50.65379" lon="3.40452">
        <ele>109.25</ele>
        <time>2015-04-06T08:51:28Z</time>
      </trkpt>
      <trkpt lat="50.65384" lon="3.40453">
        <ele>108.77</ele>
        <time>2015-04-06T08:51:34Z</time>
      </trkpt>
      <trkpt lat="50.65386" lon="3.40452">
        <ele>108.77</ele>
        <time>2015-04-06T08:51:43Z</time>
      </trkpt>
      <trkpt lat="50.65395" lon="3.40448">
        <ele>110.21</ele>
        <time>2015-04-06T08:51:53Z</time>
      </trkpt>
      <trkpt lat="50.65396" lon="3.40447">
        <ele>110.21</ele>
        <time>2015-04-06T08:51:54Z</time>
      </trkpt>
      <trkpt lat="50.65399" lon="3.40445">
        <ele>111.17</ele>
        <time>2015-04-06T08:51:58Z</time>
      </trkpt>
      <trkpt lat="50.654" lon="3.40445">
        <ele>111.17</ele>
        <time>2015-04-06T08:51:59Z</time>
      </trkpt>
      <trkpt lat="50.65408" lon="3.40445">
        <ele>109.25</ele>
        <time>2015-04-06T08:52:07Z</time>
      </trkpt>
      <trkpt lat="50.65409" lon="3.40445">
        <ele>108.29</ele>
        <time>2015-04-06T08:52:08Z</time>
      </trkpt>
      <trkpt lat="50.65416" lon="3.40446">
        <ele>107.32</ele>
        <time>2015-04-06T08:52:14Z</time>
      </trkpt>
      <trkpt lat="50.65417" lon="3.40446">
        <ele>107.32</ele>
        <time>2015-04-06T08:52:15Z</time>
      </trkpt>
      <trkpt lat="50.65419" lon="3.40446">
        <ele>107.32</ele>
        <time>2015-04-06T08:52:16Z</time>
      </trkpt>
      <trkpt lat="50.6542" lon="3.40446">
        <ele>108.29</ele>
        <time>2015-04-06T08:52:17Z</time>
      </trkpt>
      <trkpt lat="50.65425" lon="3.40445">
        <ele>109.73</ele>
        <time>2015-04-06T08:52:24Z</time>
      </trkpt>
      <trkpt lat="50.65425" lon="3.40443">
        <ele>109.73</ele>
        <time>2015-04-06T08:52:30Z</time>
      </trkpt>
      <trkpt lat="50.6543" lon="3.40441">
        <ele>110.21</ele>
        <time>2015-04-06T08:52:38Z</time>
      </trkpt>
      <trkpt lat="50.65431" lon="3.4044">
        <ele>111.17</ele>
        <time>2015-04-06T08:52:46Z</time>
      </trkpt>
      <trkpt lat="50.65431" lon="3.40439">
        <ele>112.13</ele>
        <time>2015-04-06T08:52:52Z</time>
      </trkpt>
      <trkpt lat="50.65431" lon="3.40439">
        <ele>112.13</ele>
        <time>2015-04-06T08:53:00Z</time>
      </trkpt>
      <trkpt lat="50.65436" lon="3.40436">
        <ele>113.09</ele>
        <time>2015-04-06T08:53:08Z</time>
      </trkpt>
      <trkpt lat="50.65449" lon="3.40431">
        <ele>115.01</ele>
        <time>2015-04-06T08:53:14Z</time>
      </trkpt>
      <trkpt lat="50.65471" lon="3.4042">
        <ele>118.86</ele>
        <time>2015-04-06T08:53:24Z</time>
      </trkpt>
      <trkpt lat="50.6548" lon="3.40399">
        <ele>120.78</ele>
        <time>2015-04-06T08:53:31Z</time>
      </trkpt>
      <trkpt lat="50.65485" lon="3.40369">
        <ele>124.15</ele>
        <time>2015-04-06T08:53:39Z</time>
      </trkpt>
      <trkpt lat="50.65487" lon="3.40344">
        <ele>127.51</ele>
        <time>2015-04-06T08:53:46Z</time>
      </trkpt>
      <trkpt lat="50.6549" lon="3.40318">
        <ele>129.92</ele>
        <time>2015-04-06T08:53:54Z</time>
      </trkpt>
      <trkpt lat="50.65494" lon="3.40297">
        <ele>131.36</ele>
        <time>2015-04-06T08:54:01Z</time>
      </trkpt>
      <trkpt lat="50.65496" lon="3.40272">
        <ele>133.76</ele>
        <time>2015-04-06T08:54:09Z</time>
      </trkpt>
      <trkpt lat="50.65497" lon="3.4024">
        <ele>136.16</ele>
        <time>2015-04-06T08:54:19Z</time>
      </trkpt>
      <trkpt lat="50.65498" lon="3.40216">
        <ele>136.64</ele>
        <time>2015-04-06T08:54:26Z</time>
      </trkpt>
      <trkpt lat="50.65496" lon="3.40182">
        <ele>137.13</ele>
        <time>2015-04-06T08:54:36Z</time>
      </trkpt>
      <trkpt lat="50.65495" lon="3.40156">
        <ele>136.64</ele>
        <time>2015-04-06T08:54:44Z</time>
      </trkpt>
      <trkpt lat="50.65493" lon="3.40131">
        <ele>137.61</ele>
        <time>2015-04-06T08:54:51Z</time>
      </trkpt>
      <trkpt lat="50.65493" lon="3.40104">
        <ele>138.57</ele>
        <time>2015-04-06T08:54:59Z</time>
      </trkpt>
      <trkpt lat="50.65495" lon="3.40072">
        <ele>139.05</ele>
        <time>2015-04-06T08:55:08Z</time>
      </trkpt>
      <trkpt lat="50.65495" lon="3.4004">
        <ele>141.93</ele>
        <time>2015-04-06T08:55:17Z</time>
      </trkpt>
      <trkpt lat="50.65496" lon="3.40017">
        <ele>144.82</ele>
        <time>2015-04-06T08:55:24Z</time>
      </trkpt>
      <trkpt lat="50.65497" lon="3.39998">
        <ele>146.26</ele>
        <time>2015-04-06T08:55:31Z</time>
      </trkpt>
      <trkpt lat="50.65497" lon="3.39979">
        <ele>146.74</ele>
        <time>2015-04-06T08:55:39Z</time>
      </trkpt>
      <trkpt lat="50.65498" lon="3.3997">
        <ele>145.78</ele>
        <time>2015-04-06T08:55:46Z</time>
      </trkpt>
      <trkpt lat="50.65498" lon="3.39969">
        <ele>145.3</ele>
        <time>2015-04-06T08:55:58Z</time>
      </trkpt>
      <trkpt lat="50.65498" lon="3.3997">
        <ele>145.3</ele>
        <time>2015-04-06T08:56:06Z</time>
      </trkpt>
      <trkpt lat="50.65499" lon="3.3997">
        <ele>144.82</ele>
        <time>2015-04-06T08:56:11Z</time>
      </trkpt>
      <trkpt lat="50.655" lon="3.39971">
        <ele>144.34</ele>
        <time>2015-04-06T08:56:21Z</time>
      </trkpt>
      <trkpt lat="50.65499" lon="3.39972">
        <ele>144.82</ele>
        <time>2015-04-06T08:56:36Z</time>
      </trkpt>
      <trkpt lat="50.65499" lon="3.39973">
        <ele>144.82</ele>
        <time>2015-04-06T08:56:54Z</time>
      </trkpt>
      <trkpt lat="50.655" lon="3.39971">
        <ele>144.82</ele>
        <time>2015-04-06T08:57:08Z</time>
      </trkpt>
      <trkpt lat="50.655" lon="3.39971">
        <ele>145.78</ele>
        <time>2015-04-06T08:57:23Z</time>
      </trkpt>
      <trkpt lat="50.65499" lon="3.39973">
        <ele>147.22</ele>
        <time>2015-04-06T08:57:42Z</time>
      </trkpt>
      <trkpt lat="50.65499" lon="3.39973">
        <ele>146.26</ele>
        <time>2015-04-06T08:58:00Z</time>
      </trkpt>
      <trkpt lat="50.655" lon="3.39973">
        <ele>146.74</ele>
        <time>2015-04-06T08:58:20Z</time>
      </trkpt>
      <trkpt lat="50.655" lon="3.39972">
        <ele>146.74</ele>
        <time>2015-04-06T08:58:36Z</time>
      </trkpt>
      <trkpt lat="50.65499" lon="3.39972">
        <ele>147.22</ele>
        <time>2015-04-06T08:58:56Z</time>
      </trkpt>
      <trkpt lat="50.65499" lon="3.39972">
        <ele>146.26</ele>
        <time>2015-04-06T08:59:15Z</time>
      </trkpt>
      <trkpt lat="50.65499" lon="3.39974">
        <ele>146.26</ele>
        <time>2015-04-06T08:59:39Z</time>
      </trkpt>
      <trkpt lat="50.65499" lon="3.39973">
        <ele>146.74</ele>
        <time>2015-04-06T09:00:02Z</time>
      </trkpt>
      <trkpt lat="50.65499" lon="3.39973">
        <ele>146.74</ele>
        <time>2015-04-06T09:00:24Z</time>
      </trkpt>
      <trkpt lat="50.65499" lon="3.39972">
        <ele>146.26</ele>
        <time>2015-04-06T09:00:41Z</time>
      </trkpt>
      <trkpt lat="50.65499" lon="3.39973">
        <ele>145.3</ele>
        <time>2015-04-06T09:01:02Z</time>
      </trkpt>
      <trkpt lat="50.65498" lon="3.39975">
        <ele>145.3</ele>
        <time>2015-04-06T09:01:20Z</time>
      </trkpt>
      <trkpt lat="50.65498" lon="3.39974">
        <ele>145.3</ele>
        <time>2015-04-06T09:01:41Z</time>
      </trkpt>
      <trkpt lat="50.65498" lon="3.39973">
        <ele>146.26</ele>
        <time>2015-04-06T09:02:00Z</time>
      </trkpt>
      <trkpt lat="50.65498" lon="3.39971">
        <ele>147.7</ele>
        <time>2015-04-06T09:02:19Z</time>
      </trkpt>
      <trkpt lat="50.65498" lon="3.39972">
        <ele>147.7</ele>
        <time>2015-04-06T09:02:41Z</time>
      </trkpt>
      <trkpt lat="50.65498" lon="3.39973">
        <ele>146.26</ele>
        <time>2015-04-06T09:03:01Z</time>
      </trkpt>
      <trkpt lat="50.65498" lon="3.39973">
        <ele>146.26</ele>
        <time>2015-04-06T09:03:11Z</time>
      </trkpt>
      <trkpt lat="50.65499" lon="3.39973">
        <ele>145.78</ele>
        <time>2015-04-06T09:03:29Z</time>
      </trkpt>
      <trkpt lat="50.65499" lon="3.39973">
        <ele>145.78</ele>
        <time>2015-04-06T09:03:40Z</time>
      </trkpt>
      <trkpt lat="50.65499" lon="3.39973">
        <ele>145.78</ele>
        <time>2015-04-06T09:03:53Z</time>
      </trkpt>
      <trkpt lat="50.65499" lon="3.39973">
        <ele>145.3</ele>
        <time>2015-04-06T09:04:03Z</time>
      </trkpt>
      <trkpt lat="50.65499" lon="3.39974">
        <ele>144.82</ele>
        <time>2015-04-06T09:04:17Z</time>
      </trkpt>
      <trkpt lat="50.65499" lon="3.39974">
        <ele>144.34</ele>
        <time>2015-04-06T09:04:35Z</time>
      </trkpt>
      <trkpt lat="50.65499" lon="3.39974">
        <ele>143.85</ele>
        <time>2015-04-06T09:04:52Z</time>
      </trkpt>
      <trkpt lat="50.65499" lon="3.39974">
        <ele>143.37</ele>
        <time>2015-04-06T09:05:08Z</time>
      </trkpt>
      <trkpt lat="50.65499" lon="3.39973">
        <ele>143.37</ele>
        <time>2015-04-06T09:05:23Z</time>
      </trkpt>
      <trkpt lat="50.655" lon="3.39974">
        <ele>142.89</ele>
        <time>2015-04-06T09:05:37Z</time>
      </trkpt>
      <trkpt lat="50.655" lon="3.39974">
        <ele>142.89</ele>
        <time>2015-04-06T09:05:55Z</time>
      </trkpt>
      <trkpt lat="50.655" lon="3.39975">
        <ele>142.41</ele>
        <time>2015-04-06T09:06:10Z</time>
      </trkpt>
      <trkpt lat="50.65499" lon="3.39975">
        <ele>141.93</ele>
        <time>2015-04-06T09:06:24Z</time>
      </trkpt>
      <trkpt lat="50.65499" lon="3.39975">
        <ele>142.41</ele>
        <time>2015-04-06T09:06:35Z</time>
      </trkpt>
      <trkpt lat="50.65499" lon="3.39975">
        <ele>142.41</ele>
        <time>2015-04-06T09:06:47Z</time>
      </trkpt>
      <trkpt lat="50.65499" lon="3.39975">
        <ele>142.41</ele>
        <time>2015-04-06T09:06:59Z</time>
      </trkpt>
      <trkpt lat="50.65498" lon="3.39974">
        <ele>142.41</ele>
        <time>2015-04-06T09:07:08Z</time>
      </trkpt>
      <trkpt lat="50.65497" lon="3.39974">
        <ele>141.93</ele>
        <time>2015-04-06T09:07:21Z</time>
      </trkpt>
      <trkpt lat="50.65497" lon="3.39975">
        <ele>141.45</ele>
        <time>2015-04-06T09:07:29Z</time>
      </trkpt>
      <trkpt lat="50.65497" lon="3.39975">
        <ele>141.45</ele>
        <time>2015-04-06T09:07:38Z</time>
      </trkpt>
      <trkpt lat="50.65498" lon="3.39977">
        <ele>141.45</ele>
        <time>2015-04-06T09:07:39Z</time>
      </trkpt>
      <trkpt lat="50.65497" lon="3.3999">
        <ele>141.93</ele>
        <time>2015-04-06T09:07:46Z</time>
      </trkpt>
      <trkpt lat="50.65497" lon="3.40004">
        <ele>141.45</ele>
        <time>2015-04-06T09:07:52Z</time>
      </trkpt>
      <trkpt lat="50.65497" lon="3.40007">
        <ele>141.45</ele>
        <time>2015-04-06T09:07:53Z</time>
      </trkpt>
      <trkpt lat="50.65497" lon="3.40009">
        <ele>141.45</ele>
        <time>2015-04-06T09:07:54Z</time>
      </trkpt>
      <trkpt lat="50.65496" lon="3.40012">
        <ele>141.45</ele>
        <time>2015-04-06T09:07:55Z</time>
      </trkpt>
      <trkpt lat="50.65496" lon="3.40016">
        <ele>141.45</ele>
        <time>2015-04-06T09:07:56Z</time>
      </trkpt>
      <trkpt lat="50.65496" lon="3.40044">
        <ele>140.49</ele>
        <time>2015-04-06T09:08:03Z</time>
      </trkpt>
      <trkpt lat="50.65494" lon="3.40087">
        <ele>139.53</ele>
        <time>2015-04-06T09:08:11Z</time>
      </trkpt>
      <trkpt lat="50.65495" lon="3.40136">
        <ele>138.09</ele>
        <time>2015-04-06T09:08:18Z</time>
      </trkpt>
      <trkpt lat="50.65497" lon="3.40195">
        <ele>135.2</ele>
        <time>2015-04-06T09:08:27Z</time>
      </trkpt>
      <trkpt lat="50.65497" lon="3.40233">
        <ele>133.76</ele>
        <time>2015-04-06T09:08:34Z</time>
      </trkpt>
      <trkpt lat="50.65499" lon="3.40238">
        <ele>133.28</ele>
        <time>2015-04-06T09:08:35Z</time>
      </trkpt>
      <trkpt lat="50.65503" lon="3.4024">
        <ele>132.8</ele>
        <time>2015-04-06T09:08:36Z</time>
      </trkpt>
      <trkpt lat="50.65512" lon="3.4024">
        <ele>131.36</ele>
        <time>2015-04-06T09:08:40Z</time>
      </trkpt>
      <trkpt lat="50.65523" lon="3.40222">
        <ele>130.88</ele>
        <time>2015-04-06T09:08:48Z</time>
      </trkpt>
      <trkpt lat="50.6553" lon="3.40202">
        <ele>131.36</ele>
        <time>2015-04-06T09:08:57Z</time>
      </trkpt>
      <trkpt lat="50.6554" lon="3.40187">
        <ele>131.84</ele>
        <time>2015-04-06T09:09:03Z</time>
      </trkpt>
      <trkpt lat="50.65547" lon="3.40171">
        <ele>132.32</ele>
        <time>2015-04-06T09:09:09Z</time>
      </trkpt>
      <trkpt lat="50.65552" lon="3.40145">
        <ele>132.32</ele>
        <time>2015-04-06T09:09:16Z</time>
      </trkpt>
      <trkpt lat="50.65556" lon="3.40107">
        <ele>131.84</ele>
        <time>2015-04-06T09:09:22Z</time>
      </trkpt>
      <trkpt lat="50.65558" lon="3.40093">
        <ele>131.36</ele>
        <time>2015-04-06T09:09:24Z</time>
      </trkpt>
      <trkpt lat="50.65559" lon="3.40084">
        <ele>131.36</ele>
        <time>2015-04-06T09:09:25Z</time>
      </trkpt>
      <trkpt lat="50.65563" lon="3.4002">
        <ele>130.4</ele>
        <time>2015-04-06T09:09:32Z</time>
      </trkpt>
      <trkpt lat="50.65568" lon="3.39965">
        <ele>129.92</ele>
        <time>2015-04-06T09:09:40Z</time>
      </trkpt>
      <trkpt lat="50.65573" lon="3.39936">
        <ele>127.99</ele>
        <time>2015-04-06T09:09:47Z</time>
      </trkpt>
      <trkpt lat="50.65576" lon="3.39911">
        <ele>128.95</ele>
        <time>2015-04-06T09:09:55Z</time>
      </trkpt>
      <trkpt lat="50.65577" lon="3.39907">
        <ele>128.95</ele>
        <time>2015-04-06T09:09:56Z</time>
      </trkpt>
      <trkpt lat="50.65578" lon="3.39903">
        <ele>128.95</ele>
        <time>2015-04-06T09:09:57Z</time>
      </trkpt>
      <trkpt lat="50.6558" lon="3.39898">
        <ele>128.95</ele>
        <time>2015-04-06T09:09:58Z</time>
      </trkpt>
      <trkpt lat="50.65581" lon="3.39894">
        <ele>128.95</ele>
        <time>2015-04-06T09:09:59Z</time>
      </trkpt>
      <trkpt lat="50.65582" lon="3.39889">
        <ele>128.47</ele>
        <time>2015-04-06T09:10:00Z</time>
      </trkpt>
      <trkpt lat="50.65592" lon="3.39858">
        <ele>126.07</ele>
        <time>2015-04-06T09:10:08Z</time>
      </trkpt>
      <trkpt lat="50.65596" lon="3.39826">
        <ele>125.11</ele>
        <time>2015-04-06T09:10:15Z</time>
      </trkpt>
      <trkpt lat="50.65592" lon="3.39806">
        <ele>123.19</ele>
        <time>2015-04-06T09:10:22Z</time>
      </trkpt>
      <trkpt lat="50.65591" lon="3.39803">
        <ele>123.19</ele>
        <time>2015-04-06T09:10:23Z</time>
      </trkpt>
      <trkpt lat="50.65587" lon="3.3978">
        <ele>121.74</ele>
        <time>2015-04-06T09:10:30Z</time>
      </trkpt>
      <trkpt lat="50.65582" lon="3.39746">
        <ele>120.3</ele>
        <time>2015-04-06T09:10:39Z</time>
      </trkpt>
      <trkpt lat="50.65577" lon="3.39725">
        <ele>119.34</ele>
        <time>2015-04-06T09:10:46Z</time>
      </trkpt>
      <trkpt lat="50.65574" lon="3.39699">
        <ele>118.38</ele>
        <time>2015-04-06T09:10:54Z</time>
      </trkpt>
      <trkpt lat="50.65574" lon="3.39697">
        <ele>118.38</ele>
        <time>2015-04-06T09:10:55Z</time>
      </trkpt>
      <trkpt lat="50.65575" lon="3.39695">
        <ele>118.38</ele>
        <time>2015-04-06T09:10:56Z</time>
      </trkpt>
      <trkpt lat="50.65574" lon="3.39691">
        <ele>118.38</ele>
        <time>2015-04-06T09:11:02Z</time>
      </trkpt>
      <trkpt lat="50.65574" lon="3.3969">
        <ele>118.38</ele>
        <time>2015-04-06T09:11:03Z</time>
      </trkpt>
      <trkpt lat="50.65573" lon="3.39688">
        <ele>117.9</ele>
        <time>2015-04-06T09:11:04Z</time>
      </trkpt>
      <trkpt lat="50.65571" lon="3.39688">
        <ele>117.9</ele>
        <time>2015-04-06T09:11:05Z</time>
      </trkpt>
      <trkpt lat="50.6557" lon="3.3969">
        <ele>117.42</ele>
        <time>2015-04-06T09:11:07Z</time>
      </trkpt>
      <trkpt lat="50.65569" lon="3.39692">
        <ele>117.42</ele>
        <time>2015-04-06T09:11:08Z</time>
      </trkpt>
      <trkpt lat="50.65561" lon="3.39703">
        <ele>116.46</ele>
        <time>2015-04-06T09:11:13Z</time>
      </trkpt>
      <trkpt lat="50.65559" lon="3.39706">
        <ele>115.01</ele>
        <time>2015-04-06T09:11:18Z</time>
      </trkpt>
      <trkpt lat="50.65559" lon="3.39708">
        <ele>114.05</ele>
        <time>2015-04-06T09:11:25Z</time>
      </trkpt>
      <trkpt lat="50.65548" lon="3.39719">
        <ele>112.13</ele>
        <time>2015-04-06T09:11:30Z</time>
      </trkpt>
      <trkpt lat="50.65534" lon="3.3972">
        <ele>109.73</ele>
        <time>2015-04-06T09:11:34Z</time>
      </trkpt>
      <trkpt lat="50.65531" lon="3.39717">
        <ele>109.25</ele>
        <time>2015-04-06T09:11:35Z</time>
      </trkpt>
      <trkpt lat="50.65527" lon="3.39711">
        <ele>108.29</ele>
        <time>2015-04-06T09:11:36Z</time>
      </trkpt>
      <trkpt lat="50.65523" lon="3.39705">
        <ele>107.81</ele>
        <time>2015-04-06T09:11:37Z</time>
      </trkpt>
      <trkpt lat="50.6552" lon="3.39698">
        <ele>106.84</ele>
        <time>2015-04-06T09:11:38Z</time>
      </trkpt>
      <trkpt lat="50.65513" lon="3.39684">
        <ele>104.92</ele>
        <time>2015-04-06T09:11:40Z</time>
      </trkpt>
      <trkpt lat="50.65509" lon="3.39679">
        <ele>104.44</ele>
        <time>2015-04-06T09:11:41Z</time>
      </trkpt>
      <trkpt lat="50.65478" lon="3.39654">
        <ele>100.11</ele>
        <time>2015-04-06T09:11:48Z</time>
      </trkpt>
      <trkpt lat="50.65473" lon="3.3965">
        <ele>100.11</ele>
        <time>2015-04-06T09:11:49Z</time>
      </trkpt>
      <trkpt lat="50.65467" lon="3.39647">
        <ele>99.63</ele>
        <time>2015-04-06T09:11:50Z</time>
      </trkpt>
      <trkpt lat="50.65462" lon="3.39644">
        <ele>99.63</ele>
        <time>2015-04-06T09:11:51Z</time>
      </trkpt>
      <trkpt lat="50.65456" lon="3.39643">
        <ele>99.15</ele>
        <time>2015-04-06T09:11:52Z</time>
      </trkpt>
      <trkpt lat="50.65438" lon="3.39639">
        <ele>98.67</ele>
        <time>2015-04-06T09:11:55Z</time>
      </trkpt>
      <trkpt lat="50.65421" lon="3.39633">
        <ele>97.71</ele>
        <time>2015-04-06T09:11:58Z</time>
      </trkpt>
      <trkpt lat="50.65395" lon="3.39623">
        <ele>95.31</ele>
        <time>2015-04-06T09:12:03Z</time>
      </trkpt>
      <trkpt lat="50.65391" lon="3.3962">
        <ele>95.31</ele>
        <time>2015-04-06T09:12:04Z</time>
      </trkpt>
      <trkpt lat="50.65384" lon="3.39612">
        <ele>94.35</ele>
        <time>2015-04-06T09:12:06Z</time>
      </trkpt>
      <trkpt lat="50.65374" lon="3.39597">
        <ele>92.9</ele>
        <time>2015-04-06T09:12:09Z</time>
      </trkpt>
      <trkpt lat="50.65365" lon="3.39589">
        <ele>91.94</ele>
        <time>2015-04-06T09:12:11Z</time>
      </trkpt>
      <trkpt lat="50.65361" lon="3.39585">
        <ele>91.94</ele>
        <time>2015-04-06T09:12:12Z</time>
      </trkpt>
      <trkpt lat="50.65356" lon="3.39583">
        <ele>91.46</ele>
        <time>2015-04-06T09:12:13Z</time>
      </trkpt>
      <trkpt lat="50.65324" lon="3.39573">
        <ele>88.1</ele>
        <time>2015-04-06T09:12:18Z</time>
      </trkpt>
      <trkpt lat="50.65278" lon="3.39561">
        <ele>84.25</ele>
        <time>2015-04-06T09:12:24Z</time>
      </trkpt>
      <trkpt lat="50.65232" lon="3.39543">
        <ele>80.41</ele>
        <time>2015-04-06T09:12:31Z</time>
      </trkpt>
      <trkpt lat="50.65202" lon="3.39519">
        <ele>77.52</ele>
        <time>2015-04-06T09:12:37Z</time>
      </trkpt>
      <trkpt lat="50.65176" lon="3.39484">
        <ele>74.16</ele>
        <time>2015-04-06T09:12:45Z</time>
      </trkpt>
      <trkpt lat="50.65161" lon="3.39463">
        <ele>72.72</ele>
        <time>2015-04-06T09:12:50Z</time>
      </trkpt>
      <trkpt lat="50.65135" lon="3.39428">
        <ele>71.76</ele>
        <time>2015-04-06T09:12:58Z</time>
      </trkpt>
      <trkpt lat="50.65114" lon="3.39385">
        <ele>69.35</ele>
        <time>2015-04-06T09:13:05Z</time>
      </trkpt>
      <trkpt lat="50.6509" lon="3.39356">
        <ele>67.91</ele>
        <time>2015-04-06T09:13:10Z</time>
      </trkpt>
      <trkpt lat="50.65084" lon="3.39351">
        <ele>67.43</ele>
        <time>2015-04-06T09:13:11Z</time>
      </trkpt>
      <trkpt lat="50.65078" lon="3.39348">
        <ele>67.43</ele>
        <time>2015-04-06T09:13:12Z</time>
      </trkpt>
      <trkpt lat="50.6506" lon="3.39342">
        <ele>66.95</ele>
        <time>2015-04-06T09:13:15Z</time>
      </trkpt>
      <trkpt lat="50.65054" lon="3.39341">
        <ele>66.95</ele>
        <time>2015-04-06T09:13:16Z</time>
      </trkpt>
      <trkpt lat="50.65047" lon="3.39341">
        <ele>66.95</ele>
        <time>2015-04-06T09:13:17Z</time>
      </trkpt>
      <trkpt lat="50.65042" lon="3.39343">
        <ele>66.95</ele>
        <time>2015-04-06T09:13:18Z</time>
      </trkpt>
      <trkpt lat="50.65036" lon="3.39345">
        <ele>67.43</ele>
        <time>2015-04-06T09:13:19Z</time>
      </trkpt>
      <trkpt lat="50.65026" lon="3.3935">
        <ele>67.91</ele>
        <time>2015-04-06T09:13:21Z</time>
      </trkpt>
      <trkpt lat="50.65004" lon="3.39364">
        <ele>69.83</ele>
        <time>2015-04-06T09:13:26Z</time>
      </trkpt>
      <trkpt lat="50.65" lon="3.39365">
        <ele>69.83</ele>
        <time>2015-04-06T09:13:27Z</time>
      </trkpt>
      <trkpt lat="50.64996" lon="3.39366">
        <ele>69.83</ele>
        <time>2015-04-06T09:13:28Z</time>
      </trkpt>
      <trkpt lat="50.64991" lon="3.39367">
        <ele>69.83</ele>
        <time>2015-04-06T09:13:29Z</time>
      </trkpt>
      <trkpt lat="50.64987" lon="3.39367">
        <ele>69.83</ele>
        <time>2015-04-06T09:13:30Z</time>
      </trkpt>
      <trkpt lat="50.64982" lon="3.39367">
        <ele>69.35</ele>
        <time>2015-04-06T09:13:31Z</time>
      </trkpt>
      <trkpt lat="50.64977" lon="3.39365">
        <ele>69.35</ele>
        <time>2015-04-06T09:13:32Z</time>
      </trkpt>
      <trkpt lat="50.64948" lon="3.39358">
        <ele>67.43</ele>
        <time>2015-04-06T09:13:39Z</time>
      </trkpt>
      <trkpt lat="50.64922" lon="3.39353">
        <ele>66.47</ele>
        <time>2015-04-06T09:13:45Z</time>
      </trkpt>
      <trkpt lat="50.64897" lon="3.39353">
        <ele>65.99</ele>
        <time>2015-04-06T09:13:52Z</time>
      </trkpt>
      <trkpt lat="50.64894" lon="3.39352">
        <ele>65.51</ele>
        <time>2015-04-06T09:13:54Z</time>
      </trkpt>
      <trkpt lat="50.64893" lon="3.39351">
        <ele>65.51</ele>
        <time>2015-04-06T09:13:55Z</time>
      </trkpt>
      <trkpt lat="50.64891" lon="3.3935">
        <ele>66.47</ele>
        <time>2015-04-06T09:14:01Z</time>
      </trkpt>
      <trkpt lat="50.64891" lon="3.39349">
        <ele>65.99</ele>
        <time>2015-04-06T09:14:10Z</time>
      </trkpt>
      <trkpt lat="50.64892" lon="3.3935">
        <ele>65.51</ele>
        <time>2015-04-06T09:14:17Z</time>
      </trkpt>
      <trkpt lat="50.6489" lon="3.39351">
        <ele>65.51</ele>
        <time>2015-04-06T09:14:18Z</time>
      </trkpt>
      <trkpt lat="50.64889" lon="3.39353">
        <ele>65.03</ele>
        <time>2015-04-06T09:14:19Z</time>
      </trkpt>
      <trkpt lat="50.64887" lon="3.39356">
        <ele>65.03</ele>
        <time>2015-04-06T09:14:20Z</time>
      </trkpt>
      <trkpt lat="50.64884" lon="3.39359">
        <ele>65.03</ele>
        <time>2015-04-06T09:14:21Z</time>
      </trkpt>
      <trkpt lat="50.6488" lon="3.39362">
        <ele>65.51</ele>
        <time>2015-04-06T09:14:22Z</time>
      </trkpt>
      <trkpt lat="50.64876" lon="3.39364">
        <ele>65.51</ele>
        <time>2015-04-06T09:14:23Z</time>
      </trkpt>
      <trkpt lat="50.64871" lon="3.39366">
        <ele>65.03</ele>
        <time>2015-04-06T09:14:24Z</time>
      </trkpt>
      <trkpt lat="50.64832" lon="3.39381">
        <ele>63.1</ele>
        <time>2015-04-06T09:14:30Z</time>
      </trkpt>
      <trkpt lat="50.64776" lon="3.3939">
        <ele>58.3</ele>
        <time>2015-04-06T09:14:37Z</time>
      </trkpt>
      <trkpt lat="50.64696" lon="3.39389">
        <ele>53.01</ele>
        <time>2015-04-06T09:14:46Z</time>
      </trkpt>
      <trkpt lat="50.64652" lon="3.39393">
        <ele>49.65</ele>
        <time>2015-04-06T09:14:51Z</time>
      </trkpt>
      <trkpt lat="50.64582" lon="3.39403">
        <ele>44.84</ele>
        <time>2015-04-06T09:14:58Z</time>
      </trkpt>
      <trkpt lat="50.64502" lon="3.39415">
        <ele>40.51</ele>
        <time>2015-04-06T09:15:06Z</time>
      </trkpt>
      <trkpt lat="50.64421" lon="3.39408">
        <ele>35.71</ele>
        <time>2015-04-06T09:15:14Z</time>
      </trkpt>
      <trkpt lat="50.64343" lon="3.39398">
        <ele>30.42</ele>
        <time>2015-04-06T09:15:21Z</time>
      </trkpt>
      <trkpt lat="50.64235" lon="3.39386">
        <ele>24.65</ele>
        <time>2015-04-06T09:15:30Z</time>
      </trkpt>
      <trkpt lat="50.6415" lon="3.39376">
        <ele>23.69</ele>
        <time>2015-04-06T09:15:38Z</time>
      </trkpt>
      <trkpt lat="50.64078" lon="3.39364">
        <ele>22.73</ele>
        <time>2015-04-06T09:15:46Z</time>
      </trkpt>
      <trkpt lat="50.64014" lon="3.39352">
        <ele>21.29</ele>
        <time>2015-04-06T09:15:54Z</time>
      </trkpt>
      <trkpt lat="50.63996" lon="3.39344">
        <ele>21.29</ele>
        <time>2015-04-06T09:15:57Z</time>
      </trkpt>
      <trkpt lat="50.63978" lon="3.39331">
        <ele>20.32</ele>
        <time>2015-04-06T09:16:02Z</time>
      </trkpt>
      <trkpt lat="50.6397" lon="3.39333">
        <ele>19.84</ele>
        <time>2015-04-06T09:16:06Z</time>
      </trkpt>
      <trkpt lat="50.63969" lon="3.39337">
        <ele>19.84</ele>
        <time>2015-04-06T09:16:07Z</time>
      </trkpt>
      <trkpt lat="50.63962" lon="3.39378">
        <ele>19.84</ele>
        <time>2015-04-06T09:16:14Z</time>
      </trkpt>
      <trkpt lat="50.6396" lon="3.3941">
        <ele>20.32</ele>
        <time>2015-04-06T09:16:18Z</time>
      </trkpt>
      <trkpt lat="50.6396" lon="3.39418">
        <ele>20.32</ele>
        <time>2015-04-06T09:16:19Z</time>
      </trkpt>
      <trkpt lat="50.63959" lon="3.39436">
        <ele>20.81</ele>
        <time>2015-04-06T09:16:21Z</time>
      </trkpt>
      <trkpt lat="50.63958" lon="3.39445">
        <ele>20.81</ele>
        <time>2015-04-06T09:16:22Z</time>
      </trkpt>
      <trkpt lat="50.63955" lon="3.39533">
        <ele>22.73</ele>
        <time>2015-04-06T09:16:31Z</time>
      </trkpt>
      <trkpt lat="50.63954" lon="3.39617">
        <ele>22.73</ele>
        <time>2015-04-06T09:16:39Z</time>
      </trkpt>
      <trkpt lat="50.63948" lon="3.3972">
        <ele>22.25</ele>
        <time>2015-04-06T09:16:48Z</time>
      </trkpt>
      <trkpt lat="50.63949" lon="3.39807">
        <ele>21.77</ele>
        <time>2015-04-06T09:16:56Z</time>
      </trkpt>
      <trkpt lat="50.63956" lon="3.39867">
        <ele>21.29</ele>
        <time>2015-04-06T09:17:03Z</time>
      </trkpt>
      <trkpt lat="50.63958" lon="3.39891">
        <ele>21.29</ele>
        <time>2015-04-06T09:17:08Z</time>
      </trkpt>
      <trkpt lat="50.63957" lon="3.39897">
        <ele>21.29</ele>
        <time>2015-04-06T09:17:14Z</time>
      </trkpt>
      <trkpt lat="50.63959" lon="3.39898">
        <ele>21.29</ele>
        <time>2015-04-06T09:17:18Z</time>
      </trkpt>
      <trkpt lat="50.63961" lon="3.39895">
        <ele>21.29</ele>
        <time>2015-04-06T09:17:20Z</time>
      </trkpt>
      <trkpt lat="50.63962" lon="3.39893">
        <ele>21.29</ele>
        <time>2015-04-06T09:17:21Z</time>
      </trkpt>
      <trkpt lat="50.63962" lon="3.39891">
        <ele>21.29</ele>
        <time>2015-04-06T09:17:22Z</time>
      </trkpt>
      <trkpt lat="50.63962" lon="3.39889">
        <ele>21.29</ele>
        <time>2015-04-06T09:17:23Z</time>
      </trkpt>
      <trkpt lat="50.63963" lon="3.39886">
        <ele>21.29</ele>
        <time>2015-04-06T09:17:24Z</time>
      </trkpt>
      <trkpt lat="50.63962" lon="3.39882">
        <ele>21.29</ele>
        <time>2015-04-06T09:17:25Z</time>
      </trkpt>
      <trkpt lat="50.63961" lon="3.39878">
        <ele>20.81</ele>
        <time>2015-04-06T09:17:26Z</time>
      </trkpt>
      <trkpt lat="50.6396" lon="3.39875">
        <ele>20.81</ele>
        <time>2015-04-06T09:17:27Z</time>
      </trkpt>
      <trkpt lat="50.6396" lon="3.39871">
        <ele>20.81</ele>
        <time>2015-04-06T09:17:28Z</time>
      </trkpt>
      <trkpt lat="50.63959" lon="3.39866">
        <ele>20.81</ele>
        <time>2015-04-06T09:17:29Z</time>
      </trkpt>
      <trkpt lat="50.63958" lon="3.39862">
        <ele>20.81</ele>
        <time>2015-04-06T09:17:30Z</time>
      </trkpt>
      <trkpt lat="50.63952" lon="3.39822">
        <ele>19.84</ele>
        <time>2015-04-06T09:17:36Z</time>
      </trkpt>
      <trkpt lat="50.63951" lon="3.39806">
        <ele>19.84</ele>
        <time>2015-04-06T09:17:38Z</time>
      </trkpt>
      <trkpt lat="50.6395" lon="3.39798">
        <ele>19.84</ele>
        <time>2015-04-06T09:17:39Z</time>
      </trkpt>
      <trkpt lat="50.63949" lon="3.39736">
        <ele>19.36</ele>
        <time>2015-04-06T09:17:46Z</time>
      </trkpt>
      <trkpt lat="50.63953" lon="3.39649">
        <ele>19.36</ele>
        <time>2015-04-06T09:17:55Z</time>
      </trkpt>
      <trkpt lat="50.63956" lon="3.39568">
        <ele>20.32</ele>
        <time>2015-04-06T09:18:03Z</time>
      </trkpt>
      <trkpt lat="50.63956" lon="3.39477">
        <ele>20.32</ele>
        <time>2015-04-06T09:18:12Z</time>
      </trkpt>
      <trkpt lat="50.63963" lon="3.39381">
        <ele>20.81</ele>
        <time>2015-04-06T09:18:22Z</time>
      </trkpt>
      <trkpt lat="50.63967" lon="3.39345">
        <ele>21.29</ele>
        <time>2015-04-06T09:18:27Z</time>
      </trkpt>
      <trkpt lat="50.63968" lon="3.39338">
        <ele>21.29</ele>
        <time>2015-04-06T09:18:28Z</time>
      </trkpt>
      <trkpt lat="50.6397" lon="3.39324">
        <ele>21.77</ele>
        <time>2015-04-06T09:18:30Z</time>
      </trkpt>
      <trkpt lat="50.63972" lon="3.39317">
        <ele>21.29</ele>
        <time>2015-04-06T09:18:31Z</time>
      </trkpt>
      <trkpt lat="50.63979" lon="3.39286">
        <ele>21.77</ele>
        <time>2015-04-06T09:18:35Z</time>
      </trkpt>
      <trkpt lat="50.63983" lon="3.39243">
        <ele>22.25</ele>
        <time>2015-04-06T09:18:40Z</time>
      </trkpt>
      <trkpt lat="50.63984" lon="3.39235">
        <ele>22.25</ele>
        <time>2015-04-06T09:18:41Z</time>
      </trkpt>
      <trkpt lat="50.63986" lon="3.39227">
        <ele>22.25</ele>
        <time>2015-04-06T09:18:42Z</time>
      </trkpt>
      <trkpt lat="50.6399" lon="3.39221">
        <ele>22.25</ele>
        <time>2015-04-06T09:18:43Z</time>
      </trkpt>
      <trkpt lat="50.63995" lon="3.39216">
        <ele>22.25</ele>
        <time>2015-04-06T09:18:44Z</time>
      </trkpt>
      <trkpt lat="50.64001" lon="3.39215">
        <ele>22.25</ele>
        <time>2015-04-06T09:18:45Z</time>
      </trkpt>
      <trkpt lat="50.64007" lon="3.39216">
        <ele>22.25</ele>
        <time>2015-04-06T09:18:46Z</time>
      </trkpt>
      <trkpt lat="50.64014" lon="3.39217">
        <ele>22.73</ele>
        <time>2015-04-06T09:18:47Z</time>
      </trkpt>
      <trkpt lat="50.64019" lon="3.39218">
        <ele>22.73</ele>
        <time>2015-04-06T09:18:48Z</time>
      </trkpt>
      <trkpt lat="50.64047" lon="3.39219">
        <ele>23.69</ele>
        <time>2015-04-06T09:18:53Z</time>
      </trkpt>
      <trkpt lat="50.64052" lon="3.39215">
        <ele>23.69</ele>
        <time>2015-04-06T09:18:54Z</time>
      </trkpt>
      <trkpt lat="50.64056" lon="3.39209">
        <ele>23.69</ele>
        <time>2015-04-06T09:18:55Z</time>
      </trkpt>
      <trkpt lat="50.64058" lon="3.39201">
        <ele>23.69</ele>
        <time>2015-04-06T09:18:56Z</time>
      </trkpt>
      <trkpt lat="50.64059" lon="3.39192">
        <ele>23.21</ele>
        <time>2015-04-06T09:18:57Z</time>
      </trkpt>
      <trkpt lat="50.6406" lon="3.39182">
        <ele>23.69</ele>
        <time>2015-04-06T09:18:58Z</time>
      </trkpt>
      <trkpt lat="50.6406" lon="3.39173">
        <ele>23.69</ele>
        <time>2015-04-06T09:18:59Z</time>
      </trkpt>
      <trkpt lat="50.64059" lon="3.39163">
        <ele>23.69</ele>
        <time>2015-04-06T09:19:00Z</time>
      </trkpt>
      <trkpt lat="50.64057" lon="3.39093">
        <ele>23.21</ele>
        <time>2015-04-06T09:19:07Z</time>
      </trkpt>
      <trkpt lat="50.64052" lon="3.3901">
        <ele>22.25</ele>
        <time>2015-04-06T09:19:15Z</time>
      </trkpt>
      <trkpt lat="50.64052" lon="3.38925">
        <ele>21.29</ele>
        <time>2015-04-06T09:19:23Z</time>
      </trkpt>
      <trkpt lat="50.64053" lon="3.38913">
        <ele>21.29</ele>
        <time>2015-04-06T09:19:24Z</time>
      </trkpt>
      <trkpt lat="50.64065" lon="3.38818">
        <ele>20.32</ele>
        <time>2015-04-06T09:19:33Z</time>
      </trkpt>
      <trkpt lat="50.64062" lon="3.38768">
        <ele>20.81</ele>
        <time>2015-04-06T09:19:38Z</time>
      </trkpt>
      <trkpt lat="50.64047" lon="3.38685">
        <ele>20.32</ele>
        <time>2015-04-06T09:19:46Z</time>
      </trkpt>
      <trkpt lat="50.64025" lon="3.38579">
        <ele>18.4</ele>
        <time>2015-04-06T09:19:56Z</time>
      </trkpt>
      <trkpt lat="50.63996" lon="3.38473">
        <ele>17.44</ele>
        <time>2015-04-06T09:20:06Z</time>
      </trkpt>
      <trkpt lat="50.63989" lon="3.38454">
        <ele>17.92</ele>
        <time>2015-04-06T09:20:08Z</time>
      </trkpt>
      <trkpt lat="50.63984" lon="3.38446">
        <ele>17.92</ele>
        <time>2015-04-06T09:20:09Z</time>
      </trkpt>
      <trkpt lat="50.63979" lon="3.38438">
        <ele>17.92</ele>
        <time>2015-04-06T09:20:10Z</time>
      </trkpt>
      <trkpt lat="50.63963" lon="3.38415">
        <ele>16.96</ele>
        <time>2015-04-06T09:20:13Z</time>
      </trkpt>
      <trkpt lat="50.63959" lon="3.38406">
        <ele>16.48</ele>
        <time>2015-04-06T09:20:14Z</time>
      </trkpt>
      <trkpt lat="50.6393" lon="3.38313">
        <ele>15.04</ele>
        <time>2015-04-06T09:20:23Z</time>
      </trkpt>
      <trkpt lat="50.639" lon="3.38234">
        <ele>14.56</ele>
        <time>2015-04-06T09:20:31Z</time>
      </trkpt>
      <trkpt lat="50.63884" lon="3.38176">
        <ele>15.52</ele>
        <time>2015-04-06T09:20:37Z</time>
      </trkpt>
      <trkpt lat="50.63882" lon="3.38167">
        <ele>15.04</ele>
        <time>2015-04-06T09:20:38Z</time>
      </trkpt>
      <trkpt lat="50.6388" lon="3.38159">
        <ele>15.04</ele>
        <time>2015-04-06T09:20:39Z</time>
      </trkpt>
      <trkpt lat="50.63871" lon="3.38116">
        <ele>14.56</ele>
        <time>2015-04-06T09:20:44Z</time>
      </trkpt>
      <trkpt lat="50.63871" lon="3.38106">
        <ele>14.56</ele>
        <time>2015-04-06T09:20:45Z</time>
      </trkpt>
      <trkpt lat="50.63873" lon="3.38026">
        <ele>13.6</ele>
        <time>2015-04-06T09:20:53Z</time>
      </trkpt>
      <trkpt lat="50.63872" lon="3.37992">
        <ele>13.12</ele>
        <time>2015-04-06T09:20:57Z</time>
      </trkpt>
      <trkpt lat="50.6387" lon="3.37983">
        <ele>13.12</ele>
        <time>2015-04-06T09:20:58Z</time>
      </trkpt>
      <trkpt lat="50.63868" lon="3.37975">
        <ele>13.12</ele>
        <time>2015-04-06T09:20:59Z</time>
      </trkpt>
      <trkpt lat="50.63865" lon="3.37967">
        <ele>13.12</ele>
        <time>2015-04-06T09:21:00Z</time>
      </trkpt>
      <trkpt lat="50.6386" lon="3.37959">
        <ele>13.12</ele>
        <time>2015-04-06T09:21:01Z</time>
      </trkpt>
      <trkpt lat="50.63855" lon="3.37953">
        <ele>13.12</ele>
        <time>2015-04-06T09:21:02Z</time>
      </trkpt>
      <trkpt lat="50.63817" lon="3.37912">
        <ele>12.63</ele>
        <time>2015-04-06T09:21:09Z</time>
      </trkpt>
      <trkpt lat="50.63813" lon="3.37905">
        <ele>12.63</ele>
        <time>2015-04-06T09:21:10Z</time>
      </trkpt>
      <trkpt lat="50.63808" lon="3.37898">
        <ele>12.63</ele>
        <time>2015-04-06T09:21:11Z</time>
      </trkpt>
      <trkpt lat="50.63805" lon="3.3789">
        <ele>12.63</ele>
        <time>2015-04-06T09:21:12Z</time>
      </trkpt>
      <trkpt lat="50.63804" lon="3.37881">
        <ele>12.63</ele>
        <time>2015-04-06T09:21:13Z</time>
      </trkpt>
      <trkpt lat="50.63804" lon="3.37871">
        <ele>13.12</ele>
        <time>2015-04-06T09:21:14Z</time>
      </trkpt>
      <trkpt lat="50.63806" lon="3.37862">
        <ele>13.12</ele>
        <time>2015-04-06T09:21:15Z</time>
      </trkpt>
      <trkpt lat="50.63808" lon="3.37853">
        <ele>13.12</ele>
        <time>2015-04-06T09:21:16Z</time>
      </trkpt>
      <trkpt lat="50.63824" lon="3.37779">
        <ele>14.56</ele>
        <time>2015-04-06T09:21:24Z</time>
      </trkpt>
      <trkpt lat="50.63842" lon="3.37696">
        <ele>15.52</ele>
        <time>2015-04-06T09:21:33Z</time>
      </trkpt>
      <trkpt lat="50.6386" lon="3.37618">
        <ele>16.48</ele>
        <time>2015-04-06T09:21:42Z</time>
      </trkpt>
      <trkpt lat="50.63878" lon="3.37542">
        <ele>18.4</ele>
        <time>2015-04-06T09:21:52Z</time>
      </trkpt>
      <trkpt lat="50.639" lon="3.37452">
        <ele>18.88</ele>
        <time>2015-04-06T09:22:04Z</time>
      </trkpt>
      <trkpt lat="50.63913" lon="3.37395">
        <ele>18.4</ele>
        <time>2015-04-06T09:22:11Z</time>
      </trkpt>
      <trkpt lat="50.63917" lon="3.37388">
        <ele>18.4</ele>
        <time>2015-04-06T09:22:12Z</time>
      </trkpt>
      <trkpt lat="50.63921" lon="3.37383">
        <ele>18.4</ele>
        <time>2015-04-06T09:22:13Z</time>
      </trkpt>
      <trkpt lat="50.63927" lon="3.37379">
        <ele>18.88</ele>
        <time>2015-04-06T09:22:14Z</time>
      </trkpt>
      <trkpt lat="50.63932" lon="3.37375">
        <ele>18.88</ele>
        <time>2015-04-06T09:22:15Z</time>
      </trkpt>
      <trkpt lat="50.63979" lon="3.37345">
        <ele>18.88</ele>
        <time>2015-04-06T09:22:24Z</time>
      </trkpt>
      <trkpt lat="50.63984" lon="3.37341">
        <ele>18.88</ele>
        <time>2015-04-06T09:22:25Z</time>
      </trkpt>
      <trkpt lat="50.63989" lon="3.37338">
        <ele>19.36</ele>
        <time>2015-04-06T09:22:26Z</time>
      </trkpt>
      <trkpt lat="50.63993" lon="3.37335">
        <ele>19.36</ele>
        <time>2015-04-06T09:22:27Z</time>
      </trkpt>
      <trkpt lat="50.64011" lon="3.37326">
        <ele>19.84</ele>
        <time>2015-04-06T09:22:31Z</time>
      </trkpt>
      <trkpt lat="50.64058" lon="3.37303">
        <ele>20.81</ele>
        <time>2015-04-06T09:22:41Z</time>
      </trkpt>
      <trkpt lat="50.64104" lon="3.3728">
        <ele>20.81</ele>
        <time>2015-04-06T09:22:50Z</time>
      </trkpt>
      <trkpt lat="50.64173" lon="3.37245">
        <ele>21.29</ele>
        <time>2015-04-06T09:23:03Z</time>
      </trkpt>
      <trkpt lat="50.64225" lon="3.3722">
        <ele>21.77</ele>
        <time>2015-04-06T09:23:13Z</time>
      </trkpt>
      <trkpt lat="50.64272" lon="3.37196">
        <ele>22.25</ele>
        <time>2015-04-06T09:23:22Z</time>
      </trkpt>
      <trkpt lat="50.64316" lon="3.37183">
        <ele>23.69</ele>
        <time>2015-04-06T09:23:30Z</time>
      </trkpt>
      <trkpt lat="50.6437" lon="3.37176">
        <ele>24.65</ele>
        <time>2015-04-06T09:23:40Z</time>
      </trkpt>
      <trkpt lat="50.64424" lon="3.37168">
        <ele>25.13</ele>
        <time>2015-04-06T09:23:50Z</time>
      </trkpt>
      <trkpt lat="50.64464" lon="3.37158">
        <ele>26.57</ele>
        <time>2015-04-06T09:23:58Z</time>
      </trkpt>
      <trkpt lat="50.64468" lon="3.37156">
        <ele>27.05</ele>
        <time>2015-04-06T09:23:59Z</time>
      </trkpt>
      <trkpt lat="50.64473" lon="3.37154">
        <ele>27.05</ele>
        <time>2015-04-06T09:24:00Z</time>
      </trkpt>
      <trkpt lat="50.64477" lon="3.37152">
        <ele>27.05</ele>
        <time>2015-04-06T09:24:01Z</time>
      </trkpt>
      <trkpt lat="50.64481" lon="3.37148">
        <ele>27.53</ele>
        <time>2015-04-06T09:24:02Z</time>
      </trkpt>
      <trkpt lat="50.64515" lon="3.37115">
        <ele>28.02</ele>
        <time>2015-04-06T09:24:11Z</time>
      </trkpt>
      <trkpt lat="50.64526" lon="3.37104">
        <ele>28.02</ele>
        <time>2015-04-06T09:24:14Z</time>
      </trkpt>
      <trkpt lat="50.64529" lon="3.371">
        <ele>28.5</ele>
        <time>2015-04-06T09:24:15Z</time>
      </trkpt>
      <trkpt lat="50.64536" lon="3.37092">
        <ele>28.98</ele>
        <time>2015-04-06T09:24:17Z</time>
      </trkpt>
      <trkpt lat="50.64566" lon="3.37062">
        <ele>31.38</ele>
        <time>2015-04-06T09:24:26Z</time>
      </trkpt>
      <trkpt lat="50.64595" lon="3.37031">
        <ele>32.82</ele>
        <time>2015-04-06T09:24:35Z</time>
      </trkpt>
      <trkpt lat="50.64622" lon="3.37006">
        <ele>34.26</ele>
        <time>2015-04-06T09:24:43Z</time>
      </trkpt>
      <trkpt lat="50.64654" lon="3.36975">
        <ele>35.71</ele>
        <time>2015-04-06T09:24:53Z</time>
      </trkpt>
      <trkpt lat="50.64688" lon="3.36943">
        <ele>36.67</ele>
        <time>2015-04-06T09:25:03Z</time>
      </trkpt>
      <trkpt lat="50.64715" lon="3.36917">
        <ele>37.15</ele>
        <time>2015-04-06T09:25:11Z</time>
      </trkpt>
      <trkpt lat="50.64725" lon="3.36906">
        <ele>37.15</ele>
        <time>2015-04-06T09:25:14Z</time>
      </trkpt>
      <trkpt lat="50.64742" lon="3.36884">
        <ele>36.67</ele>
        <time>2015-04-06T09:25:19Z</time>
      </trkpt>
      <trkpt lat="50.64746" lon="3.36879">
        <ele>36.67</ele>
        <time>2015-04-06T09:25:20Z</time>
      </trkpt>
      <trkpt lat="50.64774" lon="3.36827">
        <ele>36.19</ele>
        <time>2015-04-06T09:25:28Z</time>
      </trkpt>
      <trkpt lat="50.64807" lon="3.36762">
        <ele>35.23</ele>
        <time>2015-04-06T09:25:36Z</time>
      </trkpt>
      <trkpt lat="50.64852" lon="3.3667">
        <ele>33.3</ele>
        <time>2015-04-06T09:25:46Z</time>
      </trkpt>
      <trkpt lat="50.64901" lon="3.36576">
        <ele>31.86</ele>
        <time>2015-04-06T09:25:56Z</time>
      </trkpt>
      <trkpt lat="50.6492" lon="3.36539">
        <ele>31.86</ele>
        <time>2015-04-06T09:26:01Z</time>
      </trkpt>
      <trkpt lat="50.64928" lon="3.36517">
        <ele>31.86</ele>
        <time>2015-04-06T09:26:04Z</time>
      </trkpt>
      <trkpt lat="50.64929" lon="3.36508">
        <ele>31.86</ele>
        <time>2015-04-06T09:26:05Z</time>
      </trkpt>
      <trkpt lat="50.64928" lon="3.36499">
        <ele>31.86</ele>
        <time>2015-04-06T09:26:06Z</time>
      </trkpt>
      <trkpt lat="50.64926" lon="3.36491">
        <ele>31.86</ele>
        <time>2015-04-06T09:26:07Z</time>
      </trkpt>
      <trkpt lat="50.64923" lon="3.36482">
        <ele>31.86</ele>
        <time>2015-04-06T09:26:08Z</time>
      </trkpt>
      <trkpt lat="50.64919" lon="3.36475">
        <ele>31.86</ele>
        <time>2015-04-06T09:26:09Z</time>
      </trkpt>
      <trkpt lat="50.6489" lon="3.3641">
        <ele>31.38</ele>
        <time>2015-04-06T09:26:16Z</time>
      </trkpt>
      <trkpt lat="50.64861" lon="3.3633">
        <ele>29.94</ele>
        <time>2015-04-06T09:26:24Z</time>
      </trkpt>
      <trkpt lat="50.6483" lon="3.36279">
        <ele>28.5</ele>
        <time>2015-04-06T09:26:30Z</time>
      </trkpt>
      <trkpt lat="50.64777" lon="3.36199">
        <ele>24.17</ele>
        <time>2015-04-06T09:26:39Z</time>
      </trkpt>
      <trkpt lat="50.64772" lon="3.36188">
        <ele>23.69</ele>
        <time>2015-04-06T09:26:40Z</time>
      </trkpt>
      <trkpt lat="50.64769" lon="3.36177">
        <ele>23.21</ele>
        <time>2015-04-06T09:26:41Z</time>
      </trkpt>
      <trkpt lat="50.64766" lon="3.36165">
        <ele>23.21</ele>
        <time>2015-04-06T09:26:42Z</time>
      </trkpt>
      <trkpt lat="50.64765" lon="3.36152">
        <ele>22.73</ele>
        <time>2015-04-06T09:26:43Z</time>
      </trkpt>
      <trkpt lat="50.64766" lon="3.36138">
        <ele>22.25</ele>
        <time>2015-04-06T09:26:44Z</time>
      </trkpt>
      <trkpt lat="50.64768" lon="3.36125">
        <ele>21.77</ele>
        <time>2015-04-06T09:26:45Z</time>
      </trkpt>
      <trkpt lat="50.64771" lon="3.36112">
        <ele>21.77</ele>
        <time>2015-04-06T09:26:46Z</time>
      </trkpt>
      <trkpt lat="50.64773" lon="3.36098">
        <ele>21.29</ele>
        <time>2015-04-06T09:26:47Z</time>
      </trkpt>
      <trkpt lat="50.64774" lon="3.36084">
        <ele>20.81</ele>
        <time>2015-04-06T09:26:48Z</time>
      </trkpt>
      <trkpt lat="50.64774" lon="3.3607">
        <ele>20.81</ele>
        <time>2015-04-06T09:26:49Z</time>
      </trkpt>
      <trkpt lat="50.64773" lon="3.36056">
        <ele>20.32</ele>
        <time>2015-04-06T09:26:50Z</time>
      </trkpt>
      <trkpt lat="50.64771" lon="3.36042">
        <ele>19.84</ele>
        <time>2015-04-06T09:26:51Z</time>
      </trkpt>
      <trkpt lat="50.64769" lon="3.36028">
        <ele>19.36</ele>
        <time>2015-04-06T09:26:52Z</time>
      </trkpt>
      <trkpt lat="50.64766" lon="3.36015">
        <ele>18.88</ele>
        <time>2015-04-06T09:26:53Z</time>
      </trkpt>
      <trkpt lat="50.64738" lon="3.35938">
        <ele>17.92</ele>
        <time>2015-04-06T09:26:59Z</time>
      </trkpt>
      <trkpt lat="50.64688" lon="3.35823">
        <ele>16</ele>
        <time>2015-04-06T09:27:09Z</time>
      </trkpt>
      <trkpt lat="50.64678" lon="3.35802">
        <ele>15.52</ele>
        <time>2015-04-06T09:27:11Z</time>
      </trkpt>
      <trkpt lat="50.64672" lon="3.35793">
        <ele>15.52</ele>
        <time>2015-04-06T09:27:12Z</time>
      </trkpt>
      <trkpt lat="50.64666" lon="3.35784">
        <ele>15.04</ele>
        <time>2015-04-06T09:27:13Z</time>
      </trkpt>
      <trkpt lat="50.64615" lon="3.35718">
        <ele>14.08</ele>
        <time>2015-04-06T09:27:21Z</time>
      </trkpt>
      <trkpt lat="50.6461" lon="3.35708">
        <ele>14.08</ele>
        <time>2015-04-06T09:27:22Z</time>
      </trkpt>
      <trkpt lat="50.64605" lon="3.35698">
        <ele>14.08</ele>
        <time>2015-04-06T09:27:23Z</time>
      </trkpt>
      <trkpt lat="50.64581" lon="3.35641">
        <ele>12.63</ele>
        <time>2015-04-06T09:27:29Z</time>
      </trkpt>
      <trkpt lat="50.64575" lon="3.35627">
        <ele>12.15</ele>
        <time>2015-04-06T09:27:31Z</time>
      </trkpt>
      <trkpt lat="50.64573" lon="3.35619">
        <ele>12.15</ele>
        <time>2015-04-06T09:27:32Z</time>
      </trkpt>
      <trkpt lat="50.64572" lon="3.35612">
        <ele>12.15</ele>
        <time>2015-04-06T09:27:33Z</time>
      </trkpt>
      <trkpt lat="50.64572" lon="3.35604">
        <ele>12.15</ele>
        <time>2015-04-06T09:27:34Z</time>
      </trkpt>
      <trkpt lat="50.64572" lon="3.35596">
        <ele>12.15</ele>
        <time>2015-04-06T09:27:35Z</time>
      </trkpt>
      <trkpt lat="50.64572" lon="3.35587">
        <ele>12.63</ele>
        <time>2015-04-06T09:27:36Z</time>
      </trkpt>
      <trkpt lat="50.64572" lon="3.35579">
        <ele>12.63</ele>
        <time>2015-04-06T09:27:37Z</time>
      </trkpt>
      <trkpt lat="50.64573" lon="3.35503">
        <ele>13.12</ele>
        <time>2015-04-06T09:27:47Z</time>
      </trkpt>
      <trkpt lat="50.64573" lon="3.3544">
        <ele>13.6</ele>
        <time>2015-04-06T09:27:57Z</time>
      </trkpt>
      <trkpt lat="50.64574" lon="3.35398">
        <ele>13.6</ele>
        <time>2015-04-06T09:28:04Z</time>
      </trkpt>
      <trkpt lat="50.64575" lon="3.35356">
        <ele>14.56</ele>
        <time>2015-04-06T09:28:10Z</time>
      </trkpt>
      <trkpt lat="50.64575" lon="3.35293">
        <ele>16.48</ele>
        <time>2015-04-06T09:28:18Z</time>
      </trkpt>
      <trkpt lat="50.64575" lon="3.35285">
        <ele>16.48</ele>
        <time>2015-04-06T09:28:19Z</time>
      </trkpt>
      <trkpt lat="50.64573" lon="3.35252">
        <ele>17.44</ele>
        <time>2015-04-06T09:28:23Z</time>
      </trkpt>
      <trkpt lat="50.64573" lon="3.35224">
        <ele>17.92</ele>
        <time>2015-04-06T09:28:26Z</time>
      </trkpt>
      <trkpt lat="50.64572" lon="3.35216">
        <ele>18.4</ele>
        <time>2015-04-06T09:28:27Z</time>
      </trkpt>
      <trkpt lat="50.64571" lon="3.35209">
        <ele>18.4</ele>
        <time>2015-04-06T09:28:28Z</time>
      </trkpt>
      <trkpt lat="50.64566" lon="3.35148">
        <ele>19.84</ele>
        <time>2015-04-06T09:28:37Z</time>
      </trkpt>
      <trkpt lat="50.64566" lon="3.35136">
        <ele>19.84</ele>
        <time>2015-04-06T09:28:39Z</time>
      </trkpt>
      <trkpt lat="50.64561" lon="3.35092">
        <ele>19.84</ele>
        <time>2015-04-06T09:28:46Z</time>
      </trkpt>
      <trkpt lat="50.64558" lon="3.35045">
        <ele>20.81</ele>
        <time>2015-04-06T09:28:54Z</time>
      </trkpt>
      <trkpt lat="50.64552" lon="3.34988">
        <ele>20.81</ele>
        <time>2015-04-06T09:29:02Z</time>
      </trkpt>
      <trkpt lat="50.64546" lon="3.34938">
        <ele>19.36</ele>
        <time>2015-04-06T09:29:08Z</time>
      </trkpt>
      <trkpt lat="50.64546" lon="3.34929">
        <ele>19.84</ele>
        <time>2015-04-06T09:29:09Z</time>
      </trkpt>
      <trkpt lat="50.64545" lon="3.34919">
        <ele>19.84</ele>
        <time>2015-04-06T09:29:10Z</time>
      </trkpt>
      <trkpt lat="50.64544" lon="3.3491">
        <ele>19.36</ele>
        <time>2015-04-06T09:29:11Z</time>
      </trkpt>
      <trkpt lat="50.64543" lon="3.349">
        <ele>19.36</ele>
        <time>2015-04-06T09:29:12Z</time>
      </trkpt>
      <trkpt lat="50.64537" lon="3.3485">
        <ele>18.4</ele>
        <time>2015-04-06T09:29:17Z</time>
      </trkpt>
      <trkpt lat="50.64537" lon="3.34839">
        <ele>17.92</ele>
        <time>2015-04-06T09:29:18Z</time>
      </trkpt>
      <trkpt lat="50.64536" lon="3.34829">
        <ele>17.44</ele>
        <time>2015-04-06T09:29:19Z</time>
      </trkpt>
      <trkpt lat="50.64526" lon="3.3474">
        <ele>16.48</ele>
        <time>2015-04-06T09:29:28Z</time>
      </trkpt>
      <trkpt lat="50.6452" lon="3.34691">
        <ele>16</ele>
        <time>2015-04-06T09:29:34Z</time>
      </trkpt>
      <trkpt lat="50.64518" lon="3.34682">
        <ele>16</ele>
        <time>2015-04-06T09:29:35Z</time>
      </trkpt>
      <trkpt lat="50.64517" lon="3.34674">
        <ele>16</ele>
        <time>2015-04-06T09:29:36Z</time>
      </trkpt>
      <trkpt lat="50.64509" lon="3.34605">
        <ele>16</ele>
        <time>2015-04-06T09:29:45Z</time>
      </trkpt>
      <trkpt lat="50.64507" lon="3.34585">
        <ele>16.96</ele>
        <time>2015-04-06T09:29:48Z</time>
      </trkpt>
      <trkpt lat="50.64506" lon="3.34579">
        <ele>16.96</ele>
        <time>2015-04-06T09:29:49Z</time>
      </trkpt>
      <trkpt lat="50.64503" lon="3.34575">
        <ele>17.44</ele>
        <time>2015-04-06T09:29:50Z</time>
      </trkpt>
      <trkpt lat="50.64499" lon="3.34572">
        <ele>17.44</ele>
        <time>2015-04-06T09:29:51Z</time>
      </trkpt>
      <trkpt lat="50.64495" lon="3.34571">
        <ele>17.44</ele>
        <time>2015-04-06T09:29:52Z</time>
      </trkpt>
      <trkpt lat="50.64491" lon="3.3457">
        <ele>17.44</ele>
        <time>2015-04-06T09:29:53Z</time>
      </trkpt>
      <trkpt lat="50.64487" lon="3.34569">
        <ele>17.44</ele>
        <time>2015-04-06T09:29:54Z</time>
      </trkpt>
      <trkpt lat="50.64443" lon="3.34567">
        <ele>18.4</ele>
        <time>2015-04-06T09:30:03Z</time>
      </trkpt>
      <trkpt lat="50.64412" lon="3.34563">
        <ele>18.88</ele>
        <time>2015-04-06T09:30:09Z</time>
      </trkpt>
      <trkpt lat="50.64407" lon="3.34564">
        <ele>18.88</ele>
        <time>2015-04-06T09:30:10Z</time>
      </trkpt>
      <trkpt lat="50.64403" lon="3.34568">
        <ele>18.88</ele>
        <time>2015-04-06T09:30:11Z</time>
      </trkpt>
      <trkpt lat="50.644" lon="3.34574">
        <ele>18.88</ele>
        <time>2015-04-06T09:30:12Z</time>
      </trkpt>
      <trkpt lat="50.64398" lon="3.34582">
        <ele>18.88</ele>
        <time>2015-04-06T09:30:13Z</time>
      </trkpt>
      <trkpt lat="50.64396" lon="3.3459">
        <ele>18.4</ele>
        <time>2015-04-06T09:30:14Z</time>
      </trkpt>
      <trkpt lat="50.64392" lon="3.34606">
        <ele>18.4</ele>
        <time>2015-04-06T09:30:16Z</time>
      </trkpt>
      <trkpt lat="50.64389" lon="3.34613">
        <ele>18.4</ele>
        <time>2015-04-06T09:30:17Z</time>
      </trkpt>
      <trkpt lat="50.64385" lon="3.34618">
        <ele>17.92</ele>
        <time>2015-04-06T09:30:18Z</time>
      </trkpt>
      <trkpt lat="50.64381" lon="3.34622">
        <ele>17.92</ele>
        <time>2015-04-06T09:30:19Z</time>
      </trkpt>
      <trkpt lat="50.64376" lon="3.34626">
        <ele>17.92</ele>
        <time>2015-04-06T09:30:20Z</time>
      </trkpt>
      <trkpt lat="50.64346" lon="3.34654">
        <ele>18.4</ele>
        <time>2015-04-06T09:30:28Z</time>
      </trkpt>
      <trkpt lat="50.64329" lon="3.34644">
        <ele>18.4</ele>
        <time>2015-04-06T09:30:33Z</time>
      </trkpt>
      <trkpt lat="50.64326" lon="3.34639">
        <ele>18.4</ele>
        <time>2015-04-06T09:30:34Z</time>
      </trkpt>
      <trkpt lat="50.64317" lon="3.34622">
        <ele>17.44</ele>
        <time>2015-04-06T09:30:38Z</time>
      </trkpt>
      <trkpt lat="50.64318" lon="3.34616">
        <ele>17.44</ele>
        <time>2015-04-06T09:30:39Z</time>
      </trkpt>
      <trkpt lat="50.64319" lon="3.3461">
        <ele>17.44</ele>
        <time>2015-04-06T09:30:40Z</time>
      </trkpt>
      <trkpt lat="50.64322" lon="3.34604">
        <ele>17.44</ele>
        <time>2015-04-06T09:30:41Z</time>
      </trkpt>
      <trkpt lat="50.64326" lon="3.34599">
        <ele>17.44</ele>
        <time>2015-04-06T09:30:42Z</time>
      </trkpt>
      <trkpt lat="50.6433" lon="3.34594">
        <ele>17.44</ele>
        <time>2015-04-06T09:30:43Z</time>
      </trkpt>
      <trkpt lat="50.64366" lon="3.34546">
        <ele>17.92</ele>
        <time>2015-04-06T09:30:52Z</time>
      </trkpt>
      <trkpt lat="50.64404" lon="3.34489">
        <ele>17.92</ele>
        <time>2015-04-06T09:31:03Z</time>
      </trkpt>
      <trkpt lat="50.64434" lon="3.34441">
        <ele>18.4</ele>
        <time>2015-04-06T09:31:13Z</time>
      </trkpt>
      <trkpt lat="50.64468" lon="3.34398">
        <ele>19.36</ele>
        <time>2015-04-06T09:31:22Z</time>
      </trkpt>
      <trkpt lat="50.64505" lon="3.34375">
        <ele>19.84</ele>
        <time>2015-04-06T09:31:30Z</time>
      </trkpt>
      <trkpt lat="50.64549" lon="3.34368">
        <ele>19.84</ele>
        <time>2015-04-06T09:31:38Z</time>
      </trkpt>
      <trkpt lat="50.64612" lon="3.34362">
        <ele>19.36</ele>
        <time>2015-04-06T09:31:48Z</time>
      </trkpt>
      <trkpt lat="50.64673" lon="3.34357">
        <ele>17.92</ele>
        <time>2015-04-06T09:31:57Z</time>
      </trkpt>
      <trkpt lat="50.64735" lon="3.3435">
        <ele>17.92</ele>
        <time>2015-04-06T09:32:06Z</time>
      </trkpt>
      <trkpt lat="50.64807" lon="3.34342">
        <ele>16.96</ele>
        <time>2015-04-06T09:32:16Z</time>
      </trkpt>
      <trkpt lat="50.64875" lon="3.34335">
        <ele>16</ele>
        <time>2015-04-06T09:32:25Z</time>
      </trkpt>
      <trkpt lat="50.64929" lon="3.34327">
        <ele>15.04</ele>
        <time>2015-04-06T09:32:32Z</time>
      </trkpt>
      <trkpt lat="50.64989" lon="3.34319">
        <ele>15.52</ele>
        <time>2015-04-06T09:32:40Z</time>
      </trkpt>
      <trkpt lat="50.65054" lon="3.34312">
        <ele>15.52</ele>
        <time>2015-04-06T09:32:49Z</time>
      </trkpt>
      <trkpt lat="50.65132" lon="3.34302">
        <ele>15.52</ele>
        <time>2015-04-06T09:33:00Z</time>
      </trkpt>
      <trkpt lat="50.65209" lon="3.34292">
        <ele>16</ele>
        <time>2015-04-06T09:33:11Z</time>
      </trkpt>
      <trkpt lat="50.65271" lon="3.34285">
        <ele>16.48</ele>
        <time>2015-04-06T09:33:20Z</time>
      </trkpt>
      <trkpt lat="50.65353" lon="3.34275">
        <ele>17.44</ele>
        <time>2015-04-06T09:33:32Z</time>
      </trkpt>
      <trkpt lat="50.65429" lon="3.34265">
        <ele>16.96</ele>
        <time>2015-04-06T09:33:43Z</time>
      </trkpt>
      <trkpt lat="50.6551" lon="3.34255">
        <ele>16.48</ele>
        <time>2015-04-06T09:33:55Z</time>
      </trkpt>
      <trkpt lat="50.6557" lon="3.34248">
        <ele>16.48</ele>
        <time>2015-04-06T09:34:04Z</time>
      </trkpt>
      <trkpt lat="50.65643" lon="3.34238">
        <ele>16.96</ele>
        <time>2015-04-06T09:34:15Z</time>
      </trkpt>
      <trkpt lat="50.65711" lon="3.3423">
        <ele>17.44</ele>
        <time>2015-04-06T09:34:25Z</time>
      </trkpt>
      <trkpt lat="50.65777" lon="3.34222">
        <ele>17.44</ele>
        <time>2015-04-06T09:34:35Z</time>
      </trkpt>
      <trkpt lat="50.65828" lon="3.34215">
        <ele>16.96</ele>
        <time>2015-04-06T09:34:43Z</time>
      </trkpt>
      <trkpt lat="50.6588" lon="3.34209">
        <ele>16.96</ele>
        <time>2015-04-06T09:34:51Z</time>
      </trkpt>
      <trkpt lat="50.65946" lon="3.34201">
        <ele>16.96</ele>
        <time>2015-04-06T09:35:01Z</time>
      </trkpt>
      <trkpt lat="50.66031" lon="3.34189">
        <ele>16.96</ele>
        <time>2015-04-06T09:35:14Z</time>
      </trkpt>
      <trkpt lat="50.66101" lon="3.3418">
        <ele>16.48</ele>
        <time>2015-04-06T09:35:25Z</time>
      </trkpt>
      <trkpt lat="50.66152" lon="3.34174">
        <ele>16.48</ele>
        <time>2015-04-06T09:35:33Z</time>
      </trkpt>
      <trkpt lat="50.66196" lon="3.34168">
        <ele>16</ele>
        <time>2015-04-06T09:35:40Z</time>
      </trkpt>
      <trkpt lat="50.66261" lon="3.34161">
        <ele>16</ele>
        <time>2015-04-06T09:35:50Z</time>
      </trkpt>
      <trkpt lat="50.66332" lon="3.34152">
        <ele>16</ele>
        <time>2015-04-06T09:36:01Z</time>
      </trkpt>
      <trkpt lat="50.6639" lon="3.34146">
        <ele>16</ele>
        <time>2015-04-06T09:36:10Z</time>
      </trkpt>
      <trkpt lat="50.6646" lon="3.34137">
        <ele>16</ele>
        <time>2015-04-06T09:36:21Z</time>
      </trkpt>
      <trkpt lat="50.66532" lon="3.34129">
        <ele>16.48</ele>
        <time>2015-04-06T09:36:32Z</time>
      </trkpt>
      <trkpt lat="50.66606" lon="3.3412">
        <ele>15.52</ele>
        <time>2015-04-06T09:36:43Z</time>
      </trkpt>
      <trkpt lat="50.66688" lon="3.3411">
        <ele>15.52</ele>
        <time>2015-04-06T09:36:55Z</time>
      </trkpt>
      <trkpt lat="50.66755" lon="3.34102">
        <ele>15.52</ele>
        <time>2015-04-06T09:37:05Z</time>
      </trkpt>
      <trkpt lat="50.66836" lon="3.34092">
        <ele>15.52</ele>
        <time>2015-04-06T09:37:17Z</time>
      </trkpt>
      <trkpt lat="50.66917" lon="3.34082">
        <ele>15.52</ele>
        <time>2015-04-06T09:37:29Z</time>
      </trkpt>
      <trkpt lat="50.66986" lon="3.34073">
        <ele>16</ele>
        <time>2015-04-06T09:37:39Z</time>
      </trkpt>
      <trkpt lat="50.67061" lon="3.34064">
        <ele>15.52</ele>
        <time>2015-04-06T09:37:50Z</time>
      </trkpt>
      <trkpt lat="50.6713" lon="3.34056">
        <ele>15.04</ele>
        <time>2015-04-06T09:38:00Z</time>
      </trkpt>
      <trkpt lat="50.67203" lon="3.34047">
        <ele>15.52</ele>
        <time>2015-04-06T09:38:11Z</time>
      </trkpt>
      <trkpt lat="50.67268" lon="3.34039">
        <ele>15.52</ele>
        <time>2015-04-06T09:38:21Z</time>
      </trkpt>
      <trkpt lat="50.67331" lon="3.34031">
        <ele>15.04</ele>
        <time>2015-04-06T09:38:31Z</time>
      </trkpt>
      <trkpt lat="50.67393" lon="3.34025">
        <ele>14.08</ele>
        <time>2015-04-06T09:38:41Z</time>
      </trkpt>
      <trkpt lat="50.6745" lon="3.34017">
        <ele>14.08</ele>
        <time>2015-04-06T09:38:50Z</time>
      </trkpt>
      <trkpt lat="50.6752" lon="3.34007">
        <ele>14.56</ele>
        <time>2015-04-06T09:39:01Z</time>
      </trkpt>
      <trkpt lat="50.67595" lon="3.33998">
        <ele>15.04</ele>
        <time>2015-04-06T09:39:13Z</time>
      </trkpt>
      <trkpt lat="50.67654" lon="3.3399">
        <ele>15.04</ele>
        <time>2015-04-06T09:39:23Z</time>
      </trkpt>
      <trkpt lat="50.67698" lon="3.33984">
        <ele>15.04</ele>
        <time>2015-04-06T09:39:31Z</time>
      </trkpt>
      <trkpt lat="50.67758" lon="3.33975">
        <ele>14.56</ele>
        <time>2015-04-06T09:39:42Z</time>
      </trkpt>
      <trkpt lat="50.67804" lon="3.33969">
        <ele>14.08</ele>
        <time>2015-04-06T09:39:51Z</time>
      </trkpt>
      <trkpt lat="50.67818" lon="3.33968">
        <ele>14.08</ele>
        <time>2015-04-06T09:39:54Z</time>
      </trkpt>
      <trkpt lat="50.67827" lon="3.33968">
        <ele>14.08</ele>
        <time>2015-04-06T09:39:56Z</time>
      </trkpt>
      <trkpt lat="50.67873" lon="3.33962">
        <ele>13.12</ele>
        <time>2015-04-06T09:40:04Z</time>
      </trkpt>
      <trkpt lat="50.67929" lon="3.33955">
        <ele>12.15</ele>
        <time>2015-04-06T09:40:13Z</time>
      </trkpt>
      <trkpt lat="50.67981" lon="3.33945">
        <ele>12.63</ele>
        <time>2015-04-06T09:40:22Z</time>
      </trkpt>
      <trkpt lat="50.67993" lon="3.33942">
        <ele>13.12</ele>
        <time>2015-04-06T09:40:24Z</time>
      </trkpt>
      <trkpt lat="50.68047" lon="3.33933">
        <ele>15.52</ele>
        <time>2015-04-06T09:40:34Z</time>
      </trkpt>
      <trkpt lat="50.68077" lon="3.33931">
        <ele>16.96</ele>
        <time>2015-04-06T09:40:40Z</time>
      </trkpt>
      <trkpt lat="50.68082" lon="3.33931">
        <ele>16.96</ele>
        <time>2015-04-06T09:40:41Z</time>
      </trkpt>
      <trkpt lat="50.68116" lon="3.33924">
        <ele>17.44</ele>
        <time>2015-04-06T09:40:48Z</time>
      </trkpt>
      <trkpt lat="50.68155" lon="3.33918">
        <ele>17.92</ele>
        <time>2015-04-06T09:40:56Z</time>
      </trkpt>
      <trkpt lat="50.68191" lon="3.33913">
        <ele>17.92</ele>
        <time>2015-04-06T09:41:04Z</time>
      </trkpt>
      <trkpt lat="50.68225" lon="3.33909">
        <ele>17.92</ele>
        <time>2015-04-06T09:41:12Z</time>
      </trkpt>
      <trkpt lat="50.68263" lon="3.33904">
        <ele>18.88</ele>
        <time>2015-04-06T09:41:21Z</time>
      </trkpt>
      <trkpt lat="50.683" lon="3.33898">
        <ele>20.32</ele>
        <time>2015-04-06T09:41:30Z</time>
      </trkpt>
      <trkpt lat="50.68332" lon="3.33893">
        <ele>21.77</ele>
        <time>2015-04-06T09:41:38Z</time>
      </trkpt>
      <trkpt lat="50.68367" lon="3.33892">
        <ele>22.25</ele>
        <time>2015-04-06T09:41:47Z</time>
      </trkpt>
      <trkpt lat="50.68399" lon="3.33889">
        <ele>21.29</ele>
        <time>2015-04-06T09:41:56Z</time>
      </trkpt>
      <trkpt lat="50.68416" lon="3.3388">
        <ele>21.29</ele>
        <time>2015-04-06T09:42:02Z</time>
      </trkpt>
      <trkpt lat="50.68443" lon="3.33879">
        <ele>21.29</ele>
        <time>2015-04-06T09:42:09Z</time>
      </trkpt>
      <trkpt lat="50.68473" lon="3.33876">
        <ele>23.21</ele>
        <time>2015-04-06T09:42:17Z</time>
      </trkpt>
      <trkpt lat="50.68498" lon="3.33874">
        <ele>24.17</ele>
        <time>2015-04-06T09:42:24Z</time>
      </trkpt>
      <trkpt lat="50.6852" lon="3.33872">
        <ele>22.73</ele>
        <time>2015-04-06T09:42:30Z</time>
      </trkpt>
      <trkpt lat="50.68543" lon="3.33872">
        <ele>22.73</ele>
        <time>2015-04-06T09:42:36Z</time>
      </trkpt>
      <trkpt lat="50.68575" lon="3.33874">
        <ele>22.25</ele>
        <time>2015-04-06T09:42:44Z</time>
      </trkpt>
      <trkpt lat="50.68608" lon="3.33877">
        <ele>22.73</ele>
        <time>2015-04-06T09:42:51Z</time>
      </trkpt>
      <trkpt lat="50.68649" lon="3.33879">
        <ele>21.29</ele>
        <time>2015-04-06T09:42:59Z</time>
      </trkpt>
      <trkpt lat="50.68699" lon="3.33881">
        <ele>20.81</ele>
        <time>2015-04-06T09:43:08Z</time>
      </trkpt>
      <trkpt lat="50.68753" lon="3.33883">
        <ele>23.21</ele>
        <time>2015-04-06T09:43:17Z</time>
      </trkpt>
      <trkpt lat="50.68816" lon="3.33885">
        <ele>24.65</ele>
        <time>2015-04-06T09:43:27Z</time>
      </trkpt>
      <trkpt lat="50.68865" lon="3.33887">
        <ele>24.65</ele>
        <time>2015-04-06T09:43:35Z</time>
      </trkpt>
      <trkpt lat="50.6892" lon="3.33891">
        <ele>23.69</ele>
        <time>2015-04-06T09:43:44Z</time>
      </trkpt>
      <trkpt lat="50.68981" lon="3.33896">
        <ele>22.25</ele>
        <time>2015-04-06T09:43:54Z</time>
      </trkpt>
      <trkpt lat="50.69045" lon="3.33897">
        <ele>21.77</ele>
        <time>2015-04-06T09:44:04Z</time>
      </trkpt>
      <trkpt lat="50.6912" lon="3.33899">
        <ele>21.29</ele>
        <time>2015-04-06T09:44:16Z</time>
      </trkpt>
      <trkpt lat="50.69175" lon="3.33901">
        <ele>20.81</ele>
        <time>2015-04-06T09:44:25Z</time>
      </trkpt>
      <trkpt lat="50.69236" lon="3.33903">
        <ele>20.32</ele>
        <time>2015-04-06T09:44:35Z</time>
      </trkpt>
      <trkpt lat="50.69304" lon="3.33906">
        <ele>19.84</ele>
        <time>2015-04-06T09:44:46Z</time>
      </trkpt>
      <trkpt lat="50.69381" lon="3.33908">
        <ele>18.4</ele>
        <time>2015-04-06T09:44:58Z</time>
      </trkpt>
      <trkpt lat="50.69451" lon="3.3391">
        <ele>17.92</ele>
        <time>2015-04-06T09:45:09Z</time>
      </trkpt>
      <trkpt lat="50.69521" lon="3.33911">
        <ele>18.4</ele>
        <time>2015-04-06T09:45:20Z</time>
      </trkpt>
      <trkpt lat="50.69596" lon="3.33914">
        <ele>17.92</ele>
        <time>2015-04-06T09:45:32Z</time>
      </trkpt>
      <trkpt lat="50.69655" lon="3.33916">
        <ele>17.92</ele>
        <time>2015-04-06T09:45:42Z</time>
      </trkpt>
      <trkpt lat="50.69695" lon="3.3391">
        <ele>18.4</ele>
        <time>2015-04-06T09:45:50Z</time>
      </trkpt>
      <trkpt lat="50.69737" lon="3.33895">
        <ele>18.4</ele>
        <time>2015-04-06T09:45:59Z</time>
      </trkpt>
      <trkpt lat="50.69759" lon="3.33893">
        <ele>17.44</ele>
        <time>2015-04-06T09:46:05Z</time>
      </trkpt>
      <trkpt lat="50.69766" lon="3.33899">
        <ele>17.44</ele>
        <time>2015-04-06T09:46:07Z</time>
      </trkpt>
      <trkpt lat="50.69769" lon="3.33903">
        <ele>17.44</ele>
        <time>2015-04-06T09:46:08Z</time>
      </trkpt>
      <trkpt lat="50.69772" lon="3.33907">
        <ele>17.44</ele>
        <time>2015-04-06T09:46:09Z</time>
      </trkpt>
      <trkpt lat="50.69776" lon="3.3391">
        <ele>17.44</ele>
        <time>2015-04-06T09:46:10Z</time>
      </trkpt>
      <trkpt lat="50.6978" lon="3.33912">
        <ele>17.44</ele>
        <time>2015-04-06T09:46:11Z</time>
      </trkpt>
      <trkpt lat="50.69785" lon="3.33914">
        <ele>17.44</ele>
        <time>2015-04-06T09:46:12Z</time>
      </trkpt>
      <trkpt lat="50.6979" lon="3.33914">
        <ele>17.44</ele>
        <time>2015-04-06T09:46:13Z</time>
      </trkpt>
      <trkpt lat="50.69794" lon="3.33912">
        <ele>17.44</ele>
        <time>2015-04-06T09:46:14Z</time>
      </trkpt>
      <trkpt lat="50.69799" lon="3.3391">
        <ele>16.96</ele>
        <time>2015-04-06T09:46:15Z</time>
      </trkpt>
      <trkpt lat="50.69804" lon="3.33906">
        <ele>16.96</ele>
        <time>2015-04-06T09:46:16Z</time>
      </trkpt>
      <trkpt lat="50.69808" lon="3.33901">
        <ele>16.96</ele>
        <time>2015-04-06T09:46:17Z</time>
      </trkpt>
      <trkpt lat="50.69811" lon="3.33894">
        <ele>16.96</ele>
        <time>2015-04-06T09:46:18Z</time>
      </trkpt>
      <trkpt lat="50.69814" lon="3.33887">
        <ele>16.96</ele>
        <time>2015-04-06T09:46:19Z</time>
      </trkpt>
      <trkpt lat="50.69817" lon="3.3388">
        <ele>16.96</ele>
        <time>2015-04-06T09:46:20Z</time>
      </trkpt>
      <trkpt lat="50.69821" lon="3.33874">
        <ele>16.96</ele>
        <time>2015-04-06T09:46:21Z</time>
      </trkpt>
      <trkpt lat="50.69825" lon="3.33869">
        <ele>16.96</ele>
        <time>2015-04-06T09:46:22Z</time>
      </trkpt>
      <trkpt lat="50.6983" lon="3.33866">
        <ele>16.96</ele>
        <time>2015-04-06T09:46:23Z</time>
      </trkpt>
      <trkpt lat="50.69835" lon="3.33865">
        <ele>16.96</ele>
        <time>2015-04-06T09:46:24Z</time>
      </trkpt>
      <trkpt lat="50.69841" lon="3.33864">
        <ele>16.48</ele>
        <time>2015-04-06T09:46:25Z</time>
      </trkpt>
      <trkpt lat="50.69893" lon="3.3385">
        <ele>15.52</ele>
        <time>2015-04-06T09:46:34Z</time>
      </trkpt>
      <trkpt lat="50.69934" lon="3.33837">
        <ele>15.04</ele>
        <time>2015-04-06T09:46:42Z</time>
      </trkpt>
      <trkpt lat="50.69945" lon="3.33832">
        <ele>15.52</ele>
        <time>2015-04-06T09:46:44Z</time>
      </trkpt>
      <trkpt lat="50.69961" lon="3.33822">
        <ele>16</ele>
        <time>2015-04-06T09:46:47Z</time>
      </trkpt>
      <trkpt lat="50.69966" lon="3.33819">
        <ele>16</ele>
        <time>2015-04-06T09:46:48Z</time>
      </trkpt>
      <trkpt lat="50.69971" lon="3.33814">
        <ele>16</ele>
        <time>2015-04-06T09:46:49Z</time>
      </trkpt>
      <trkpt lat="50.69976" lon="3.3381">
        <ele>16</ele>
        <time>2015-04-06T09:46:50Z</time>
      </trkpt>
      <trkpt lat="50.6998" lon="3.33806">
        <ele>16</ele>
        <time>2015-04-06T09:46:51Z</time>
      </trkpt>
      <trkpt lat="50.69985" lon="3.33803">
        <ele>16.48</ele>
        <time>2015-04-06T09:46:52Z</time>
      </trkpt>
      <trkpt lat="50.69996" lon="3.33799">
        <ele>16.48</ele>
        <time>2015-04-06T09:46:54Z</time>
      </trkpt>
      <trkpt lat="50.7004" lon="3.33787">
        <ele>16</ele>
        <time>2015-04-06T09:47:02Z</time>
      </trkpt>
      <trkpt lat="50.70052" lon="3.33785">
        <ele>16</ele>
        <time>2015-04-06T09:47:04Z</time>
      </trkpt>
      <trkpt lat="50.70057" lon="3.33784">
        <ele>16.48</ele>
        <time>2015-04-06T09:47:05Z</time>
      </trkpt>
      <trkpt lat="50.70118" lon="3.33767">
        <ele>16.48</ele>
        <time>2015-04-06T09:47:15Z</time>
      </trkpt>
      <trkpt lat="50.70189" lon="3.33746">
        <ele>16.96</ele>
        <time>2015-04-06T09:47:26Z</time>
      </trkpt>
      <trkpt lat="50.70259" lon="3.33725">
        <ele>16.48</ele>
        <time>2015-04-06T09:47:37Z</time>
      </trkpt>
      <trkpt lat="50.70355" lon="3.33696">
        <ele>16</ele>
        <time>2015-04-06T09:47:52Z</time>
      </trkpt>
      <trkpt lat="50.70426" lon="3.33676">
        <ele>16.48</ele>
        <time>2015-04-06T09:48:03Z</time>
      </trkpt>
      <trkpt lat="50.70489" lon="3.33658">
        <ele>16.96</ele>
        <time>2015-04-06T09:48:13Z</time>
      </trkpt>
      <trkpt lat="50.70526" lon="3.33646">
        <ele>16.96</ele>
        <time>2015-04-06T09:48:19Z</time>
      </trkpt>
      <trkpt lat="50.70532" lon="3.33644">
        <ele>16.48</ele>
        <time>2015-04-06T09:48:20Z</time>
      </trkpt>
      <trkpt lat="50.70596" lon="3.33624">
        <ele>16</ele>
        <time>2015-04-06T09:48:31Z</time>
      </trkpt>
      <trkpt lat="50.7061" lon="3.33619">
        <ele>15.52</ele>
        <time>2015-04-06T09:48:36Z</time>
      </trkpt>
      <trkpt lat="50.70627" lon="3.33615">
        <ele>15.04</ele>
        <time>2015-04-06T09:48:44Z</time>
      </trkpt>
      <trkpt lat="50.70658" lon="3.33606">
        <ele>15.52</ele>
        <time>2015-04-06T09:48:53Z</time>
      </trkpt>
      <trkpt lat="50.70688" lon="3.33597">
        <ele>15.04</ele>
        <time>2015-04-06T09:49:00Z</time>
      </trkpt>
      <trkpt lat="50.70692" lon="3.33596">
        <ele>15.04</ele>
        <time>2015-04-06T09:49:01Z</time>
      </trkpt>
      <trkpt lat="50.70739" lon="3.33582">
        <ele>15.04</ele>
        <time>2015-04-06T09:49:11Z</time>
      </trkpt>
      <trkpt lat="50.7077" lon="3.33573">
        <ele>15.04</ele>
        <time>2015-04-06T09:49:17Z</time>
      </trkpt>
      <trkpt lat="50.70821" lon="3.33558">
        <ele>15.04</ele>
        <time>2015-04-06T09:49:27Z</time>
      </trkpt>
      <trkpt lat="50.70872" lon="3.33543">
        <ele>15.04</ele>
        <time>2015-04-06T09:49:37Z</time>
      </trkpt>
      <trkpt lat="50.70891" lon="3.33537">
        <ele>15.04</ele>
        <time>2015-04-06T09:49:41Z</time>
      </trkpt>
      <trkpt lat="50.70896" lon="3.33535">
        <ele>15.04</ele>
        <time>2015-04-06T09:49:42Z</time>
      </trkpt>
      <trkpt lat="50.70927" lon="3.33528">
        <ele>16.48</ele>
        <time>2015-04-06T09:49:50Z</time>
      </trkpt>
      <trkpt lat="50.70931" lon="3.33528">
        <ele>16.48</ele>
        <time>2015-04-06T09:49:51Z</time>
      </trkpt>
      <trkpt lat="50.70935" lon="3.33526">
        <ele>16.48</ele>
        <time>2015-04-06T09:49:52Z</time>
      </trkpt>
      <trkpt lat="50.70961" lon="3.33519">
        <ele>16.48</ele>
        <time>2015-04-06T09:49:57Z</time>
      </trkpt>
      <trkpt lat="50.70966" lon="3.33516">
        <ele>16.48</ele>
        <time>2015-04-06T09:49:58Z</time>
      </trkpt>
      <trkpt lat="50.7097" lon="3.33514">
        <ele>16.48</ele>
        <time>2015-04-06T09:49:59Z</time>
      </trkpt>
      <trkpt lat="50.71023" lon="3.33498">
        <ele>15.52</ele>
        <time>2015-04-06T09:50:09Z</time>
      </trkpt>
      <trkpt lat="50.71086" lon="3.3348">
        <ele>14.56</ele>
        <time>2015-04-06T09:50:21Z</time>
      </trkpt>
      <trkpt lat="50.71128" lon="3.33467">
        <ele>14.56</ele>
        <time>2015-04-06T09:50:30Z</time>
      </trkpt>
      <trkpt lat="50.71167" lon="3.33456">
        <ele>14.08</ele>
        <time>2015-04-06T09:50:38Z</time>
      </trkpt>
      <trkpt lat="50.71235" lon="3.33436">
        <ele>15.04</ele>
        <time>2015-04-06T09:50:51Z</time>
      </trkpt>
      <trkpt lat="50.71274" lon="3.33425">
        <ele>16</ele>
        <time>2015-04-06T09:50:59Z</time>
      </trkpt>
      <trkpt lat="50.71301" lon="3.33417">
        <ele>16.96</ele>
        <time>2015-04-06T09:51:06Z</time>
      </trkpt>
      <trkpt lat="50.71328" lon="3.33406">
        <ele>15.52</ele>
        <time>2015-04-06T09:51:13Z</time>
      </trkpt>
      <trkpt lat="50.71362" lon="3.33387">
        <ele>13.12</ele>
        <time>2015-04-06T09:51:22Z</time>
      </trkpt>
      <trkpt lat="50.71394" lon="3.33375">
        <ele>12.15</ele>
        <time>2015-04-06T09:51:28Z</time>
      </trkpt>
      <trkpt lat="50.71407" lon="3.33369">
        <ele>12.15</ele>
        <time>2015-04-06T09:51:30Z</time>
      </trkpt>
      <trkpt lat="50.71443" lon="3.33358">
        <ele>10.23</ele>
        <time>2015-04-06T09:51:36Z</time>
      </trkpt>
      <trkpt lat="50.71448" lon="3.33356">
        <ele>10.23</ele>
        <time>2015-04-06T09:51:37Z</time>
      </trkpt>
      <trkpt lat="50.71452" lon="3.33351">
        <ele>10.23</ele>
        <time>2015-04-06T09:51:38Z</time>
      </trkpt>
      <trkpt lat="50.71456" lon="3.33345">
        <ele>10.23</ele>
        <time>2015-04-06T09:51:39Z</time>
      </trkpt>
      <trkpt lat="50.71457" lon="3.33337">
        <ele>9.75</ele>
        <time>2015-04-06T09:51:40Z</time>
      </trkpt>
      <trkpt lat="50.71458" lon="3.33329">
        <ele>10.23</ele>
        <time>2015-04-06T09:51:41Z</time>
      </trkpt>
      <trkpt lat="50.71459" lon="3.3332">
        <ele>10.23</ele>
        <time>2015-04-06T09:51:42Z</time>
      </trkpt>
      <trkpt lat="50.71459" lon="3.33294">
        <ele>10.23</ele>
        <time>2015-04-06T09:51:45Z</time>
      </trkpt>
      <trkpt lat="50.71452" lon="3.3322">
        <ele>12.63</ele>
        <time>2015-04-06T09:51:53Z</time>
      </trkpt>
      <trkpt lat="50.71447" lon="3.33141">
        <ele>13.12</ele>
        <time>2015-04-06T09:52:01Z</time>
      </trkpt>
      <trkpt lat="50.71438" lon="3.33055">
        <ele>13.12</ele>
        <time>2015-04-06T09:52:10Z</time>
      </trkpt>
      <trkpt lat="50.7143" lon="3.32973">
        <ele>13.12</ele>
        <time>2015-04-06T09:52:18Z</time>
      </trkpt>
      <trkpt lat="50.71424" lon="3.32904">
        <ele>13.6</ele>
        <time>2015-04-06T09:52:25Z</time>
      </trkpt>
      <trkpt lat="50.71415" lon="3.32818">
        <ele>13.6</ele>
        <time>2015-04-06T09:52:34Z</time>
      </trkpt>
      <trkpt lat="50.71404" lon="3.32773">
        <ele>14.08</ele>
        <time>2015-04-06T09:52:39Z</time>
      </trkpt>
      <trkpt lat="50.71378" lon="3.32719">
        <ele>15.04</ele>
        <time>2015-04-06T09:52:46Z</time>
      </trkpt>
      <trkpt lat="50.71346" lon="3.32663">
        <ele>16</ele>
        <time>2015-04-06T09:52:54Z</time>
      </trkpt>
      <trkpt lat="50.71309" lon="3.32601">
        <ele>17.44</ele>
        <time>2015-04-06T09:53:03Z</time>
      </trkpt>
      <trkpt lat="50.71282" lon="3.32554">
        <ele>17.92</ele>
        <time>2015-04-06T09:53:10Z</time>
      </trkpt>
      <trkpt lat="50.71249" lon="3.32498">
        <ele>16.96</ele>
        <time>2015-04-06T09:53:18Z</time>
      </trkpt>
      <trkpt lat="50.71218" lon="3.32446">
        <ele>16.96</ele>
        <time>2015-04-06T09:53:26Z</time>
      </trkpt>
      <trkpt lat="50.71179" lon="3.32382">
        <ele>16.96</ele>
        <time>2015-04-06T09:53:36Z</time>
      </trkpt>
      <trkpt lat="50.71158" lon="3.32343">
        <ele>16.48</ele>
        <time>2015-04-06T09:53:42Z</time>
      </trkpt>
      <trkpt lat="50.71154" lon="3.32337">
        <ele>16.48</ele>
        <time>2015-04-06T09:53:43Z</time>
      </trkpt>
      <trkpt lat="50.71143" lon="3.32317">
        <ele>16.48</ele>
        <time>2015-04-06T09:53:46Z</time>
      </trkpt>
      <trkpt lat="50.71121" lon="3.3228">
        <ele>16.48</ele>
        <time>2015-04-06T09:53:52Z</time>
      </trkpt>
      <trkpt lat="50.71103" lon="3.32248">
        <ele>16.48</ele>
        <time>2015-04-06T09:53:57Z</time>
      </trkpt>
      <trkpt lat="50.71099" lon="3.32242">
        <ele>16</ele>
        <time>2015-04-06T09:53:58Z</time>
      </trkpt>
      <trkpt lat="50.71071" lon="3.32193">
        <ele>16.48</ele>
        <time>2015-04-06T09:54:06Z</time>
      </trkpt>
      <trkpt lat="50.71067" lon="3.32188">
        <ele>16.96</ele>
        <time>2015-04-06T09:54:07Z</time>
      </trkpt>
      <trkpt lat="50.71064" lon="3.32182">
        <ele>16.96</ele>
        <time>2015-04-06T09:54:08Z</time>
      </trkpt>
      <trkpt lat="50.71042" lon="3.32144">
        <ele>17.92</ele>
        <time>2015-04-06T09:54:15Z</time>
      </trkpt>
      <trkpt lat="50.71039" lon="3.32138">
        <ele>17.92</ele>
        <time>2015-04-06T09:54:16Z</time>
      </trkpt>
      <trkpt lat="50.71036" lon="3.32132">
        <ele>18.4</ele>
        <time>2015-04-06T09:54:17Z</time>
      </trkpt>
      <trkpt lat="50.71016" lon="3.32096">
        <ele>18.4</ele>
        <time>2015-04-06T09:54:23Z</time>
      </trkpt>
      <trkpt lat="50.71009" lon="3.32084">
        <ele>18.4</ele>
        <time>2015-04-06T09:54:25Z</time>
      </trkpt>
      <trkpt lat="50.70988" lon="3.3205">
        <ele>18.88</ele>
        <time>2015-04-06T09:54:31Z</time>
      </trkpt>
      <trkpt lat="50.70979" lon="3.32034">
        <ele>18.4</ele>
        <time>2015-04-06T09:54:34Z</time>
      </trkpt>
      <trkpt lat="50.70957" lon="3.31999">
        <ele>17.92</ele>
        <time>2015-04-06T09:54:42Z</time>
      </trkpt>
      <trkpt lat="50.7095" lon="3.31985">
        <ele>17.92</ele>
        <time>2015-04-06T09:54:45Z</time>
      </trkpt>
      <trkpt lat="50.70926" lon="3.31927">
        <ele>16.96</ele>
        <time>2015-04-06T09:54:54Z</time>
      </trkpt>
      <trkpt lat="50.70914" lon="3.31893">
        <ele>16</ele>
        <time>2015-04-06T09:55:00Z</time>
      </trkpt>
      <trkpt lat="50.70911" lon="3.31887">
        <ele>16</ele>
        <time>2015-04-06T09:55:01Z</time>
      </trkpt>
      <trkpt lat="50.70885" lon="3.31822">
        <ele>14.56</ele>
        <time>2015-04-06T09:55:10Z</time>
      </trkpt>
      <trkpt lat="50.70862" lon="3.31761">
        <ele>14.56</ele>
        <time>2015-04-06T09:55:18Z</time>
      </trkpt>
      <trkpt lat="50.70837" lon="3.31692">
        <ele>14.56</ele>
        <time>2015-04-06T09:55:27Z</time>
      </trkpt>
      <trkpt lat="50.70814" lon="3.31634">
        <ele>17.92</ele>
        <time>2015-04-06T09:55:35Z</time>
      </trkpt>
      <trkpt lat="50.70811" lon="3.31627">
        <ele>17.92</ele>
        <time>2015-04-06T09:55:36Z</time>
      </trkpt>
      <trkpt lat="50.70801" lon="3.31598">
        <ele>19.84</ele>
        <time>2015-04-06T09:55:40Z</time>
      </trkpt>
      <trkpt lat="50.70799" lon="3.31591">
        <ele>20.32</ele>
        <time>2015-04-06T09:55:41Z</time>
      </trkpt>
      <trkpt lat="50.70783" lon="3.31548">
        <ele>22.25</ele>
        <time>2015-04-06T09:55:47Z</time>
      </trkpt>
      <trkpt lat="50.70763" lon="3.31496">
        <ele>22.73</ele>
        <time>2015-04-06T09:55:54Z</time>
      </trkpt>
      <trkpt lat="50.70746" lon="3.3145">
        <ele>23.21</ele>
        <time>2015-04-06T09:56:00Z</time>
      </trkpt>
      <trkpt lat="50.70717" lon="3.31383">
        <ele>24.17</ele>
        <time>2015-04-06T09:56:09Z</time>
      </trkpt>
      <trkpt lat="50.70693" lon="3.31335">
        <ele>24.65</ele>
        <time>2015-04-06T09:56:16Z</time>
      </trkpt>
      <trkpt lat="50.7068" lon="3.31308">
        <ele>25.61</ele>
        <time>2015-04-06T09:56:20Z</time>
      </trkpt>
      <trkpt lat="50.70663" lon="3.31276">
        <ele>26.57</ele>
        <time>2015-04-06T09:56:25Z</time>
      </trkpt>
      <trkpt lat="50.70659" lon="3.31269">
        <ele>26.09</ele>
        <time>2015-04-06T09:56:26Z</time>
      </trkpt>
      <trkpt lat="50.70655" lon="3.31262">
        <ele>26.09</ele>
        <time>2015-04-06T09:56:27Z</time>
      </trkpt>
      <trkpt lat="50.70622" lon="3.31198">
        <ele>25.61</ele>
        <time>2015-04-06T09:56:36Z</time>
      </trkpt>
      <trkpt lat="50.70593" lon="3.31144">
        <ele>23.69</ele>
        <time>2015-04-06T09:56:44Z</time>
      </trkpt>
      <trkpt lat="50.70579" lon="3.31119">
        <ele>21.77</ele>
        <time>2015-04-06T09:56:48Z</time>
      </trkpt>
      <trkpt lat="50.70547" lon="3.3107">
        <ele>19.36</ele>
        <time>2015-04-06T09:56:57Z</time>
      </trkpt>
      <trkpt lat="50.70521" lon="3.31029">
        <ele>19.36</ele>
        <time>2015-04-06T09:57:05Z</time>
      </trkpt>
      <trkpt lat="50.70497" lon="3.3099">
        <ele>18.4</ele>
        <time>2015-04-06T09:57:13Z</time>
      </trkpt>
      <trkpt lat="50.70477" lon="3.30959">
        <ele>17.92</ele>
        <time>2015-04-06T09:57:20Z</time>
      </trkpt>
      <trkpt lat="50.7045" lon="3.30917">
        <ele>17.44</ele>
        <time>2015-04-06T09:57:28Z</time>
      </trkpt>
      <trkpt lat="50.70422" lon="3.30871">
        <ele>17.92</ele>
        <time>2015-04-06T09:57:36Z</time>
      </trkpt>
      <trkpt lat="50.70393" lon="3.30826">
        <ele>18.4</ele>
        <time>2015-04-06T09:57:44Z</time>
      </trkpt>
      <trkpt lat="50.7039" lon="3.30821">
        <ele>18.4</ele>
        <time>2015-04-06T09:57:45Z</time>
      </trkpt>
      <trkpt lat="50.7038" lon="3.30804">
        <ele>18.4</ele>
        <time>2015-04-06T09:57:48Z</time>
      </trkpt>
      <trkpt lat="50.70376" lon="3.30799">
        <ele>18.4</ele>
        <time>2015-04-06T09:57:49Z</time>
      </trkpt>
      <trkpt lat="50.70373" lon="3.30793">
        <ele>18.4</ele>
        <time>2015-04-06T09:57:50Z</time>
      </trkpt>
      <trkpt lat="50.70352" lon="3.30762">
        <ele>18.4</ele>
        <time>2015-04-06T09:57:56Z</time>
      </trkpt>
      <trkpt lat="50.70335" lon="3.30732">
        <ele>18.4</ele>
        <time>2015-04-06T09:58:01Z</time>
      </trkpt>
      <trkpt lat="50.70325" lon="3.30702">
        <ele>18.4</ele>
        <time>2015-04-06T09:58:05Z</time>
      </trkpt>
      <trkpt lat="50.70322" lon="3.30686">
        <ele>18.4</ele>
        <time>2015-04-06T09:58:07Z</time>
      </trkpt>
      <trkpt lat="50.70321" lon="3.30679">
        <ele>18.4</ele>
        <time>2015-04-06T09:58:08Z</time>
      </trkpt>
      <trkpt lat="50.7032" lon="3.30662">
        <ele>18.4</ele>
        <time>2015-04-06T09:58:10Z</time>
      </trkpt>
      <trkpt lat="50.70318" lon="3.30638">
        <ele>17.92</ele>
        <time>2015-04-06T09:58:13Z</time>
      </trkpt>
      <trkpt lat="50.70318" lon="3.30629">
        <ele>17.92</ele>
        <time>2015-04-06T09:58:14Z</time>
      </trkpt>
      <trkpt lat="50.70315" lon="3.30553">
        <ele>16.96</ele>
        <time>2015-04-06T09:58:23Z</time>
      </trkpt>
      <trkpt lat="50.70314" lon="3.30519">
        <ele>16.96</ele>
        <time>2015-04-06T09:58:27Z</time>
      </trkpt>
      <trkpt lat="50.70314" lon="3.30511">
        <ele>16.96</ele>
        <time>2015-04-06T09:58:28Z</time>
      </trkpt>
      <trkpt lat="50.70311" lon="3.30453">
        <ele>16.48</ele>
        <time>2015-04-06T09:58:35Z</time>
      </trkpt>
      <trkpt lat="50.7031" lon="3.30444">
        <ele>16.48</ele>
        <time>2015-04-06T09:58:36Z</time>
      </trkpt>
      <trkpt lat="50.7031" lon="3.30436">
        <ele>16.48</ele>
        <time>2015-04-06T09:58:37Z</time>
      </trkpt>
      <trkpt lat="50.7031" lon="3.30428">
        <ele>16</ele>
        <time>2015-04-06T09:58:38Z</time>
      </trkpt>
      <trkpt lat="50.7031" lon="3.30421">
        <ele>15.52</ele>
        <time>2015-04-06T09:58:39Z</time>
      </trkpt>
      <trkpt lat="50.7031" lon="3.30412">
        <ele>15.52</ele>
        <time>2015-04-06T09:58:40Z</time>
      </trkpt>
      <trkpt lat="50.70307" lon="3.30342">
        <ele>15.04</ele>
        <time>2015-04-06T09:58:48Z</time>
      </trkpt>
      <trkpt lat="50.70302" lon="3.3026">
        <ele>15.04</ele>
        <time>2015-04-06T09:58:57Z</time>
      </trkpt>
      <trkpt lat="50.70294" lon="3.30204">
        <ele>14.08</ele>
        <time>2015-04-06T09:59:03Z</time>
      </trkpt>
      <trkpt lat="50.70288" lon="3.30178">
        <ele>13.6</ele>
        <time>2015-04-06T09:59:06Z</time>
      </trkpt>
      <trkpt lat="50.7028" lon="3.30155">
        <ele>14.08</ele>
        <time>2015-04-06T09:59:09Z</time>
      </trkpt>
      <trkpt lat="50.70261" lon="3.30104">
        <ele>14.56</ele>
        <time>2015-04-06T09:59:17Z</time>
      </trkpt>
      <trkpt lat="50.70259" lon="3.30098">
        <ele>14.56</ele>
        <time>2015-04-06T09:59:18Z</time>
      </trkpt>
      <trkpt lat="50.7025" lon="3.30078">
        <ele>15.04</ele>
        <time>2015-04-06T09:59:22Z</time>
      </trkpt>
      <trkpt lat="50.70248" lon="3.30073">
        <ele>15.04</ele>
        <time>2015-04-06T09:59:23Z</time>
      </trkpt>
      <trkpt lat="50.70246" lon="3.30067">
        <ele>15.04</ele>
        <time>2015-04-06T09:59:24Z</time>
      </trkpt>
      <trkpt lat="50.70228" lon="3.30021">
        <ele>14.56</ele>
        <time>2015-04-06T09:59:31Z</time>
      </trkpt>
      <trkpt lat="50.70211" lon="3.29978">
        <ele>14.08</ele>
        <time>2015-04-06T09:59:37Z</time>
      </trkpt>
      <trkpt lat="50.70189" lon="3.2992">
        <ele>14.56</ele>
        <time>2015-04-06T09:59:45Z</time>
      </trkpt>
      <trkpt lat="50.70164" lon="3.29855">
        <ele>14.56</ele>
        <time>2015-04-06T09:59:54Z</time>
      </trkpt>
      <trkpt lat="50.70141" lon="3.29796">
        <ele>15.52</ele>
        <time>2015-04-06T10:00:02Z</time>
      </trkpt>
      <trkpt lat="50.7012" lon="3.2974">
        <ele>16.96</ele>
        <time>2015-04-06T10:00:10Z</time>
      </trkpt>
      <trkpt lat="50.70105" lon="3.29699">
        <ele>17.44</ele>
        <time>2015-04-06T10:00:16Z</time>
      </trkpt>
      <trkpt lat="50.70103" lon="3.29692">
        <ele>16.96</ele>
        <time>2015-04-06T10:00:17Z</time>
      </trkpt>
      <trkpt lat="50.70079" lon="3.29631">
        <ele>16.96</ele>
        <time>2015-04-06T10:00:25Z</time>
      </trkpt>
      <trkpt lat="50.70063" lon="3.29581">
        <ele>17.44</ele>
        <time>2015-04-06T10:00:32Z</time>
      </trkpt>
      <trkpt lat="50.70042" lon="3.29527">
        <ele>18.4</ele>
        <time>2015-04-06T10:00:39Z</time>
      </trkpt>
      <trkpt lat="50.7002" lon="3.29475">
        <ele>17.92</ele>
        <time>2015-04-06T10:00:46Z</time>
      </trkpt>
      <trkpt lat="50.69994" lon="3.29409">
        <ele>17.44</ele>
        <time>2015-04-06T10:00:55Z</time>
      </trkpt>
      <trkpt lat="50.69991" lon="3.29402">
        <ele>17.44</ele>
        <time>2015-04-06T10:00:56Z</time>
      </trkpt>
      <trkpt lat="50.69989" lon="3.29395">
        <ele>16.96</ele>
        <time>2015-04-06T10:00:57Z</time>
      </trkpt>
      <trkpt lat="50.69988" lon="3.29389">
        <ele>16.96</ele>
        <time>2015-04-06T10:00:58Z</time>
      </trkpt>
      <trkpt lat="50.69974" lon="3.29328">
        <ele>16.96</ele>
        <time>2015-04-06T10:01:07Z</time>
      </trkpt>
      <trkpt lat="50.69961" lon="3.2927">
        <ele>16</ele>
        <time>2015-04-06T10:01:15Z</time>
      </trkpt>
      <trkpt lat="50.69955" lon="3.29243">
        <ele>15.52</ele>
        <time>2015-04-06T10:01:19Z</time>
      </trkpt>
      <trkpt lat="50.69953" lon="3.29236">
        <ele>15.52</ele>
        <time>2015-04-06T10:01:20Z</time>
      </trkpt>
      <trkpt lat="50.69952" lon="3.29228">
        <ele>15.52</ele>
        <time>2015-04-06T10:01:21Z</time>
      </trkpt>
      <trkpt lat="50.69951" lon="3.29221">
        <ele>15.52</ele>
        <time>2015-04-06T10:01:22Z</time>
      </trkpt>
      <trkpt lat="50.69949" lon="3.29214">
        <ele>15.52</ele>
        <time>2015-04-06T10:01:23Z</time>
      </trkpt>
      <trkpt lat="50.69934" lon="3.29143">
        <ele>15.04</ele>
        <time>2015-04-06T10:01:32Z</time>
      </trkpt>
      <trkpt lat="50.6992" lon="3.29081">
        <ele>15.04</ele>
        <time>2015-04-06T10:01:40Z</time>
      </trkpt>
      <trkpt lat="50.69907" lon="3.29017">
        <ele>15.52</ele>
        <time>2015-04-06T10:01:48Z</time>
      </trkpt>
      <trkpt lat="50.69905" lon="3.2901">
        <ele>15.52</ele>
        <time>2015-04-06T10:01:49Z</time>
      </trkpt>
      <trkpt lat="50.69891" lon="3.28948">
        <ele>14.56</ele>
        <time>2015-04-06T10:01:57Z</time>
      </trkpt>
      <trkpt lat="50.69878" lon="3.2889">
        <ele>14.56</ele>
        <time>2015-04-06T10:02:05Z</time>
      </trkpt>
      <trkpt lat="50.69877" lon="3.28883">
        <ele>14.56</ele>
        <time>2015-04-06T10:02:06Z</time>
      </trkpt>
      <trkpt lat="50.69873" lon="3.28867">
        <ele>15.04</ele>
        <time>2015-04-06T10:02:08Z</time>
      </trkpt>
      <trkpt lat="50.69859" lon="3.28798">
        <ele>15.52</ele>
        <time>2015-04-06T10:02:17Z</time>
      </trkpt>
      <trkpt lat="50.69847" lon="3.28742">
        <ele>16</ele>
        <time>2015-04-06T10:02:24Z</time>
      </trkpt>
      <trkpt lat="50.69831" lon="3.28672">
        <ele>16</ele>
        <time>2015-04-06T10:02:33Z</time>
      </trkpt>
      <trkpt lat="50.69819" lon="3.28616">
        <ele>15.52</ele>
        <time>2015-04-06T10:02:40Z</time>
      </trkpt>
      <trkpt lat="50.69813" lon="3.28585">
        <ele>15.52</ele>
        <time>2015-04-06T10:02:44Z</time>
      </trkpt>
      <trkpt lat="50.69796" lon="3.28513">
        <ele>15.04</ele>
        <time>2015-04-06T10:02:53Z</time>
      </trkpt>
      <trkpt lat="50.69783" lon="3.28452">
        <ele>13.12</ele>
        <time>2015-04-06T10:03:01Z</time>
      </trkpt>
      <trkpt lat="50.69772" lon="3.28413">
        <ele>12.15</ele>
        <time>2015-04-06T10:03:06Z</time>
      </trkpt>
      <trkpt lat="50.6977" lon="3.28405">
        <ele>12.15</ele>
        <time>2015-04-06T10:03:07Z</time>
      </trkpt>
      <trkpt lat="50.69754" lon="3.28354">
        <ele>12.15</ele>
        <time>2015-04-06T10:03:14Z</time>
      </trkpt>
      <trkpt lat="50.69753" lon="3.28347">
        <ele>12.15</ele>
        <time>2015-04-06T10:03:15Z</time>
      </trkpt>
      <trkpt lat="50.69751" lon="3.2834">
        <ele>12.15</ele>
        <time>2015-04-06T10:03:16Z</time>
      </trkpt>
      <trkpt lat="50.69736" lon="3.28287">
        <ele>13.12</ele>
        <time>2015-04-06T10:03:23Z</time>
      </trkpt>
      <trkpt lat="50.69716" lon="3.28219">
        <ele>13.6</ele>
        <time>2015-04-06T10:03:32Z</time>
      </trkpt>
      <trkpt lat="50.69711" lon="3.28205">
        <ele>13.6</ele>
        <time>2015-04-06T10:03:34Z</time>
      </trkpt>
      <trkpt lat="50.69708" lon="3.28199">
        <ele>14.08</ele>
        <time>2015-04-06T10:03:35Z</time>
      </trkpt>
      <trkpt lat="50.69706" lon="3.28192">
        <ele>13.6</ele>
        <time>2015-04-06T10:03:36Z</time>
      </trkpt>
      <trkpt lat="50.69704" lon="3.28185">
        <ele>13.6</ele>
        <time>2015-04-06T10:03:37Z</time>
      </trkpt>
      <trkpt lat="50.69702" lon="3.28179">
        <ele>13.6</ele>
        <time>2015-04-06T10:03:38Z</time>
      </trkpt>
      <trkpt lat="50.697" lon="3.28172">
        <ele>14.08</ele>
        <time>2015-04-06T10:03:39Z</time>
      </trkpt>
      <trkpt lat="50.69688" lon="3.28125">
        <ele>15.04</ele>
        <time>2015-04-06T10:03:46Z</time>
      </trkpt>
      <trkpt lat="50.69672" lon="3.28068">
        <ele>15.52</ele>
        <time>2015-04-06T10:03:54Z</time>
      </trkpt>
      <trkpt lat="50.69659" lon="3.28015">
        <ele>14.08</ele>
        <time>2015-04-06T10:04:02Z</time>
      </trkpt>
      <trkpt lat="50.69645" lon="3.27965">
        <ele>14.56</ele>
        <time>2015-04-06T10:04:09Z</time>
      </trkpt>
      <trkpt lat="50.69637" lon="3.27936">
        <ele>15.04</ele>
        <time>2015-04-06T10:04:13Z</time>
      </trkpt>
      <trkpt lat="50.69635" lon="3.27929">
        <ele>15.04</ele>
        <time>2015-04-06T10:04:14Z</time>
      </trkpt>
      <trkpt lat="50.6962" lon="3.27878">
        <ele>15.52</ele>
        <time>2015-04-06T10:04:21Z</time>
      </trkpt>
      <trkpt lat="50.69609" lon="3.27836">
        <ele>14.56</ele>
        <time>2015-04-06T10:04:27Z</time>
      </trkpt>
      <trkpt lat="50.69604" lon="3.27821">
        <ele>14.56</ele>
        <time>2015-04-06T10:04:29Z</time>
      </trkpt>
      <trkpt lat="50.69584" lon="3.27753">
        <ele>14.08</ele>
        <time>2015-04-06T10:04:38Z</time>
      </trkpt>
      <trkpt lat="50.69579" lon="3.27739">
        <ele>14.08</ele>
        <time>2015-04-06T10:04:40Z</time>
      </trkpt>
      <trkpt lat="50.69577" lon="3.27732">
        <ele>14.08</ele>
        <time>2015-04-06T10:04:41Z</time>
      </trkpt>
      <trkpt lat="50.69563" lon="3.2768">
        <ele>14.56</ele>
        <time>2015-04-06T10:04:48Z</time>
      </trkpt>
      <trkpt lat="50.6956" lon="3.27673">
        <ele>14.56</ele>
        <time>2015-04-06T10:04:49Z</time>
      </trkpt>
      <trkpt lat="50.69551" lon="3.27637">
        <ele>14.56</ele>
        <time>2015-04-06T10:04:54Z</time>
      </trkpt>
      <trkpt lat="50.69545" lon="3.27612">
        <ele>14.56</ele>
        <time>2015-04-06T10:04:58Z</time>
      </trkpt>
      <trkpt lat="50.69543" lon="3.27604">
        <ele>14.56</ele>
        <time>2015-04-06T10:04:59Z</time>
      </trkpt>
      <trkpt lat="50.69532" lon="3.27562">
        <ele>13.6</ele>
        <time>2015-04-06T10:05:05Z</time>
      </trkpt>
      <trkpt lat="50.69525" lon="3.27541">
        <ele>13.6</ele>
        <time>2015-04-06T10:05:08Z</time>
      </trkpt>
      <trkpt lat="50.6951" lon="3.2749">
        <ele>14.08</ele>
        <time>2015-04-06T10:05:15Z</time>
      </trkpt>
      <trkpt lat="50.69507" lon="3.27482">
        <ele>14.08</ele>
        <time>2015-04-06T10:05:16Z</time>
      </trkpt>
      <trkpt lat="50.69505" lon="3.27475">
        <ele>14.08</ele>
        <time>2015-04-06T10:05:17Z</time>
      </trkpt>
      <trkpt lat="50.69503" lon="3.27467">
        <ele>14.08</ele>
        <time>2015-04-06T10:05:18Z</time>
      </trkpt>
      <trkpt lat="50.69484" lon="3.27404">
        <ele>15.04</ele>
        <time>2015-04-06T10:05:26Z</time>
      </trkpt>
      <trkpt lat="50.69472" lon="3.27365">
        <ele>15.04</ele>
        <time>2015-04-06T10:05:31Z</time>
      </trkpt>
      <trkpt lat="50.6947" lon="3.27357">
        <ele>15.04</ele>
        <time>2015-04-06T10:05:32Z</time>
      </trkpt>
      <trkpt lat="50.69467" lon="3.27348">
        <ele>15.04</ele>
        <time>2015-04-06T10:05:33Z</time>
      </trkpt>
      <trkpt lat="50.69452" lon="3.27295">
        <ele>15.52</ele>
        <time>2015-04-06T10:05:40Z</time>
      </trkpt>
      <trkpt lat="50.6944" lon="3.27258">
        <ele>16.48</ele>
        <time>2015-04-06T10:05:45Z</time>
      </trkpt>
      <trkpt lat="50.69421" lon="3.27189">
        <ele>18.4</ele>
        <time>2015-04-06T10:05:54Z</time>
      </trkpt>
      <trkpt lat="50.6941" lon="3.27144">
        <ele>18.88</ele>
        <time>2015-04-06T10:06:00Z</time>
      </trkpt>
      <trkpt lat="50.69405" lon="3.27129">
        <ele>18.4</ele>
        <time>2015-04-06T10:06:02Z</time>
      </trkpt>
      <trkpt lat="50.69402" lon="3.27122">
        <ele>18.4</ele>
        <time>2015-04-06T10:06:03Z</time>
      </trkpt>
      <trkpt lat="50.69382" lon="3.2706">
        <ele>17.92</ele>
        <time>2015-04-06T10:06:11Z</time>
      </trkpt>
      <trkpt lat="50.6938" lon="3.27053">
        <ele>17.92</ele>
        <time>2015-04-06T10:06:12Z</time>
      </trkpt>
      <trkpt lat="50.69374" lon="3.27032">
        <ele>17.92</ele>
        <time>2015-04-06T10:06:15Z</time>
      </trkpt>
      <trkpt lat="50.6937" lon="3.27017">
        <ele>18.4</ele>
        <time>2015-04-06T10:06:17Z</time>
      </trkpt>
      <trkpt lat="50.69353" lon="3.26962">
        <ele>18.88</ele>
        <time>2015-04-06T10:06:24Z</time>
      </trkpt>
      <trkpt lat="50.69337" lon="3.26908">
        <ele>18.88</ele>
        <time>2015-04-06T10:06:32Z</time>
      </trkpt>
      <trkpt lat="50.69321" lon="3.26855">
        <ele>18.4</ele>
        <time>2015-04-06T10:06:39Z</time>
      </trkpt>
      <trkpt lat="50.69304" lon="3.26802">
        <ele>19.84</ele>
        <time>2015-04-06T10:06:46Z</time>
      </trkpt>
      <trkpt lat="50.69298" lon="3.26779">
        <ele>19.36</ele>
        <time>2015-04-06T10:06:49Z</time>
      </trkpt>
      <trkpt lat="50.69297" lon="3.26772">
        <ele>19.36</ele>
        <time>2015-04-06T10:06:50Z</time>
      </trkpt>
      <trkpt lat="50.6928" lon="3.26717">
        <ele>18.4</ele>
        <time>2015-04-06T10:06:57Z</time>
      </trkpt>
      <trkpt lat="50.69271" lon="3.26687">
        <ele>17.92</ele>
        <time>2015-04-06T10:07:01Z</time>
      </trkpt>
      <trkpt lat="50.69269" lon="3.26679">
        <ele>17.44</ele>
        <time>2015-04-06T10:07:02Z</time>
      </trkpt>
      <trkpt lat="50.69251" lon="3.26619">
        <ele>17.44</ele>
        <time>2015-04-06T10:07:10Z</time>
      </trkpt>
      <trkpt lat="50.6924" lon="3.2658">
        <ele>17.44</ele>
        <time>2015-04-06T10:07:15Z</time>
      </trkpt>
      <trkpt lat="50.6922" lon="3.2651">
        <ele>16.96</ele>
        <time>2015-04-06T10:07:24Z</time>
      </trkpt>
      <trkpt lat="50.69213" lon="3.26488">
        <ele>17.44</ele>
        <time>2015-04-06T10:07:27Z</time>
      </trkpt>
      <trkpt lat="50.69211" lon="3.26482">
        <ele>17.44</ele>
        <time>2015-04-06T10:07:28Z</time>
      </trkpt>
      <trkpt lat="50.69197" lon="3.26434">
        <ele>16.96</ele>
        <time>2015-04-06T10:07:35Z</time>
      </trkpt>
      <trkpt lat="50.69191" lon="3.26413">
        <ele>16.96</ele>
        <time>2015-04-06T10:07:38Z</time>
      </trkpt>
      <trkpt lat="50.69172" lon="3.26344">
        <ele>15.52</ele>
        <time>2015-04-06T10:07:47Z</time>
      </trkpt>
      <trkpt lat="50.69157" lon="3.26292">
        <ele>15.52</ele>
        <time>2015-04-06T10:07:54Z</time>
      </trkpt>
      <trkpt lat="50.69136" lon="3.26222">
        <ele>16</ele>
        <time>2015-04-06T10:08:03Z</time>
      </trkpt>
      <trkpt lat="50.69115" lon="3.26154">
        <ele>16</ele>
        <time>2015-04-06T10:08:12Z</time>
      </trkpt>
      <trkpt lat="50.69113" lon="3.26146">
        <ele>15.52</ele>
        <time>2015-04-06T10:08:13Z</time>
      </trkpt>
      <trkpt lat="50.69111" lon="3.26137">
        <ele>15.52</ele>
        <time>2015-04-06T10:08:14Z</time>
      </trkpt>
      <trkpt lat="50.69107" lon="3.26105">
        <ele>16</ele>
        <time>2015-04-06T10:08:18Z</time>
      </trkpt>
      <trkpt lat="50.69106" lon="3.26097">
        <ele>16</ele>
        <time>2015-04-06T10:08:19Z</time>
      </trkpt>
      <trkpt lat="50.691" lon="3.2603">
        <ele>16.48</ele>
        <time>2015-04-06T10:08:27Z</time>
      </trkpt>
      <trkpt lat="50.691" lon="3.25964">
        <ele>17.92</ele>
        <time>2015-04-06T10:08:35Z</time>
      </trkpt>
      <trkpt lat="50.691" lon="3.25956">
        <ele>17.92</ele>
        <time>2015-04-06T10:08:36Z</time>
      </trkpt>
      <trkpt lat="50.691" lon="3.25948">
        <ele>17.92</ele>
        <time>2015-04-06T10:08:37Z</time>
      </trkpt>
      <trkpt lat="50.69099" lon="3.25907">
        <ele>18.88</ele>
        <time>2015-04-06T10:08:42Z</time>
      </trkpt>
      <trkpt lat="50.69099" lon="3.25899">
        <ele>19.36</ele>
        <time>2015-04-06T10:08:43Z</time>
      </trkpt>
      <trkpt lat="50.69099" lon="3.25838">
        <ele>19.84</ele>
        <time>2015-04-06T10:08:51Z</time>
      </trkpt>
      <trkpt lat="50.691" lon="3.25831">
        <ele>19.84</ele>
        <time>2015-04-06T10:08:52Z</time>
      </trkpt>
      <trkpt lat="50.69101" lon="3.25801">
        <ele>20.81</ele>
        <time>2015-04-06T10:08:56Z</time>
      </trkpt>
      <trkpt lat="50.69101" lon="3.25794">
        <ele>20.81</ele>
        <time>2015-04-06T10:08:57Z</time>
      </trkpt>
      <trkpt lat="50.69101" lon="3.2578">
        <ele>21.29</ele>
        <time>2015-04-06T10:08:59Z</time>
      </trkpt>
      <trkpt lat="50.69101" lon="3.25773">
        <ele>21.29</ele>
        <time>2015-04-06T10:09:00Z</time>
      </trkpt>
      <trkpt lat="50.69102" lon="3.25766">
        <ele>21.29</ele>
        <time>2015-04-06T10:09:01Z</time>
      </trkpt>
      <trkpt lat="50.69102" lon="3.2576">
        <ele>21.29</ele>
        <time>2015-04-06T10:09:02Z</time>
      </trkpt>
      <trkpt lat="50.69103" lon="3.25754">
        <ele>21.29</ele>
        <time>2015-04-06T10:09:03Z</time>
      </trkpt>
      <trkpt lat="50.691" lon="3.25718">
        <ele>21.29</ele>
        <time>2015-04-06T10:09:09Z</time>
      </trkpt>
      <trkpt lat="50.691" lon="3.25669">
        <ele>21.29</ele>
        <time>2015-04-06T10:09:16Z</time>
      </trkpt>
      <trkpt lat="50.691" lon="3.25601">
        <ele>19.84</ele>
        <time>2015-04-06T10:09:25Z</time>
      </trkpt>
      <trkpt lat="50.69099" lon="3.25578">
        <ele>19.84</ele>
        <time>2015-04-06T10:09:28Z</time>
      </trkpt>
      <trkpt lat="50.69099" lon="3.2557">
        <ele>20.32</ele>
        <time>2015-04-06T10:09:29Z</time>
      </trkpt>
      <trkpt lat="50.69099" lon="3.25563">
        <ele>20.32</ele>
        <time>2015-04-06T10:09:30Z</time>
      </trkpt>
      <trkpt lat="50.69099" lon="3.25556">
        <ele>20.81</ele>
        <time>2015-04-06T10:09:31Z</time>
      </trkpt>
      <trkpt lat="50.69099" lon="3.25549">
        <ele>20.81</ele>
        <time>2015-04-06T10:09:32Z</time>
      </trkpt>
      <trkpt lat="50.691" lon="3.25512">
        <ele>21.77</ele>
        <time>2015-04-06T10:09:38Z</time>
      </trkpt>
      <trkpt lat="50.69101" lon="3.25482">
        <ele>22.73</ele>
        <time>2015-04-06T10:09:43Z</time>
      </trkpt>
      <trkpt lat="50.69105" lon="3.25453">
        <ele>23.69</ele>
        <time>2015-04-06T10:09:48Z</time>
      </trkpt>
      <trkpt lat="50.69108" lon="3.25438">
        <ele>24.65</ele>
        <time>2015-04-06T10:09:52Z</time>
      </trkpt>
      <trkpt lat="50.69109" lon="3.25436">
        <ele>25.13</ele>
        <time>2015-04-06T10:09:53Z</time>
      </trkpt>
      <trkpt lat="50.6911" lon="3.25433">
        <ele>25.13</ele>
        <time>2015-04-06T10:09:54Z</time>
      </trkpt>
      <trkpt lat="50.69119" lon="3.25417">
        <ele>25.61</ele>
        <time>2015-04-06T10:09:59Z</time>
      </trkpt>
      <trkpt lat="50.69131" lon="3.25397">
        <ele>25.13</ele>
        <time>2015-04-06T10:10:05Z</time>
      </trkpt>
      <trkpt lat="50.69133" lon="3.25391">
        <ele>25.13</ele>
        <time>2015-04-06T10:10:06Z</time>
      </trkpt>
      <trkpt lat="50.69136" lon="3.25386">
        <ele>24.65</ele>
        <time>2015-04-06T10:10:07Z</time>
      </trkpt>
      <trkpt lat="50.69138" lon="3.2538">
        <ele>24.17</ele>
        <time>2015-04-06T10:10:08Z</time>
      </trkpt>
      <trkpt lat="50.69149" lon="3.25347">
        <ele>23.69</ele>
        <time>2015-04-06T10:10:13Z</time>
      </trkpt>
      <trkpt lat="50.6915" lon="3.25341">
        <ele>23.69</ele>
        <time>2015-04-06T10:10:14Z</time>
      </trkpt>
      <trkpt lat="50.69158" lon="3.25283">
        <ele>21.29</ele>
        <time>2015-04-06T10:10:22Z</time>
      </trkpt>
      <trkpt lat="50.6916" lon="3.25249">
        <ele>21.29</ele>
        <time>2015-04-06T10:10:27Z</time>
      </trkpt>
      <trkpt lat="50.6916" lon="3.25243">
        <ele>21.29</ele>
        <time>2015-04-06T10:10:28Z</time>
      </trkpt>
      <trkpt lat="50.69163" lon="3.25177">
        <ele>20.32</ele>
        <time>2015-04-06T10:10:37Z</time>
      </trkpt>
      <trkpt lat="50.69165" lon="3.25092">
        <ele>20.32</ele>
        <time>2015-04-06T10:10:48Z</time>
      </trkpt>
      <trkpt lat="50.69166" lon="3.25061">
        <ele>19.84</ele>
        <time>2015-04-06T10:10:52Z</time>
      </trkpt>
      <trkpt lat="50.69169" lon="3.24978">
        <ele>19.84</ele>
        <time>2015-04-06T10:11:02Z</time>
      </trkpt>
      <trkpt lat="50.69172" lon="3.24908">
        <ele>19.84</ele>
        <time>2015-04-06T10:11:10Z</time>
      </trkpt>
      <trkpt lat="50.69175" lon="3.24832">
        <ele>20.32</ele>
        <time>2015-04-06T10:11:19Z</time>
      </trkpt>
      <trkpt lat="50.69178" lon="3.24757">
        <ele>20.32</ele>
        <time>2015-04-06T10:11:28Z</time>
      </trkpt>
      <trkpt lat="50.69181" lon="3.24686">
        <ele>19.84</ele>
        <time>2015-04-06T10:11:36Z</time>
      </trkpt>
      <trkpt lat="50.69183" lon="3.24616">
        <ele>19.84</ele>
        <time>2015-04-06T10:11:44Z</time>
      </trkpt>
      <trkpt lat="50.6918" lon="3.24582">
        <ele>19.84</ele>
        <time>2015-04-06T10:11:48Z</time>
      </trkpt>
      <trkpt lat="50.69174" lon="3.24549">
        <ele>20.32</ele>
        <time>2015-04-06T10:11:52Z</time>
      </trkpt>
      <trkpt lat="50.69171" lon="3.24541">
        <ele>20.32</ele>
        <time>2015-04-06T10:11:53Z</time>
      </trkpt>
      <trkpt lat="50.6916" lon="3.24511">
        <ele>20.32</ele>
        <time>2015-04-06T10:11:57Z</time>
      </trkpt>
      <trkpt lat="50.69131" lon="3.24447">
        <ele>19.84</ele>
        <time>2015-04-06T10:12:06Z</time>
      </trkpt>
      <trkpt lat="50.69129" lon="3.2444">
        <ele>19.84</ele>
        <time>2015-04-06T10:12:07Z</time>
      </trkpt>
      <trkpt lat="50.69097" lon="3.24368">
        <ele>19.84</ele>
        <time>2015-04-06T10:12:17Z</time>
      </trkpt>
      <trkpt lat="50.69066" lon="3.24298">
        <ele>19.84</ele>
        <time>2015-04-06T10:12:27Z</time>
      </trkpt>
      <trkpt lat="50.69036" lon="3.24228">
        <ele>20.32</ele>
        <time>2015-04-06T10:12:37Z</time>
      </trkpt>
      <trkpt lat="50.69005" lon="3.24158">
        <ele>20.32</ele>
        <time>2015-04-06T10:12:47Z</time>
      </trkpt>
      <trkpt lat="50.68996" lon="3.24139">
        <ele>20.32</ele>
        <time>2015-04-06T10:12:50Z</time>
      </trkpt>
      <trkpt lat="50.68973" lon="3.24088">
        <ele>19.84</ele>
        <time>2015-04-06T10:12:58Z</time>
      </trkpt>
      <trkpt lat="50.68963" lon="3.24061">
        <ele>19.84</ele>
        <time>2015-04-06T10:13:02Z</time>
      </trkpt>
      <trkpt lat="50.68959" lon="3.24046">
        <ele>19.84</ele>
        <time>2015-04-06T10:13:04Z</time>
      </trkpt>
      <trkpt lat="50.68958" lon="3.24039">
        <ele>19.84</ele>
        <time>2015-04-06T10:13:05Z</time>
      </trkpt>
      <trkpt lat="50.68956" lon="3.24031">
        <ele>20.32</ele>
        <time>2015-04-06T10:13:06Z</time>
      </trkpt>
      <trkpt lat="50.68954" lon="3.24016">
        <ele>20.81</ele>
        <time>2015-04-06T10:13:08Z</time>
      </trkpt>
      <trkpt lat="50.6895" lon="3.2397">
        <ele>22.25</ele>
        <time>2015-04-06T10:13:14Z</time>
      </trkpt>
      <trkpt lat="50.68949" lon="3.23963">
        <ele>22.25</ele>
        <time>2015-04-06T10:13:15Z</time>
      </trkpt>
      <trkpt lat="50.68947" lon="3.23925">
        <ele>22.73</ele>
        <time>2015-04-06T10:13:20Z</time>
      </trkpt>
      <trkpt lat="50.68943" lon="3.23864">
        <ele>21.77</ele>
        <time>2015-04-06T10:13:28Z</time>
      </trkpt>
      <trkpt lat="50.68942" lon="3.23856">
        <ele>22.25</ele>
        <time>2015-04-06T10:13:29Z</time>
      </trkpt>
      <trkpt lat="50.6894" lon="3.23828">
        <ele>22.73</ele>
        <time>2015-04-06T10:13:33Z</time>
      </trkpt>
      <trkpt lat="50.68938" lon="3.23782">
        <ele>23.69</ele>
        <time>2015-04-06T10:13:39Z</time>
      </trkpt>
      <trkpt lat="50.68933" lon="3.23729">
        <ele>24.17</ele>
        <time>2015-04-06T10:13:46Z</time>
      </trkpt>
      <trkpt lat="50.6893" lon="3.23685">
        <ele>24.65</ele>
        <time>2015-04-06T10:13:53Z</time>
      </trkpt>
      <trkpt lat="50.68927" lon="3.23662">
        <ele>25.13</ele>
        <time>2015-04-06T10:13:58Z</time>
      </trkpt>
      <trkpt lat="50.68926" lon="3.2363">
        <ele>25.13</ele>
        <time>2015-04-06T10:14:05Z</time>
      </trkpt>
      <trkpt lat="50.68928" lon="3.23626">
        <ele>24.65</ele>
        <time>2015-04-06T10:14:06Z</time>
      </trkpt>
      <trkpt lat="50.68931" lon="3.23624">
        <ele>24.65</ele>
        <time>2015-04-06T10:14:07Z</time>
      </trkpt>
      <trkpt lat="50.68962" lon="3.23618">
        <ele>24.65</ele>
        <time>2015-04-06T10:14:14Z</time>
      </trkpt>
      <trkpt lat="50.69002" lon="3.23613">
        <ele>24.17</ele>
        <time>2015-04-06T10:14:21Z</time>
      </trkpt>
      <trkpt lat="50.6906" lon="3.23612">
        <ele>22.25</ele>
        <time>2015-04-06T10:14:31Z</time>
      </trkpt>
      <trkpt lat="50.69113" lon="3.23614">
        <ele>21.77</ele>
        <time>2015-04-06T10:14:40Z</time>
      </trkpt>
      <trkpt lat="50.6913" lon="3.23609">
        <ele>21.29</ele>
        <time>2015-04-06T10:14:43Z</time>
      </trkpt>
      <trkpt lat="50.69136" lon="3.23606">
        <ele>20.81</ele>
        <time>2015-04-06T10:14:44Z</time>
      </trkpt>
      <trkpt lat="50.69141" lon="3.23602">
        <ele>20.81</ele>
        <time>2015-04-06T10:14:45Z</time>
      </trkpt>
      <trkpt lat="50.69146" lon="3.23598">
        <ele>20.81</ele>
        <time>2015-04-06T10:14:46Z</time>
      </trkpt>
      <trkpt lat="50.6915" lon="3.23593">
        <ele>20.81</ele>
        <time>2015-04-06T10:14:47Z</time>
      </trkpt>
      <trkpt lat="50.69154" lon="3.23587">
        <ele>20.81</ele>
        <time>2015-04-06T10:14:48Z</time>
      </trkpt>
      <trkpt lat="50.69186" lon="3.23539">
        <ele>21.77</ele>
        <time>2015-04-06T10:14:56Z</time>
      </trkpt>
      <trkpt lat="50.69195" lon="3.23528">
        <ele>22.25</ele>
        <time>2015-04-06T10:14:58Z</time>
      </trkpt>
      <trkpt lat="50.692" lon="3.23524">
        <ele>22.25</ele>
        <time>2015-04-06T10:14:59Z</time>
      </trkpt>
      <trkpt lat="50.69251" lon="3.23484">
        <ele>22.73</ele>
        <time>2015-04-06T10:15:09Z</time>
      </trkpt>
      <trkpt lat="50.69291" lon="3.23452">
        <ele>23.21</ele>
        <time>2015-04-06T10:15:17Z</time>
      </trkpt>
      <trkpt lat="50.6934" lon="3.23412">
        <ele>24.17</ele>
        <time>2015-04-06T10:15:27Z</time>
      </trkpt>
      <trkpt lat="50.69354" lon="3.23402">
        <ele>24.17</ele>
        <time>2015-04-06T10:15:30Z</time>
      </trkpt>
      <trkpt lat="50.6936" lon="3.23399">
        <ele>24.17</ele>
        <time>2015-04-06T10:15:31Z</time>
      </trkpt>
      <trkpt lat="50.69375" lon="3.23395">
        <ele>24.65</ele>
        <time>2015-04-06T10:15:34Z</time>
      </trkpt>
      <trkpt lat="50.69391" lon="3.23395">
        <ele>25.13</ele>
        <time>2015-04-06T10:15:37Z</time>
      </trkpt>
      <trkpt lat="50.69396" lon="3.23397">
        <ele>25.13</ele>
        <time>2015-04-06T10:15:38Z</time>
      </trkpt>
      <trkpt lat="50.69437" lon="3.23405">
        <ele>25.61</ele>
        <time>2015-04-06T10:15:46Z</time>
      </trkpt>
      <trkpt lat="50.69469" lon="3.2341">
        <ele>27.05</ele>
        <time>2015-04-06T10:15:53Z</time>
      </trkpt>
      <trkpt lat="50.69477" lon="3.23416">
        <ele>27.53</ele>
        <time>2015-04-06T10:15:55Z</time>
      </trkpt>
      <trkpt lat="50.6948" lon="3.23419">
        <ele>28.02</ele>
        <time>2015-04-06T10:15:56Z</time>
      </trkpt>
      <trkpt lat="50.69487" lon="3.23425">
        <ele>28.02</ele>
        <time>2015-04-06T10:15:58Z</time>
      </trkpt>
      <trkpt lat="50.69492" lon="3.23427">
        <ele>28.5</ele>
        <time>2015-04-06T10:15:59Z</time>
      </trkpt>
      <trkpt lat="50.69496" lon="3.23426">
        <ele>28.5</ele>
        <time>2015-04-06T10:16:00Z</time>
      </trkpt>
      <trkpt lat="50.695" lon="3.23424">
        <ele>28.5</ele>
        <time>2015-04-06T10:16:01Z</time>
      </trkpt>
      <trkpt lat="50.69503" lon="3.23421">
        <ele>28.02</ele>
        <time>2015-04-06T10:16:02Z</time>
      </trkpt>
      <trkpt lat="50.69506" lon="3.23416">
        <ele>28.02</ele>
        <time>2015-04-06T10:16:03Z</time>
      </trkpt>
      <trkpt lat="50.69509" lon="3.23411">
        <ele>28.02</ele>
        <time>2015-04-06T10:16:04Z</time>
      </trkpt>
      <trkpt lat="50.69515" lon="3.23401">
        <ele>27.53</ele>
        <time>2015-04-06T10:16:06Z</time>
      </trkpt>
      <trkpt lat="50.69523" lon="3.23393">
        <ele>27.53</ele>
        <time>2015-04-06T10:16:08Z</time>
      </trkpt>
      <trkpt lat="50.69527" lon="3.2339">
        <ele>27.53</ele>
        <time>2015-04-06T10:16:09Z</time>
      </trkpt>
      <trkpt lat="50.69569" lon="3.23359">
        <ele>28.02</ele>
        <time>2015-04-06T10:16:19Z</time>
      </trkpt>
      <trkpt lat="50.6959" lon="3.23345">
        <ele>28.02</ele>
        <time>2015-04-06T10:16:24Z</time>
      </trkpt>
      <trkpt lat="50.69631" lon="3.23328">
        <ele>28.02</ele>
        <time>2015-04-06T10:16:33Z</time>
      </trkpt>
      <trkpt lat="50.69677" lon="3.23311">
        <ele>28.5</ele>
        <time>2015-04-06T10:16:43Z</time>
      </trkpt>
      <trkpt lat="50.69711" lon="3.23289">
        <ele>28.5</ele>
        <time>2015-04-06T10:16:51Z</time>
      </trkpt>
      <trkpt lat="50.69754" lon="3.23252">
        <ele>28.02</ele>
        <time>2015-04-06T10:17:02Z</time>
      </trkpt>
      <trkpt lat="50.69758" lon="3.2325">
        <ele>28.02</ele>
        <time>2015-04-06T10:17:03Z</time>
      </trkpt>
      <trkpt lat="50.69763" lon="3.23248">
        <ele>28.02</ele>
        <time>2015-04-06T10:17:04Z</time>
      </trkpt>
      <trkpt lat="50.69767" lon="3.23247">
        <ele>28.02</ele>
        <time>2015-04-06T10:17:05Z</time>
      </trkpt>
      <trkpt lat="50.69771" lon="3.23248">
        <ele>28.02</ele>
        <time>2015-04-06T10:17:06Z</time>
      </trkpt>
      <trkpt lat="50.69776" lon="3.2325">
        <ele>28.02</ele>
        <time>2015-04-06T10:17:07Z</time>
      </trkpt>
      <trkpt lat="50.6978" lon="3.23252">
        <ele>28.02</ele>
        <time>2015-04-06T10:17:08Z</time>
      </trkpt>
      <trkpt lat="50.69784" lon="3.23254">
        <ele>28.02</ele>
        <time>2015-04-06T10:17:09Z</time>
      </trkpt>
      <trkpt lat="50.69789" lon="3.23254">
        <ele>28.02</ele>
        <time>2015-04-06T10:17:10Z</time>
      </trkpt>
      <trkpt lat="50.69793" lon="3.23253">
        <ele>28.02</ele>
        <time>2015-04-06T10:17:11Z</time>
      </trkpt>
      <trkpt lat="50.69798" lon="3.23252">
        <ele>28.02</ele>
        <time>2015-04-06T10:17:12Z</time>
      </trkpt>
      <trkpt lat="50.69802" lon="3.2325">
        <ele>28.02</ele>
        <time>2015-04-06T10:17:13Z</time>
      </trkpt>
      <trkpt lat="50.69807" lon="3.23247">
        <ele>28.02</ele>
        <time>2015-04-06T10:17:14Z</time>
      </trkpt>
      <trkpt lat="50.69811" lon="3.23243">
        <ele>28.5</ele>
        <time>2015-04-06T10:17:15Z</time>
      </trkpt>
      <trkpt lat="50.69814" lon="3.23239">
        <ele>28.5</ele>
        <time>2015-04-06T10:17:16Z</time>
      </trkpt>
      <trkpt lat="50.69818" lon="3.23234">
        <ele>28.02</ele>
        <time>2015-04-06T10:17:17Z</time>
      </trkpt>
      <trkpt lat="50.69821" lon="3.23228">
        <ele>28.02</ele>
        <time>2015-04-06T10:17:18Z</time>
      </trkpt>
      <trkpt lat="50.69823" lon="3.23222">
        <ele>28.02</ele>
        <time>2015-04-06T10:17:19Z</time>
      </trkpt>
      <trkpt lat="50.69827" lon="3.23208">
        <ele>28.02</ele>
        <time>2015-04-06T10:17:21Z</time>
      </trkpt>
      <trkpt lat="50.69832" lon="3.23187">
        <ele>28.02</ele>
        <time>2015-04-06T10:17:24Z</time>
      </trkpt>
      <trkpt lat="50.69836" lon="3.23181">
        <ele>28.02</ele>
        <time>2015-04-06T10:17:25Z</time>
      </trkpt>
      <trkpt lat="50.6984" lon="3.23176">
        <ele>28.02</ele>
        <time>2015-04-06T10:17:26Z</time>
      </trkpt>
      <trkpt lat="50.69844" lon="3.23172">
        <ele>28.02</ele>
        <time>2015-04-06T10:17:27Z</time>
      </trkpt>
      <trkpt lat="50.69849" lon="3.23168">
        <ele>27.53</ele>
        <time>2015-04-06T10:17:28Z</time>
      </trkpt>
      <trkpt lat="50.69892" lon="3.23139">
        <ele>28.02</ele>
        <time>2015-04-06T10:17:37Z</time>
      </trkpt>
      <trkpt lat="50.69948" lon="3.23107">
        <ele>28.02</ele>
        <time>2015-04-06T10:17:48Z</time>
      </trkpt>
      <trkpt lat="50.6999" lon="3.23082">
        <ele>28.5</ele>
        <time>2015-04-06T10:17:56Z</time>
      </trkpt>
      <trkpt lat="50.70015" lon="3.23068">
        <ele>29.46</ele>
        <time>2015-04-06T10:18:01Z</time>
      </trkpt>
      <trkpt lat="50.7002" lon="3.23066">
        <ele>28.98</ele>
        <time>2015-04-06T10:18:02Z</time>
      </trkpt>
      <trkpt lat="50.7003" lon="3.23064">
        <ele>28.98</ele>
        <time>2015-04-06T10:18:04Z</time>
      </trkpt>
      <trkpt lat="50.70035" lon="3.23065">
        <ele>28.98</ele>
        <time>2015-04-06T10:18:05Z</time>
      </trkpt>
      <trkpt lat="50.7004" lon="3.23069">
        <ele>28.98</ele>
        <time>2015-04-06T10:18:06Z</time>
      </trkpt>
      <trkpt lat="50.70045" lon="3.23073">
        <ele>29.46</ele>
        <time>2015-04-06T10:18:07Z</time>
      </trkpt>
      <trkpt lat="50.7005" lon="3.23077">
        <ele>29.46</ele>
        <time>2015-04-06T10:18:08Z</time>
      </trkpt>
      <trkpt lat="50.70055" lon="3.2308">
        <ele>29.46</ele>
        <time>2015-04-06T10:18:09Z</time>
      </trkpt>
      <trkpt lat="50.7006" lon="3.2308">
        <ele>29.46</ele>
        <time>2015-04-06T10:18:10Z</time>
      </trkpt>
      <trkpt lat="50.70065" lon="3.23079">
        <ele>29.46</ele>
        <time>2015-04-06T10:18:11Z</time>
      </trkpt>
      <trkpt lat="50.7007" lon="3.23076">
        <ele>29.94</ele>
        <time>2015-04-06T10:18:12Z</time>
      </trkpt>
      <trkpt lat="50.70074" lon="3.23071">
        <ele>29.46</ele>
        <time>2015-04-06T10:18:13Z</time>
      </trkpt>
      <trkpt lat="50.70078" lon="3.23065">
        <ele>29.46</ele>
        <time>2015-04-06T10:18:14Z</time>
      </trkpt>
      <trkpt lat="50.70082" lon="3.23059">
        <ele>29.46</ele>
        <time>2015-04-06T10:18:15Z</time>
      </trkpt>
      <trkpt lat="50.70085" lon="3.23052">
        <ele>29.46</ele>
        <time>2015-04-06T10:18:16Z</time>
      </trkpt>
      <trkpt lat="50.70089" lon="3.23047">
        <ele>29.46</ele>
        <time>2015-04-06T10:18:17Z</time>
      </trkpt>
      <trkpt lat="50.70094" lon="3.23043">
        <ele>29.46</ele>
        <time>2015-04-06T10:18:18Z</time>
      </trkpt>
      <trkpt lat="50.70099" lon="3.2304">
        <ele>29.46</ele>
        <time>2015-04-06T10:18:19Z</time>
      </trkpt>
      <trkpt lat="50.70135" lon="3.2301">
        <ele>28.98</ele>
        <time>2015-04-06T10:18:27Z</time>
      </trkpt>
      <trkpt lat="50.70144" lon="3.23003">
        <ele>28.98</ele>
        <time>2015-04-06T10:18:29Z</time>
      </trkpt>
      <trkpt lat="50.70148" lon="3.23">
        <ele>28.98</ele>
        <time>2015-04-06T10:18:30Z</time>
      </trkpt>
      <trkpt lat="50.70152" lon="3.22999">
        <ele>28.98</ele>
        <time>2015-04-06T10:18:31Z</time>
      </trkpt>
      <trkpt lat="50.70157" lon="3.22999">
        <ele>28.98</ele>
        <time>2015-04-06T10:18:32Z</time>
      </trkpt>
      <trkpt lat="50.7016" lon="3.23001">
        <ele>29.46</ele>
        <time>2015-04-06T10:18:33Z</time>
      </trkpt>
      <trkpt lat="50.70164" lon="3.23005">
        <ele>28.98</ele>
        <time>2015-04-06T10:18:34Z</time>
      </trkpt>
      <trkpt lat="50.70167" lon="3.2301">
        <ele>28.98</ele>
        <time>2015-04-06T10:18:35Z</time>
      </trkpt>
      <trkpt lat="50.7017" lon="3.23015">
        <ele>28.98</ele>
        <time>2015-04-06T10:18:36Z</time>
      </trkpt>
      <trkpt lat="50.70191" lon="3.23056">
        <ele>29.46</ele>
        <time>2015-04-06T10:18:43Z</time>
      </trkpt>
      <trkpt lat="50.70219" lon="3.23105">
        <ele>29.46</ele>
        <time>2015-04-06T10:18:52Z</time>
      </trkpt>
      <trkpt lat="50.70222" lon="3.23106">
        <ele>29.46</ele>
        <time>2015-04-06T10:18:53Z</time>
      </trkpt>
      <trkpt lat="50.70226" lon="3.23106">
        <ele>29.46</ele>
        <time>2015-04-06T10:18:54Z</time>
      </trkpt>
      <trkpt lat="50.70229" lon="3.23105">
        <ele>29.46</ele>
        <time>2015-04-06T10:18:55Z</time>
      </trkpt>
      <trkpt lat="50.70233" lon="3.23103">
        <ele>29.46</ele>
        <time>2015-04-06T10:18:56Z</time>
      </trkpt>
      <trkpt lat="50.70237" lon="3.23102">
        <ele>28.98</ele>
        <time>2015-04-06T10:18:57Z</time>
      </trkpt>
      <trkpt lat="50.70242" lon="3.23102">
        <ele>28.5</ele>
        <time>2015-04-06T10:18:58Z</time>
      </trkpt>
      <trkpt lat="50.70246" lon="3.23102">
        <ele>28.5</ele>
        <time>2015-04-06T10:18:59Z</time>
      </trkpt>
      <trkpt lat="50.70289" lon="3.23102">
        <ele>28.02</ele>
        <time>2015-04-06T10:19:08Z</time>
      </trkpt>
      <trkpt lat="50.70303" lon="3.231">
        <ele>27.53</ele>
        <time>2015-04-06T10:19:11Z</time>
      </trkpt>
      <trkpt lat="50.7034" lon="3.23101">
        <ele>27.05</ele>
        <time>2015-04-06T10:19:19Z</time>
      </trkpt>
      <trkpt lat="50.70343" lon="3.23102">
        <ele>27.53</ele>
        <time>2015-04-06T10:19:20Z</time>
      </trkpt>
      <trkpt lat="50.70346" lon="3.23105">
        <ele>28.02</ele>
        <time>2015-04-06T10:19:21Z</time>
      </trkpt>
      <trkpt lat="50.7035" lon="3.2311">
        <ele>28.5</ele>
        <time>2015-04-06T10:19:22Z</time>
      </trkpt>
      <trkpt lat="50.70352" lon="3.23117">
        <ele>28.5</ele>
        <time>2015-04-06T10:19:23Z</time>
      </trkpt>
      <trkpt lat="50.70353" lon="3.23125">
        <ele>28.5</ele>
        <time>2015-04-06T10:19:24Z</time>
      </trkpt>
      <trkpt lat="50.70355" lon="3.23132">
        <ele>28.98</ele>
        <time>2015-04-06T10:19:25Z</time>
      </trkpt>
      <trkpt lat="50.70358" lon="3.23139">
        <ele>28.98</ele>
        <time>2015-04-06T10:19:26Z</time>
      </trkpt>
      <trkpt lat="50.70362" lon="3.23144">
        <ele>28.98</ele>
        <time>2015-04-06T10:19:27Z</time>
      </trkpt>
      <trkpt lat="50.70366" lon="3.23147">
        <ele>28.98</ele>
        <time>2015-04-06T10:19:28Z</time>
      </trkpt>
      <trkpt lat="50.70371" lon="3.2315">
        <ele>29.46</ele>
        <time>2015-04-06T10:19:29Z</time>
      </trkpt>
      <trkpt lat="50.70374" lon="3.23155">
        <ele>29.46</ele>
        <time>2015-04-06T10:19:30Z</time>
      </trkpt>
      <trkpt lat="50.70377" lon="3.23163">
        <ele>29.46</ele>
        <time>2015-04-06T10:19:31Z</time>
      </trkpt>
      <trkpt lat="50.70378" lon="3.2317">
        <ele>29.46</ele>
        <time>2015-04-06T10:19:32Z</time>
      </trkpt>
      <trkpt lat="50.70378" lon="3.23177">
        <ele>28.98</ele>
        <time>2015-04-06T10:19:33Z</time>
      </trkpt>
      <trkpt lat="50.70378" lon="3.23192">
        <ele>28.02</ele>
        <time>2015-04-06T10:19:35Z</time>
      </trkpt>
      <trkpt lat="50.7038" lon="3.23198">
        <ele>28.02</ele>
        <time>2015-04-06T10:19:36Z</time>
      </trkpt>
      <trkpt lat="50.70383" lon="3.23203">
        <ele>28.02</ele>
        <time>2015-04-06T10:19:37Z</time>
      </trkpt>
      <trkpt lat="50.70387" lon="3.23205">
        <ele>28.5</ele>
        <time>2015-04-06T10:19:38Z</time>
      </trkpt>
      <trkpt lat="50.70391" lon="3.23205">
        <ele>28.5</ele>
        <time>2015-04-06T10:19:39Z</time>
      </trkpt>
      <trkpt lat="50.70396" lon="3.23204">
        <ele>28.98</ele>
        <time>2015-04-06T10:19:40Z</time>
      </trkpt>
      <trkpt lat="50.704" lon="3.23202">
        <ele>28.98</ele>
        <time>2015-04-06T10:19:41Z</time>
      </trkpt>
      <trkpt lat="50.70404" lon="3.232">
        <ele>28.98</ele>
        <time>2015-04-06T10:19:42Z</time>
      </trkpt>
      <trkpt lat="50.7043" lon="3.23191">
        <ele>29.46</ele>
        <time>2015-04-06T10:19:49Z</time>
      </trkpt>
      <trkpt lat="50.7046" lon="3.23185">
        <ele>30.42</ele>
        <time>2015-04-06T10:19:57Z</time>
      </trkpt>
      <trkpt lat="50.70468" lon="3.23184">
        <ele>30.42</ele>
        <time>2015-04-06T10:19:59Z</time>
      </trkpt>
      <trkpt lat="50.70481" lon="3.2318">
        <ele>31.38</ele>
        <time>2015-04-06T10:20:02Z</time>
      </trkpt>
      <trkpt lat="50.70517" lon="3.23164">
        <ele>31.38</ele>
        <time>2015-04-06T10:20:11Z</time>
      </trkpt>
      <trkpt lat="50.70527" lon="3.23154">
        <ele>31.38</ele>
        <time>2015-04-06T10:20:15Z</time>
      </trkpt>
      <trkpt lat="50.70528" lon="3.23149">
        <ele>31.38</ele>
        <time>2015-04-06T10:20:16Z</time>
      </trkpt>
      <trkpt lat="50.70527" lon="3.23143">
        <ele>30.9</ele>
        <time>2015-04-06T10:20:17Z</time>
      </trkpt>
      <trkpt lat="50.70523" lon="3.23116">
        <ele>30.9</ele>
        <time>2015-04-06T10:20:21Z</time>
      </trkpt>
      <trkpt lat="50.7052" lon="3.23087">
        <ele>31.38</ele>
        <time>2015-04-06T10:20:26Z</time>
      </trkpt>
      <trkpt lat="50.70522" lon="3.23084">
        <ele>31.38</ele>
        <time>2015-04-06T10:20:27Z</time>
      </trkpt>
      <trkpt lat="50.70525" lon="3.23081">
        <ele>31.38</ele>
        <time>2015-04-06T10:20:28Z</time>
      </trkpt>
      <trkpt lat="50.70527" lon="3.23079">
        <ele>31.38</ele>
        <time>2015-04-06T10:20:29Z</time>
      </trkpt>
      <trkpt lat="50.7053" lon="3.23076">
        <ele>31.38</ele>
        <time>2015-04-06T10:20:30Z</time>
      </trkpt>
      <trkpt lat="50.70533" lon="3.23074">
        <ele>31.86</ele>
        <time>2015-04-06T10:20:31Z</time>
      </trkpt>
      <trkpt lat="50.70536" lon="3.23072">
        <ele>31.86</ele>
        <time>2015-04-06T10:20:32Z</time>
      </trkpt>
      <trkpt lat="50.70539" lon="3.2307">
        <ele>31.86</ele>
        <time>2015-04-06T10:20:33Z</time>
      </trkpt>
      <trkpt lat="50.70555" lon="3.23064">
        <ele>31.86</ele>
        <time>2015-04-06T10:20:38Z</time>
      </trkpt>
      <trkpt lat="50.7058" lon="3.2304">
        <ele>33.3</ele>
        <time>2015-04-06T10:20:46Z</time>
      </trkpt>
      <trkpt lat="50.70603" lon="3.23003">
        <ele>35.23</ele>
        <time>2015-04-06T10:20:55Z</time>
      </trkpt>
      <trkpt lat="50.70622" lon="3.22982">
        <ele>36.19</ele>
        <time>2015-04-06T10:21:03Z</time>
      </trkpt>
      <trkpt lat="50.70624" lon="3.22981">
        <ele>36.67</ele>
        <time>2015-04-06T10:21:09Z</time>
      </trkpt>
      <trkpt lat="50.70625" lon="3.2298">
        <ele>36.67</ele>
        <time>2015-04-06T10:21:17Z</time>
      </trkpt>
      <trkpt lat="50.70626" lon="3.2298">
        <ele>36.67</ele>
        <time>2015-04-06T10:21:28Z</time>
      </trkpt>
      <trkpt lat="50.70626" lon="3.22979">
        <ele>36.19</ele>
        <time>2015-04-06T10:21:43Z</time>
      </trkpt>
      <trkpt lat="50.70628" lon="3.22978">
        <ele>36.19</ele>
        <time>2015-04-06T10:21:53Z</time>
      </trkpt>
      <trkpt lat="50.70633" lon="3.22976">
        <ele>36.19</ele>
        <time>2015-04-06T10:22:00Z</time>
      </trkpt>
      <trkpt lat="50.7064" lon="3.22971">
        <ele>35.71</ele>
        <time>2015-04-06T10:22:09Z</time>
      </trkpt>
      <trkpt lat="50.70642" lon="3.22969">
        <ele>36.19</ele>
        <time>2015-04-06T10:22:16Z</time>
      </trkpt>
      <trkpt lat="50.70643" lon="3.22965">
        <ele>35.71</ele>
        <time>2015-04-06T10:22:24Z</time>
      </trkpt>
      <trkpt lat="50.70643" lon="3.22963">
        <ele>35.23</ele>
        <time>2015-04-06T10:22:35Z</time>
      </trkpt>
      <trkpt lat="50.70644" lon="3.22963">
        <ele>34.74</ele>
        <time>2015-04-06T10:22:47Z</time>
      </trkpt>
      <trkpt lat="50.70643" lon="3.22969">
        <ele>34.26</ele>
        <time>2015-04-06T10:23:00Z</time>
      </trkpt>
      <trkpt lat="50.70643" lon="3.2297">
        <ele>34.26</ele>
        <time>2015-04-06T10:23:13Z</time>
      </trkpt>
      <trkpt lat="50.70646" lon="3.22968">
        <ele>33.78</ele>
        <time>2015-04-06T10:23:24Z</time>
      </trkpt>
    </trkseg>
  </trk>
</gpx>